GFSCGP_500_spd_000.txt.gz
Wind_Speed
9 8 9 9 8 8 6 7 8 9 9 8 10 13 12 15 13 12 15 15 16 18 21 23 26 30 33 34 37 40 40 40 43 45 46 48 50 52 52 51 52 51 52 53
6 6 6 6 5 4 3 5 7 8 10 10 11 12 11 13 15 16 16 18 21 23 26 28 31 34 36 37 39 41 42 44 46 49 50 51 53 54 52 52 53 55 56 57
8 9 7 6 6 6 6 7 9 10 12 14 13 15 14 13 16 17 20 22 25 28 30 32 34 36 37 38 41 43 44 47 50 52 53 55 54 54 55 57 58 60 62 64
9 9 9 9 9 9 10 10 10 12 13 14 14 17 15 16 20 22 24 26 30 31 34 36 36 37 39 41 44 44 47 50 51 52 53 53 54 56 59 61 62 65 67 68
10 11 11 12 14 14 14 14 14 15 15 16 16 17 20 21 24 27 29 32 33 34 34 36 37 39 41 44 46 47 48 47 49 51 54 55 57 60 64 66 67 69 71 74
13 15 16 17 17 18 17 17 17 19 19 20 19 20 27 25 27 31 33 33 33 34 35 37 39 42 45 45 45 45 46 48 50 52 53 57 62 65 69 70 71 74 76 79
15 16 17 18 20 20 19 18 18 19 19 21 20 22 26 28 30 31 33 34 34 35 36 38 40 42 43 42 43 46 49 52 52 55 60 63 65 70 74 74 75 78 79 81
9 9 9 10 11 13 14 13 14 17 19 22 22 26 29 29 30 31 33 34 35 35 37 37 38 39 41 45 48 51 52 53 55 60 64 68 71 72 74 76 77 77 80 82
5 6 6 6 8 10 12 14 17 19 21 23 24 25 26 27 30 31 32 33 32 32 34 34 39 42 47 50 51 52 54 58 61 65 68 68 70 73 75 77 79 81 82 83
7 9 10 11 12 14 16 18 20 21 23 24 22 27 27 30 33 31 29 31 33 33 37 42 45 48 50 51 53 55 58 62 63 65 68 71 74 75 77 80 81 82 82 85
10 11 11 13 15 17 20 22 24 25 26 28 28 25 32 35 33 35 33 31 34 36 41 44 46 48 50 53 56 60 63 66 69 71 73 74 76 79 81 82 83 82 83 88
10 12 15 18 20 22 24 26 27 29 32 32 32 28 31 36 36 34 34 35 38 40 44 46 47 51 55 57 61 65 67 68 70 73 74 78 81 82 82 82 80 81 89 91
14 17 20 22 24 26 28 28 29 31 31 31 35 30 35 36 34 36 36 40 43 46 47 49 52 54 59 62 67 70 71 73 74 75 81 85 86 82 85 83 85 86 89 94
19 22 26 29 31 32 30 30 32 32 32 34 30 30 30 34 36 37 40 42 45 47 51 55 58 62 67 70 71 71 72 76 70 72 85 87 84 84 83 85 87 91 94 85
22 26 29 33 33 31 29 29 33 33 33 34 30 29 34 35 36 37 38 41 44 49 54 58 63 68 71 71 72 72 73 73 69 81 93 89 85 85 84 87 87 87 75 62
26 30 34 34 37 32 29 31 32 32 34 34 33 32 31 35 37 39 43 46 51 55 59 65 70 75 76 76 75 75 75 74 80 93 91 87 85 86 87 86 80 69 61 55
31 34 38 40 36 30 27 28 27 25 28 30 32 33 36 38 41 44 48 52 57 62 68 73 76 77 76 71 70 77 80 83 86 87 84 84 84 83 82 71 63 56 54 55
34 38 44 44 40 31 32 29 26 22 24 28 31 32 36 40 45 49 53 58 63 68 72 75 77 76 76 76 76 81 83 83 84 81 81 82 81 76 67 56 52 53 53 56
36 42 48 47 45 34 29 31 28 28 26 30 34 38 40 43 49 55 58 61 67 72 75 76 76 77 77 77 78 79 80 79 77 80 79 78 72 64 55 49 50 51 55 58
39 46 49 49 45 41 36 32 32 33 36 37 39 43 46 51 56 61 65 69 72 75 77 79 80 79 79 80 80 79 77 77 78 77 75 69 62 55 48 48 50 53 56 59
41 48 49 46 42 38 36 38 38 39 43 45 49 51 55 59 63 68 71 75 77 79 79 80 81 81 81 79 78 76 78 78 76 74 67 60 54 46 46 47 51 53 56 56
45 52 48 44 39 39 38 40 42 43 45 48 50 54 60 65 69 72 73 76 79 78 79 80 80 80 78 77 76 77 78 77 73 68 60 53 45 45 44 47 49 52 55 52
45 47 43 43 37 40 41 42 45 49 50 53 56 60 65 70 74 75 77 77 78 79 80 80 80 80 78 78 80 79 76 74 69 62 51 43 41 41 43 44 48 51 52 48
48 45 40 42 39 43 43 44 47 51 54 57 61 66 69 74 76 78 78 79 80 81 82 83 81 80 80 79 78 78 74 71 64 49 40 36 36 38 41 43 47 50 50 44
47 45 42 42 43 44 45 48 51 56 59 62 65 69 74 78 79 79 79 80 82 84 84 83 81 80 78 76 74 74 68 58 44 33 30 32 33 37 39 41 45 48 48 42
43 44 45 46 48 50 53 55 57 58 61 65 70 76 79 79 78 79 80 81 82 82 81 79 76 75 74 73 71 58 46 35 25 24 28 28 32 36 37 40 44 45 44 41

GFSCGP_500_spd_003.txt.gz
Wind_Speed
9 8 10 6 7 9 11 10 11 14 11 10 11 15 13 17 17 15 15 16 18 20 24 26 28 31 34 36 38 41 46 43 45 47 48 50 53 54 54 55 55 54 53 54
7 9 10 9 8 9 9 10 12 11 11 12 12 17 14 17 18 18 18 20 21 24 27 29 31 33 37 39 43 44 44 47 48 50 51 53 55 56 56 56 56 58 58 61
10 9 8 8 10 10 11 10 10 11 10 12 14 20 20 19 20 20 21 23 25 27 30 33 35 38 41 43 46 47 49 49 51 53 54 56 56 56 57 58 59 61 63 67
9 10 11 12 12 11 13 12 12 12 11 8 10 8 27 23 22 24 25 27 28 32 34 36 37 41 43 45 45 47 49 51 52 54 56 55 55 56 58 61 63 64 66 69
9 10 12 13 14 14 16 15 15 16 16 17 17 15 31 31 29 28 29 31 33 34 36 38 41 42 43 43 46 49 52 52 52 52 54 56 56 55 53 57 67 62 67 72
10 12 13 15 17 17 17 17 17 18 18 18 20 15 18 28 28 32 32 34 36 37 37 39 41 43 44 45 48 49 49 49 51 54 56 57 54 54 59 67 70 72 73 76
10 12 13 14 16 17 17 17 16 16 17 13 17 17 27 27 31 34 35 35 36 37 38 39 40 43 43 42 43 44 48 53 56 57 58 60 62 65 67 69 72 74 75 75
6 6 6 6 7 8 9 10 12 14 17 16 24 22 31 31 32 33 34 35 35 35 36 36 36 37 38 42 46 49 53 55 57 59 62 66 69 70 71 73 73 73 74 76
1 2 4 6 7 9 10 12 14 17 19 21 21 28 30 32 30 30 31 31 31 33 32 32 36 40 42 47 50 51 53 58 61 63 65 68 70 71 73 75 75 77 80 83
3 5 6 7 9 11 13 16 17 18 22 22 14 21 25 31 35 33 32 31 32 32 35 37 39 43 47 48 50 55 57 60 65 70 72 73 73 73 75 77 76 79 83 91
4 5 6 8 11 14 16 17 19 21 22 23 25 19 30 34 33 31 31 30 33 35 38 41 44 47 49 51 55 60 64 68 72 75 75 73 74 74 77 79 81 87 94 97
5 6 8 12 15 19 21 24 25 24 26 25 26 23 32 29 34 34 29 31 33 36 40 43 46 50 54 59 62 67 71 74 76 76 77 78 79 81 79 83 88 93 96 94
6 8 12 17 22 25 25 27 27 27 27 25 28 21 28 29 33 32 37 35 39 42 43 45 48 53 59 64 68 73 76 79 79 77 77 77 79 77 84 88 89 89 90 87
10 14 17 21 26 31 32 31 32 32 30 27 26 25 22 29 31 32 33 37 38 41 45 50 55 61 66 71 76 78 78 78 77 76 74 76 80 84 86 86 87 87 86 82
14 18 20 21 27 31 32 33 33 32 32 29 21 22 24 25 26 31 34 37 42 46 50 56 61 66 71 74 77 78 79 79 77 76 77 78 79 80 83 84 82 81 75 66
18 20 23 23 29 34 34 35 33 32 29 29 27 23 23 27 28 31 38 41 45 50 55 61 65 71 75 79 81 82 80 79 80 80 80 80 80 80 82 81 79 72 64 56
23 25 27 27 31 37 41 35 33 30 31 26 27 28 30 34 38 41 45 48 52 58 63 68 74 78 80 81 80 80 82 82 82 83 83 82 81 82 80 77 70 62 54 51
29 32 34 34 36 41 44 37 31 31 29 28 30 34 36 40 43 48 51 55 61 65 70 75 78 79 80 80 81 82 83 82 84 82 80 81 81 80 75 68 60 54 50 51
33 36 39 40 42 45 38 36 32 30 27 31 34 37 40 44 48 53 57 62 67 72 76 79 81 81 81 82 84 85 85 84 81 80 78 81 78 73 66 59 53 48 49 51
36 38 40 42 47 48 44 36 32 33 33 35 35 40 44 48 53 57 61 66 70 75 79 84 86 86 85 84 84 85 83 80 79 81 77 74 72 66 57 49 45 46 48 50
39 40 39 44 47 46 41 37 34 36 35 41 45 47 52 57 62 65 69 73 78 83 85 85 85 85 83 84 84 83 81 81 79 78 74 72 64 52 45 41 43 43 46 49
41 41 40 44 47 48 45 40 38 39 42 44 47 53 57 62 65 68 73 78 81 83 84 84 84 84 83 84 84 83 78 75 74 75 69 59 47 39 35 39 39 43 45 48
38 40 41 47 46 43 44 45 44 45 46 50 54 59 63 65 68 72 76 79 82 83 82 82 84 85 84 85 83 79 73 73 71 63 53 42 33 30 35 36 40 42 43 47
38 41 46 48 40 43 41 44 45 47 51 56 59 61 64 67 70 74 78 81 81 80 81 83 84 84 83 79 74 74 72 67 56 47 36 27 25 30 31 36 39 41 42 46
39 44 49 52 46 45 43 48 50 52 54 56 58 61 65 68 72 76 78 80 80 81 82 83 83 80 76 73 70 71 63 52 40 30 22 23 27 25 30 36 39 40 42 45
40 46 51 54 49 48 50 50 54 57 55 59 62 64 67 71 75 79 80 79 80 81 81 81 76 73 69 68 66 59 47 35 26 21 24 27 24 27 32 37 40 39 40 43

GFSCGP_500_spd_006.txt.gz
Wind_Speed
11 13 11 6 4 8 14 15 9 14 6 10 11 12 19 13 16 14 16 16 17 23 26 31 28 30 33 36 37 43 44 42 39 47 53 51 52 52 57 57 56 55 56 54
8 4 8 10 8 10 18 16 11 16 11 12 15 12 18 13 19 21 20 20 23 27 28 30 31 33 37 37 42 43 44 46 51 51 54 53 53 56 57 57 57 57 55 53
6 6 6 8 8 8 12 13 10 11 8 9 9 13 24 22 16 20 23 24 26 27 30 33 36 36 38 41 43 46 49 49 49 52 55 56 56 56 56 56 58 63 59 58
3 6 8 10 10 10 15 8 12 12 11 7 10 7 28 27 30 28 24 26 29 35 36 36 36 38 40 42 45 47 48 49 50 53 55 55 56 59 60 61 62 63 64 65
5 7 9 10 10 12 15 15 15 15 14 16 14 12 22 30 37 40 23 26 31 36 39 39 40 40 40 41 43 46 47 50 51 51 53 55 60 60 60 62 64 66 68 71
8 9 10 11 13 15 17 18 17 17 18 17 10 16 19 13 31 28 36 35 37 38 38 39 41 42 40 38 41 41 47 49 50 53 54 55 58 62 64 68 71 73 76 76
5 7 9 10 11 12 12 12 13 11 10 11 14 13 26 29 32 42 41 41 38 36 37 37 38 40 38 37 39 41 44 48 51 57 59 63 65 67 70 75 76 77 78 77
2 1 2 3 5 5 5 6 7 9 11 13 19 20 31 26 28 35 36 35 38 36 34 36 38 39 40 40 41 43 46 50 55 59 63 67 71 74 77 78 78 79 79 78
2 0 2 3 5 7 7 9 11 13 16 17 11 17 31 32 32 36 31 36 36 35 35 33 35 38 38 39 44 48 50 53 58 62 67 71 75 79 81 83 84 82 79 80
2 1 1 2 4 7 10 12 15 16 19 17 12 19 28 31 28 42 39 40 35 35 34 35 36 37 42 45 47 50 53 59 65 69 74 79 81 82 83 81 81 79 80 82
3 3 2 3 7 13 16 19 19 20 22 22 22 21 31 35 35 35 34 32 30 30 36 38 39 40 43 46 50 56 61 67 72 77 80 81 83 84 82 82 81 80 80 81
4 2 3 6 8 13 16 19 22 24 24 25 24 21 28 32 30 29 36 37 32 32 34 36 39 44 48 52 58 65 69 74 77 80 84 84 83 82 81 81 80 80 80 81
2 4 7 10 13 18 23 27 31 26 24 24 26 20 25 23 27 36 37 36 33 33 37 40 44 48 53 59 65 70 76 79 82 83 82 80 81 79 78 80 80 79 79 80
4 7 10 13 16 21 25 30 34 34 32 27 23 22 15 25 33 32 33 35 36 39 42 45 50 55 61 65 72 77 80 84 83 83 84 79 82 80 81 79 80 79 80 78
9 10 13 15 19 23 28 32 37 35 32 30 23 26 24 24 25 29 30 36 42 44 49 52 57 63 69 72 77 81 83 82 84 83 85 84 87 85 81 80 81 79 76 71
14 15 16 20 25 27 28 34 38 37 32 28 31 25 28 30 28 35 37 43 45 49 53 59 64 70 74 77 81 84 86 86 87 86 86 87 90 93 89 85 80 75 71 62
18 19 21 24 28 30 31 35 40 38 34 33 31 29 34 34 37 42 43 44 47 54 60 65 69 74 78 81 84 86 87 85 85 87 89 87 81 75 73 74 74 73 60 47
22 24 27 29 32 33 36 37 41 37 34 31 33 36 38 40 42 46 49 51 56 61 66 69 73 77 82 84 85 85 84 86 87 87 87 81 75 73 64 71 69 55 43 40
27 30 32 35 37 37 36 38 39 41 32 34 32 37 37 39 43 47 52 57 63 65 67 70 75 78 82 87 89 88 87 88 87 88 81 75 70 61 61 70 50 38 40 40
32 34 36 39 42 42 42 44 45 40 37 38 35 38 39 42 46 50 55 58 60 64 69 75 80 85 87 86 87 87 87 88 87 83 74 67 65 52 56 54 35 37 37 41
37 39 39 43 44 43 45 45 44 45 43 41 39 42 43 47 52 56 59 61 66 72 76 80 83 86 85 86 87 89 88 86 79 74 68 62 47 45 44 30 31 32 37 40
41 42 43 45 45 46 48 48 48 48 46 48 46 47 50 54 57 59 62 67 71 75 78 81 84 84 85 86 89 89 84 76 69 68 62 51 38 33 26 26 28 33 38 40
46 44 47 47 46 47 51 51 51 51 51 51 51 53 55 58 60 62 67 71 74 77 80 81 83 84 86 88 89 83 74 68 63 57 46 35 27 23 27 26 29 35 39 40
47 45 48 50 46 47 49 50 56 55 54 54 56 58 58 60 63 66 70 73 76 78 80 81 83 85 86 85 80 71 66 63 55 44 32 26 26 31 28 27 30 36 40 41
46 46 45 49 49 50 50 54 56 55 53 55 58 60 61 64 67 70 73 75 77 78 80 83 84 85 84 79 70 66 62 53 45 33 28 27 31 33 29 29 31 36 40 40
43 45 47 49 52 48 54 55 55 52 53 56 59 62 64 67 70 72 73 76 77 79 81 82 83 83 78 71 66 61 51 43 36 30 27 29 32 32 29 29 33 36 39 39

GFSCGP_500_spd_009.txt.gz
Wind_Speed
23 21 19 11 5 3 8 14 12 12 1 2 6 13 17 18 13 13 15 17 20 24 26 31 32 32 33 33 38 41 43 44 46 48 49 42 52 53 56 57 54 55 57 58
16 6 9 8 6 7 12 20 17 11 7 8 11 17 17 18 14 17 15 17 20 24 27 31 32 36 35 38 40 42 44 45 47 50 46 51 51 56 57 55 57 59 59 61
6 10 8 7 6 10 12 14 15 12 5 7 8 16 17 16 18 17 16 20 21 23 27 30 33 34 37 40 43 45 46 48 49 49 49 51 54 52 54 56 57 59 61 63
9 8 8 7 6 10 7 9 12 11 8 10 9 16 21 23 21 24 24 26 29 26 27 30 33 38 40 42 43 43 45 47 47 49 47 51 52 54 55 57 60 62 64 68
5 5 6 5 10 11 8 12 12 12 11 13 13 14 21 28 35 28 24 28 26 30 36 36 34 35 36 36 38 40 41 40 42 45 46 49 53 55 57 60 64 68 72 77
7 6 8 8 10 12 13 14 14 15 14 12 12 17 29 30 29 32 34 25 31 41 43 42 41 37 34 34 35 38 40 43 44 46 48 49 51 57 62 66 70 74 78 80
7 7 7 7 8 8 10 10 12 14 13 15 13 21 26 28 33 36 37 40 42 41 41 41 43 42 34 32 33 36 38 41 47 50 53 57 62 67 72 76 79 82 84 85
8 6 4 3 2 0 2 3 4 6 10 9 12 22 23 25 29 33 36 42 39 37 36 45 45 44 42 37 35 38 40 41 44 49 55 60 66 71 76 78 82 83 83 83
6 6 4 2 2 4 5 6 8 9 10 11 19 23 26 26 31 36 38 39 42 41 39 33 34 34 34 35 37 39 43 47 53 59 64 70 76 81 83 84 85 83 81 81
3 2 3 4 5 6 8 11 13 12 12 8 16 25 30 34 35 39 44 41 43 37 34 33 35 35 37 40 42 45 50 57 63 68 73 77 80 84 86 84 81 81 81 81
6 6 5 5 4 6 11 15 18 20 18 17 11 21 28 31 34 37 36 33 32 35 36 33 34 37 40 43 47 52 59 64 69 73 77 81 85 86 85 81 81 82 81 81
7 5 4 2 3 7 11 15 18 23 24 24 21 15 27 28 31 25 30 29 34 32 32 34 38 42 45 49 53 58 64 69 73 76 80 83 86 86 84 81 81 83 83 78
5 3 1 2 1 6 13 18 21 23 26 28 25 23 27 27 30 28 30 35 34 33 34 38 41 44 47 52 57 63 68 73 77 81 84 88 88 87 88 88 93 91 88 79
4 5 6 6 8 12 17 21 26 28 30 28 24 27 28 35 33 29 27 30 34 38 39 42 45 48 54 59 65 69 73 77 82 86 88 89 89 91 93 93 89 82 64 74
8 9 10 10 13 17 20 22 25 27 32 35 30 30 32 33 30 29 31 36 39 41 44 46 51 56 62 65 69 73 77 81 85 87 90 92 90 91 89 84 80 50 66 72
12 13 14 14 16 19 22 26 29 29 32 34 33 32 36 30 29 31 36 39 41 43 47 51 56 61 64 69 73 77 82 85 88 89 91 91 91 89 84 73 53 55 68 66
17 17 18 18 21 23 26 29 32 35 35 37 37 37 36 34 34 37 38 38 40 44 50 56 60 64 68 73 78 83 87 89 89 91 90 92 90 84 74 67 49 59 66 54
21 22 22 24 25 28 31 33 35 37 37 37 38 38 39 37 40 41 40 43 48 52 57 61 64 69 74 79 82 85 86 88 89 90 91 90 85 73 65 57 51 52 51 52
24 26 27 28 30 32 35 37 37 40 40 39 40 41 42 43 44 44 46 50 54 58 61 65 69 72 76 79 82 85 88 88 89 90 91 84 71 65 59 45 38 43 36 28
28 30 31 34 36 38 41 43 43 44 40 42 39 41 41 41 43 45 48 52 56 58 62 67 71 75 79 82 85 88 87 88 90 92 84 72 64 56 45 34 26 23 25 29
33 35 36 38 39 41 42 47 45 44 45 46 44 45 45 45 46 48 52 56 58 62 67 71 75 78 82 84 85 87 89 90 91 84 71 63 54 41 29 25 27 25 25 32
37 39 39 41 43 45 46 48 47 44 48 49 48 49 51 51 50 51 54 57 62 67 71 74 77 80 82 83 86 88 90 91 83 73 63 51 41 29 26 30 30 25 28 34
41 41 42 43 45 47 50 51 51 50 50 49 50 52 55 53 53 55 59 64 68 71 73 76 79 79 80 84 86 88 89 83 72 63 52 43 32 28 29 31 29 26 30 34
43 44 45 48 49 50 56 55 52 52 51 51 52 55 55 54 56 59 64 69 71 73 76 77 77 79 82 84 85 88 84 73 61 54 44 37 30 28 32 31 28 27 31 34
40 45 45 50 49 52 54 52 53 51 50 53 55 56 55 57 60 64 68 70 72 74 74 75 76 79 82 82 84 84 76 64 52 47 38 33 29 29 31 30 27 27 30 33
40 46 48 47 48 51 50 51 50 49 53 56 56 55 57 59 63 66 69 71 72 72 72 74 77 79 80 81 81 79 68 55 47 39 33 31 28 28 29 27 26 28 31 33

GFSCGP_500_spd_015.txt.gz
Wind_Speed
16 20 22 27 24 20 20 20 15 13 9 5 4 4 3 5 6 5 9 10 12 11 16 19 18 20 21 20 21 23 32 40 44 47 49 42 44 38 44 54 48 46 49 49
23 27 26 24 21 18 17 22 10 7 4 7 7 10 11 10 9 9 10 11 14 15 20 23 23 24 23 20 26 36 41 47 49 50 47 44 41 51 51 49 49 49 50 52
28 28 29 23 21 16 14 11 9 7 8 10 11 14 15 15 14 13 12 12 15 20 21 23 21 20 27 32 34 38 43 46 48 49 49 51 52 50 49 50 50 50 54 59
22 22 23 16 15 13 12 14 14 14 17 18 19 20 18 17 19 19 18 18 20 22 25 24 28 31 33 37 40 44 46 47 50 52 51 50 50 50 50 52 54 57 61 65
12 15 21 19 15 12 11 12 13 16 21 25 26 24 23 24 23 23 21 22 24 23 24 28 32 37 39 42 44 45 48 51 49 46 45 45 46 48 50 53 56 61 65 69
17 15 16 15 14 12 11 12 15 17 19 24 26 27 27 26 25 24 24 25 27 31 29 34 36 39 42 41 42 48 48 44 42 42 44 43 44 48 52 57 62 68 71 75
18 17 16 14 13 13 14 16 17 19 21 24 25 27 28 27 27 28 30 30 31 33 33 33 39 36 42 48 47 40 41 41 39 39 42 45 48 53 59 65 70 74 79 84
15 14 13 11 9 10 10 9 10 10 11 12 14 19 23 24 27 30 31 32 32 30 29 35 43 48 49 44 38 38 34 36 40 43 46 50 55 61 68 71 75 79 84 88
14 12 10 9 10 9 8 6 5 4 4 5 7 10 14 17 20 21 22 24 27 29 34 41 38 37 33 39 34 34 37 41 44 46 51 56 63 67 71 75 80 85 88 91
13 12 12 12 12 10 8 6 3 3 4 7 10 11 13 14 15 16 18 21 24 25 28 31 35 37 38 40 40 43 45 48 50 54 58 63 67 71 76 80 84 87 90 94
16 15 14 14 11 10 9 6 2 3 6 7 10 12 14 14 16 17 19 21 24 27 30 34 36 38 41 43 46 49 50 52 55 59 63 67 71 76 80 85 88 92 96 98
15 16 16 12 10 9 6 3 3 7 10 11 13 13 16 17 19 21 22 22 23 27 32 36 40 41 43 46 49 50 53 56 60 64 66 70 76 79 84 88 90 94 96 97
17 16 15 13 12 10 9 8 8 9 9 11 16 17 19 21 24 26 27 28 29 30 33 37 40 42 44 47 49 53 57 60 62 65 69 74 78 81 85 90 93 95 98 98
18 16 15 14 12 13 13 13 13 14 14 15 19 21 23 25 27 29 30 31 32 32 34 37 40 42 45 47 51 56 59 61 64 68 72 76 81 86 90 92 95 98 98 100
18 17 16 14 16 16 17 17 18 18 19 20 22 22 26 27 29 31 33 34 35 35 37 39 41 44 47 50 54 57 59 62 67 71 76 80 86 89 90 92 95 94 98 94
20 19 19 19 20 20 20 21 24 23 25 25 27 27 28 30 32 35 38 40 40 41 43 44 45 47 49 52 55 58 62 66 69 75 80 85 88 89 91 94 94 96 91 72
25 24 24 24 24 26 24 26 29 29 28 31 32 32 32 33 37 40 41 42 43 44 46 48 48 49 51 54 57 61 65 69 74 80 83 86 86 88 90 92 93 88 68 53
27 28 29 29 30 32 28 30 33 33 32 34 36 36 36 38 41 43 44 45 46 47 48 50 50 51 52 55 60 64 68 73 79 84 85 85 87 88 90 91 87 72 55 44
29 31 33 35 34 37 33 31 36 38 37 36 39 39 39 41 45 47 50 50 51 50 50 53 53 52 54 58 63 68 73 79 83 84 83 86 88 89 88 86 74 58 48 40
32 34 36 38 40 42 37 36 40 42 40 41 42 42 43 44 47 48 49 51 51 51 54 56 53 54 58 63 68 73 78 81 82 81 84 87 90 88 86 77 62 49 42 37
33 37 39 41 44 45 40 42 43 44 44 42 43 45 44 44 48 50 51 51 52 54 57 55 55 58 62 68 73 76 81 83 81 83 86 90 88 85 77 66 53 43 38 34
36 39 39 42 44 47 43 45 47 45 44 45 46 47 45 48 52 53 52 52 53 56 57 56 59 63 69 72 76 80 83 81 82 86 89 86 83 77 68 58 45 38 35 33
39 40 41 42 41 42 44 46 46 46 47 48 48 46 48 53 53 53 53 53 55 59 59 61 64 69 73 77 80 83 80 80 84 88 85 81 76 67 60 51 39 36 34 33
40 42 42 41 38 40 45 45 45 47 48 48 48 49 52 53 55 55 55 55 58 60 61 65 69 72 76 79 81 80 79 85 86 83 79 74 67 60 53 43 36 35 33 32
42 40 39 43 40 44 43 43 44 46 47 48 50 52 53 55 56 56 55 57 59 62 65 68 71 75 78 81 78 79 85 86 83 78 74 67 60 53 46 38 35 33 31 30
37 37 39 40 41 44 43 43 44 46 48 50 52 53 55 55 57 56 57 59 63 67 70 73 75 77 79 76 78 86 86 83 79 73 66 60 53 46 39 35 32 30 28 28

GFSCGP_500_spd_018.txt.gz
Wind_Speed
22 20 14 13 12 12 19 17 17 15 16 16 14 12 12 14 14 11 9 8 8 9 13 15 18 21 20 21 17 18 20 30 38 39 43 49 52 49 48 53 56 53 51 51
19 19 18 14 17 17 24 20 18 16 15 13 8 9 8 7 6 8 9 8 10 11 14 19 21 21 22 17 21 31 38 42 46 49 52 55 52 53 53 52 51 50 48 48
18 19 22 26 23 21 21 25 19 12 12 9 7 9 8 8 9 10 11 12 14 16 20 21 21 22 24 30 36 41 44 44 48 48 52 52 50 48 48 48 48 48 48 51
23 22 27 28 25 22 21 20 24 17 14 14 15 16 14 15 15 16 18 18 19 22 24 24 24 25 28 33 40 42 41 45 45 51 51 49 49 48 48 48 48 51 54 58
20 22 24 24 21 19 17 18 16 15 16 18 19 19 16 17 19 21 22 23 24 25 26 27 29 30 35 38 42 45 44 46 49 50 49 48 46 45 47 50 53 55 59 64
19 15 19 24 18 16 14 14 14 15 17 20 18 20 19 21 22 23 24 26 26 26 25 27 32 34 35 40 43 47 51 41 45 48 46 43 45 47 50 52 56 61 66 69
17 16 16 19 17 16 16 17 16 17 19 21 22 23 20 19 19 21 23 25 26 27 26 27 31 28 36 43 47 48 44 40 44 44 43 46 49 52 54 57 62 65 69 74
16 15 16 17 17 17 17 16 17 16 16 14 15 13 12 12 14 15 17 18 20 21 23 25 28 32 36 40 41 40 40 45 43 47 50 51 52 54 58 61 62 67 72 76
17 17 15 15 16 15 12 11 9 8 8 7 5 4 3 2 4 7 10 13 15 17 20 24 28 31 35 37 40 42 43 43 45 47 47 49 54 58 60 62 66 71 76 80
16 16 13 13 13 12 11 8 6 4 3 2 3 5 7 7 8 10 13 15 18 20 23 25 27 30 32 36 38 40 44 47 51 51 53 56 59 60 62 66 71 77 81 87
16 15 14 14 12 12 11 9 7 5 4 6 7 8 9 11 13 14 16 19 21 24 26 28 31 33 34 36 39 41 38 54 54 55 57 59 60 64 68 72 77 84 89 92
14 17 17 15 15 13 12 10 8 7 8 9 10 10 14 16 17 19 22 25 27 30 33 36 37 39 40 42 45 47 50 53 55 57 59 61 65 69 72 77 82 88 90 93
16 17 18 17 16 13 13 12 11 11 12 14 15 15 18 18 19 21 23 27 30 34 38 40 42 43 44 45 47 50 53 55 56 58 61 63 68 72 77 82 88 90 91 95
17 17 18 17 16 16 15 15 16 17 18 19 21 21 23 23 23 24 26 30 34 36 38 41 43 44 46 47 50 54 55 55 56 59 62 67 72 76 82 86 88 90 93 96
19 19 19 19 18 19 19 20 21 23 23 24 26 26 30 29 29 30 31 34 37 39 41 43 44 46 47 50 54 56 55 55 58 61 65 71 75 80 84 87 89 92 95 98
20 21 22 22 22 22 23 22 24 26 28 30 33 31 34 34 35 35 36 37 40 42 43 45 46 48 50 52 55 55 55 57 60 64 69 76 80 84 88 89 89 95 96 91
23 25 26 27 27 29 28 23 30 31 32 35 36 36 38 37 37 38 39 40 42 43 46 47 50 52 53 53 56 55 55 59 63 69 74 78 83 87 88 89 94 94 90 83
23 26 30 31 32 37 29 30 34 38 38 38 38 41 42 42 42 42 43 44 44 47 48 50 53 53 52 55 57 56 59 63 69 73 78 82 85 86 87 94 92 89 82 71
25 29 32 35 35 38 37 35 37 42 43 41 43 46 47 46 45 43 47 45 48 50 50 53 53 52 53 57 57 58 62 68 72 76 81 84 85 86 93 91 88 82 70 61
26 30 34 36 41 43 42 39 42 46 48 43 47 47 49 49 48 47 49 49 52 53 52 52 52 51 56 58 58 61 66 70 74 80 82 83 85 92 91 88 83 71 61 53
30 34 36 39 42 45 43 44 44 47 47 50 49 50 50 50 50 50 51 51 54 54 53 53 53 54 57 58 61 65 69 74 77 82 82 85 90 92 89 82 71 62 54 46
32 35 37 40 43 45 42 44 45 47 48 50 49 50 50 51 51 52 52 53 56 57 55 54 55 57 58 62 66 69 73 76 82 82 83 90 91 90 82 71 62 54 48 40
38 38 41 42 41 42 44 46 47 47 48 48 48 50 51 52 52 52 53 56 58 58 56 57 58 60 63 67 71 73 76 81 81 81 88 90 91 82 72 62 56 48 42 38
41 42 42 41 39 41 45 47 46 47 47 48 49 50 50 51 52 54 56 56 56 58 60 59 60 62 67 71 74 77 78 81 81 86 88 89 81 72 64 56 48 42 38 36
41 38 37 40 37 42 43 43 44 45 46 47 48 48 50 52 54 55 56 58 60 60 60 61 62 65 68 70 75 79 79 80 84 87 87 79 71 65 58 50 43 38 35 32
33 33 37 39 39 42 40 41 41 43 44 46 48 49 52 54 53 54 57 60 59 60 60 63 66 70 73 75 80 78 78 83 86 85 77 70 66 60 53 45 39 35 33 32

GFSCGP_500_spd_021.txt.gz
Wind_Speed
15 10 15 12 13 10 15 13 11 11 13 14 11 10 8 11 13 12 12 12 12 13 13 13 16 17 20 20 21 19 21 27 41 45 49 45 46 45 49 53 51 47 45 45
19 18 18 18 13 15 12 18 16 14 11 12 10 12 10 8 10 9 9 11 13 14 15 17 18 20 21 21 19 22 32 36 39 41 45 49 50 51 51 49 46 44 44 44
19 16 10 10 14 16 17 22 16 13 11 11 12 10 7 5 6 6 8 10 12 15 17 19 21 22 24 26 26 31 36 41 43 44 46 48 50 49 47 49 47 47 48 51
14 17 17 18 18 16 18 25 21 16 17 15 15 13 9 7 7 9 12 14 16 18 18 18 21 22 23 25 31 37 39 39 42 47 51 52 49 48 49 48 49 51 53 54
16 19 18 17 20 19 19 16 19 22 26 22 17 15 8 9 10 13 15 16 17 16 17 21 23 25 27 32 35 37 40 40 50 50 47 45 48 48 47 49 51 53 55 57
25 16 19 20 24 18 17 19 18 20 20 18 13 16 10 12 16 16 17 16 15 15 18 22 24 27 30 32 35 37 39 41 42 44 45 45 48 48 50 53 54 55 57 59
17 17 15 18 21 19 18 18 17 17 17 16 14 16 11 11 13 14 13 13 14 16 18 20 22 24 26 27 30 33 35 38 40 43 46 50 51 51 52 53 56 57 58 62
17 19 18 15 18 21 20 19 19 19 17 15 12 6 6 9 9 8 6 6 8 9 12 15 18 21 24 26 29 32 36 39 42 46 48 47 50 54 56 56 57 59 63 67
17 17 15 14 16 18 19 19 17 14 9 6 3 4 3 2 0 2 4 6 9 11 13 16 20 23 26 29 32 34 37 39 42 48 50 53 57 60 58 58 60 63 67 72
16 16 16 15 17 17 16 13 11 9 7 4 4 2 3 5 6 7 8 10 13 14 16 19 23 26 29 31 34 38 41 42 44 47 51 55 56 57 58 59 62 66 72 77
17 18 18 17 15 14 13 12 10 8 7 6 6 6 7 9 10 11 14 16 17 19 21 25 28 30 32 33 36 41 44 47 48 50 54 57 58 58 59 61 66 71 77 82
18 17 17 18 17 15 13 13 12 10 9 10 10 9 11 14 15 16 18 20 21 23 26 29 31 34 37 39 43 46 49 50 51 52 56 57 57 58 60 65 70 77 81 87
15 14 17 17 16 15 14 15 14 14 13 12 14 17 19 21 21 22 24 26 27 29 32 34 36 38 40 42 45 49 50 50 51 54 58 58 58 59 64 70 75 80 84 86
15 14 16 17 18 19 17 18 18 19 19 19 18 21 25 27 28 29 30 32 33 35 37 39 39 40 43 45 48 50 50 50 52 57 58 58 59 63 69 73 78 82 84 87
16 15 17 20 21 21 21 21 21 22 23 25 24 26 32 33 34 35 36 37 38 40 41 43 42 44 46 48 51 51 51 52 55 58 58 59 62 67 71 76 80 83 86 92
17 17 20 22 23 24 24 24 22 24 27 30 32 30 36 38 40 40 40 41 42 44 45 46 46 47 50 53 53 52 52 54 56 59 58 60 65 69 74 78 82 86 90 94
17 18 22 24 25 28 29 22 27 30 32 35 37 37 41 42 44 44 44 45 46 47 47 49 50 50 53 54 53 53 55 56 58 58 59 63 68 73 77 80 85 89 93 94
18 21 24 26 29 32 28 28 32 36 39 41 42 43 45 48 48 46 47 47 48 48 50 52 52 53 54 55 55 57 57 58 59 59 63 67 72 76 80 84 87 91 93 83
19 22 25 27 29 32 33 34 35 40 42 43 46 48 50 51 51 49 51 49 49 51 53 54 55 55 56 56 58 58 58 60 60 64 68 72 75 78 83 87 90 92 82 76
21 24 26 28 31 33 33 34 37 41 43 42 46 48 49 51 52 50 50 51 51 53 55 55 55 56 57 58 57 58 59 61 65 69 71 75 79 82 86 90 94 84 76 70
22 24 27 29 33 36 36 37 39 42 46 47 48 48 49 49 49 49 51 52 53 53 53 55 56 57 58 57 58 59 60 64 67 72 76 79 82 88 88 90 88 77 72 65
26 30 30 33 36 39 40 41 44 45 46 47 47 46 47 47 48 50 51 51 51 51 53 55 57 58 58 59 59 60 63 67 70 75 78 82 87 87 87 89 78 72 66 58
33 35 37 38 37 39 43 44 45 45 45 45 46 46 47 48 49 50 50 51 51 52 55 56 56 55 56 58 59 63 66 70 73 74 78 82 86 86 87 82 73 68 60 50
38 40 39 39 35 39 43 44 43 44 44 44 45 46 47 47 48 50 51 52 55 58 59 56 58 59 60 61 63 68 72 75 74 76 79 83 83 85 86 73 70 61 52 43
40 36 35 36 36 39 39 39 40 42 43 43 44 44 45 48 51 52 54 55 57 56 59 61 60 57 64 65 70 74 74 74 76 77 77 80 84 87 75 69 62 54 44 38
29 34 38 39 36 39 39 39 41 42 42 42 44 47 49 51 53 53 53 55 57 57 59 61 63 63 65 71 73 73 73 76 75 78 80 82 84 75 68 65 55 47 39 35

GFSCGP_500_spd_024.txt.gz
Wind_Speed
12 22 19 15 14 10 11 11 11 7 10 12 13 13 10 11 8 8 10 11 11 12 13 14 14 14 17 20 22 22 23 24 28 37 41 41 41 45 47 44 43 41 40 41
11 21 22 14 11 11 12 16 12 8 8 9 11 12 9 8 11 13 12 13 13 15 15 14 15 17 20 21 23 24 25 28 34 41 44 45 46 52 50 49 46 45 45 46
16 11 13 18 15 12 12 18 15 9 6 5 11 10 11 11 9 9 12 13 12 14 16 17 18 19 22 23 23 24 25 30 37 40 42 45 49 50 46 47 49 50 50 51
17 17 7 6 10 14 11 15 18 9 10 11 10 9 14 13 12 12 13 13 14 16 17 17 18 20 24 24 25 28 32 32 31 33 37 40 42 44 47 49 51 51 51 55
12 11 13 14 14 15 12 14 20 15 15 15 16 17 21 17 15 15 16 16 16 17 17 17 21 24 25 21 19 18 20 23 27 30 34 38 41 45 48 51 54 52 55 57
15 11 9 17 14 15 16 13 14 16 19 21 22 21 19 16 16 17 17 18 18 16 17 20 20 17 14 14 16 19 22 25 28 32 36 39 42 46 50 51 53 57 62 62
21 20 20 14 16 17 17 14 17 17 18 18 16 20 17 16 18 20 19 16 15 16 15 12 10 12 14 17 20 23 27 30 34 37 41 44 46 49 50 52 56 60 61 60
18 20 17 13 13 18 21 20 20 19 19 19 17 13 11 14 15 12 10 8 7 6 8 10 11 14 18 21 23 26 30 33 36 39 43 46 49 52 52 54 58 60 59 60
17 18 18 18 17 18 18 20 19 20 18 15 10 8 8 5 3 4 5 5 6 8 11 14 16 20 23 25 28 31 34 36 39 42 44 46 49 51 54 56 59 60 60 61
18 18 18 18 18 19 19 18 19 16 13 9 6 6 6 7 8 7 8 9 13 15 17 19 22 25 28 30 33 35 37 40 43 45 47 49 52 54 55 58 61 60 60 63
17 19 19 20 20 19 18 17 15 14 12 10 9 10 11 10 10 12 13 15 18 20 23 26 28 31 33 35 37 39 41 44 46 50 51 54 55 56 57 60 61 60 62 67
20 21 20 20 19 18 17 15 15 15 13 12 11 10 12 12 14 15 17 20 23 26 28 31 34 36 39 41 42 43 45 48 50 51 56 57 58 57 59 61 61 62 66 71
21 21 20 20 18 16 15 16 17 17 16 14 14 14 17 18 20 22 24 27 30 32 34 36 38 41 44 46 47 48 50 51 53 55 58 60 60 60 62 62 61 65 70 75
18 16 16 17 17 18 18 18 18 19 20 20 19 22 24 26 27 27 31 33 36 38 40 42 43 46 48 49 51 51 53 54 55 56 58 60 62 62 64 62 65 70 74 77
16 15 15 16 18 20 20 21 21 22 23 25 24 26 28 35 34 35 37 39 41 43 45 47 49 49 51 52 53 54 55 56 57 58 59 61 62 63 63 65 70 73 78 83
15 15 16 16 17 20 23 23 22 24 26 28 30 29 33 38 41 42 44 45 46 48 49 51 51 52 53 54 55 56 56 56 57 58 59 59 61 62 65 70 73 77 79 85
16 15 16 17 20 22 24 22 25 28 29 33 36 37 40 43 47 48 49 50 51 52 52 51 51 53 54 55 56 55 54 55 57 58 59 60 59 63 68 71 75 77 79 87
14 17 19 19 22 26 22 24 28 32 34 38 41 43 45 48 51 52 53 53 52 51 51 51 52 53 54 55 54 52 53 56 57 57 58 60 62 66 70 74 76 77 82 87
15 17 19 21 22 24 25 26 28 33 34 39 42 45 47 49 50 50 50 51 51 50 50 51 52 54 54 53 52 54 55 56 55 57 60 62 65 69 74 79 77 82 85 85
14 17 19 20 22 23 24 26 29 33 37 38 41 44 46 48 50 50 50 51 50 49 50 52 52 52 51 53 53 55 56 55 57 59 62 65 70 73 77 77 81 83 89 84
14 17 19 21 25 28 30 32 34 38 42 44 45 46 47 47 48 49 50 50 49 49 49 49 50 52 53 54 55 56 57 60 61 63 68 71 73 75 72 77 82 85 87 83
20 23 25 27 31 35 35 39 42 44 45 45 46 46 46 46 46 46 47 47 46 47 48 49 50 53 55 55 54 56 61 62 62 69 76 80 75 73 75 79 83 84 80 80
26 29 31 32 33 39 43 45 46 45 44 43 43 44 44 44 46 46 46 45 47 48 50 53 53 55 54 56 60 64 65 63 64 69 79 78 72 72 77 78 80 82 81 73
31 34 35 37 38 43 45 44 43 42 42 41 42 43 44 44 44 43 46 50 52 53 52 51 51 54 55 56 59 65 67 67 71 79 75 65 68 72 72 77 80 75 69 63
35 38 40 41 40 41 39 40 41 41 43 43 44 44 43 44 46 49 50 51 52 52 52 55 55 56 59 61 63 67 68 73 74 67 63 69 76 73 75 78 74 67 61 56
39 41 42 40 39 39 39 40 42 42 43 42 43 44 45 47 49 49 49 50 50 51 53 56 61 63 63 68 73 76 77 71 62 69 75 77 74 74 74 69 65 62 56 48

GFSCGP_500_spd_027.txt.gz
Wind_Speed
21 23 20 13 13 13 6 7 8 14 8 15 13 12 11 7 8 7 7 8 11 12 11 12 13 14 16 18 21 24 26 28 29 31 34 37 38 35 35 40 41 41 42 43
10 20 18 17 17 17 9 7 11 6 7 11 13 13 12 10 8 8 11 13 13 14 16 15 14 16 19 20 23 27 29 29 28 29 33 34 34 36 38 40 41 42 46 48
14 9 21 16 16 10 7 8 15 7 4 5 10 13 9 9 9 10 12 15 17 17 17 18 19 20 23 26 27 26 27 27 29 27 27 28 30 34 37 40 42 44 46 48
5 11 16 9 10 13 10 10 8 10 7 6 9 8 18 10 14 13 13 15 16 18 20 20 22 24 27 28 26 22 19 19 21 23 26 29 33 36 40 44 47 49 49 51
11 13 4 4 9 10 11 4 8 16 9 10 8 12 30 11 17 21 20 21 21 22 23 24 25 27 26 21 14 14 16 18 22 25 29 32 35 39 43 47 50 52 54 55
6 15 8 9 9 9 9 9 9 13 8 14 11 15 14 19 23 25 25 25 25 26 26 26 27 24 16 12 13 16 19 22 25 29 32 35 38 41 45 49 52 54 57 58
12 11 9 8 10 11 10 9 7 9 12 13 17 19 16 17 26 28 27 30 29 28 26 23 18 14 12 14 18 20 23 27 31 34 37 40 43 46 49 52 54 55 57 59
15 14 14 15 11 9 13 12 13 11 11 10 20 18 16 22 24 23 22 22 19 16 13 13 14 15 17 20 24 27 30 32 36 39 42 45 48 50 53 54 55 58 60 61
11 16 16 16 15 13 16 16 20 21 20 19 16 12 14 12 11 9 9 9 10 11 12 15 17 20 23 28 31 34 36 38 41 44 46 49 51 53 56 57 60 61 63 63
18 17 18 16 17 17 18 18 17 18 20 15 4 9 13 9 9 10 11 12 14 17 19 21 24 27 30 34 36 39 42 44 46 48 50 52 53 55 52 60 61 62 63 63
17 18 18 17 18 17 18 19 19 19 17 14 11 8 14 14 14 14 15 16 18 21 23 27 30 32 36 39 42 43 46 48 50 53 54 56 57 53 56 59 61 63 63 63
20 19 22 18 19 20 20 18 18 18 18 15 16 16 15 17 17 18 19 22 24 27 30 32 35 38 41 44 47 46 49 51 53 55 56 57 58 59 60 60 62 63 63 65
19 20 22 21 20 19 19 18 19 20 19 17 18 15 18 20 21 23 25 27 29 32 36 39 41 43 45 48 51 51 52 53 55 56 57 57 57 58 59 61 62 63 64 66
24 23 22 21 17 21 19 20 20 22 21 19 19 21 25 28 29 31 30 33 36 38 41 45 47 48 50 51 53 54 53 55 56 56 57 57 56 57 60 60 62 63 65 68
24 22 21 20 20 19 20 20 21 21 20 24 19 27 25 32 37 36 38 39 41 45 46 49 51 53 54 54 54 55 55 56 57 57 56 55 57 59 59 59 62 64 67 70
21 21 19 19 18 18 20 19 20 21 22 25 26 30 30 36 38 42 44 46 49 50 51 52 53 53 54 55 53 54 55 56 56 55 54 56 57 59 59 61 63 66 69 73
21 19 19 18 16 18 16 17 20 23 25 29 32 32 36 42 42 45 49 51 51 52 53 53 53 53 54 54 53 54 55 54 54 54 55 55 56 58 62 64 66 70 74 78
19 19 19 17 18 20 17 19 22 25 28 33 36 37 41 45 45 48 50 52 53 53 53 52 51 51 52 53 53 54 51 52 53 55 55 55 57 61 65 70 75 80 82 83
17 17 18 19 19 19 19 20 22 26 28 35 35 38 41 45 47 49 53 50 52 52 51 50 50 50 51 51 50 51 52 53 55 55 56 58 61 66 68 73 80 82 82 75
14 15 16 16 18 18 18 20 22 26 31 34 37 40 43 46 48 48 52 52 51 49 49 48 48 48 48 49 51 53 51 52 53 56 58 61 66 71 73 77 80 81 68 69
11 12 13 16 17 19 22 25 28 31 36 38 41 43 46 47 47 47 47 49 47 47 46 44 44 48 51 52 52 51 52 57 59 60 61 62 68 75 81 83 79 70 68 75
14 15 17 20 22 27 28 32 34 37 39 42 43 45 45 45 46 47 47 47 47 46 45 45 48 50 52 52 51 51 56 63 68 67 64 65 78 76 83 80 69 71 74 73
21 22 24 25 28 33 36 37 39 41 42 43 43 43 45 46 46 48 47 44 44 46 49 50 50 50 51 52 54 58 62 67 66 69 74 72 73 79 74 68 70 68 72 68
26 27 29 30 33 37 39 41 44 44 44 43 44 44 45 46 46 45 46 45 47 50 50 50 51 53 54 54 55 54 66 70 65 76 78 74 71 67 68 71 77 74 67 62
30 32 34 35 37 40 42 45 44 43 44 44 46 47 46 44 45 46 48 48 48 50 51 53 55 56 58 61 63 65 66 66 74 78 68 60 63 72 76 81 71 65 61 59
34 37 38 39 41 41 43 43 41 44 45 45 46 46 47 47 48 48 47 49 51 53 55 56 58 60 61 62 59 67 72 74 72 65 65 71 75 84 79 71 68 63 57 53

GFSCGP_500_spd_030.txt.gz
Wind_Speed
12 20 26 22 16 14 5 4 8 6 4 12 17 12 11 11 9 8 5 3 3 5 5 7 10 12 12 13 18 20 22 25 28 27 24 26 28 23 24 28 33 36 39 41
7 20 22 7 10 14 3 7 10 8 8 14 12 12 7 8 4 7 7 6 7 8 9 11 13 14 15 18 22 24 25 26 27 23 23 22 22 25 29 33 36 39 41 43
11 10 6 11 15 14 5 9 14 5 4 8 13 11 12 6 6 7 8 13 14 14 11 15 15 18 20 23 26 27 26 24 20 18 19 22 25 29 32 36 38 42 44 46
11 12 17 15 17 10 16 14 9 10 9 8 14 17 28 21 7 10 11 15 17 19 18 19 21 21 26 26 28 26 19 16 18 20 22 26 30 34 37 40 41 44 47 50
9 16 14 8 11 9 12 17 6 8 11 15 21 21 16 20 22 10 12 16 22 25 26 26 25 25 29 28 24 16 15 18 21 24 27 32 36 40 42 44 47 49 51 51
7 12 7 12 16 6 4 4 3 10 12 20 6 15 19 19 15 17 10 15 22 27 29 31 32 28 26 20 15 15 19 21 25 29 33 37 41 44 46 49 51 52 54 56
10 12 9 4 3 8 10 5 4 13 14 11 4 16 19 18 13 27 20 19 26 29 29 30 29 19 17 16 17 21 24 28 31 35 38 42 45 47 50 51 54 55 56 56
18 11 8 11 9 11 11 14 16 16 6 4 12 4 13 16 23 26 26 21 21 21 20 17 14 15 15 18 23 27 31 34 37 41 43 47 49 51 53 55 57 57 59 52
19 21 19 13 15 20 11 15 14 13 14 11 10 11 21 12 15 19 15 11 11 12 12 14 18 20 22 25 29 33 37 40 41 46 48 51 53 54 56 57 58 58 51 60
25 21 13 12 12 13 14 15 12 17 16 14 4 3 15 16 14 13 13 14 14 15 17 20 22 24 27 31 34 38 42 46 45 48 51 53 55 56 56 57 58 49 60 60
14 11 10 11 14 14 15 17 14 16 16 15 9 8 13 19 16 17 19 18 19 21 23 25 29 32 34 38 41 43 46 50 48 50 53 55 56 57 57 57 57 57 58 59
20 21 24 12 19 13 17 15 15 18 16 19 14 19 17 17 19 20 20 23 24 27 29 32 33 37 40 43 47 47 48 52 52 52 55 55 57 58 58 58 55 56 59 63
22 17 17 15 14 13 16 17 18 20 18 15 16 14 21 20 22 25 24 26 30 32 36 39 41 42 45 47 51 52 51 52 53 53 54 56 58 58 58 56 55 58 60 63
20 18 19 18 11 17 18 20 19 20 18 15 18 17 21 24 30 32 29 29 34 38 40 43 48 52 53 52 53 54 53 51 52 53 55 56 55 55 56 57 55 59 61 62
25 23 22 22 18 24 24 19 19 20 17 21 17 20 21 23 33 37 42 39 40 38 46 50 49 54 55 56 54 54 54 53 51 54 55 55 54 54 54 60 58 59 62 65
23 24 25 21 21 23 21 18 19 19 20 21 20 24 25 32 37 38 41 42 46 48 47 51 51 49 53 56 57 57 53 53 52 54 53 52 54 54 58 58 58 62 67 67
23 22 22 21 22 20 17 15 19 19 21 23 26 27 31 35 40 42 39 43 47 46 48 49 52 52 53 55 53 53 52 51 50 51 53 54 55 55 57 61 63 67 70 75
22 23 22 21 20 20 16 16 18 20 21 26 30 33 33 36 39 41 45 47 48 51 55 53 52 52 51 50 49 50 50 51 54 55 56 55 54 56 62 65 68 74 73 75
21 21 21 22 22 19 17 19 17 21 24 28 29 31 33 36 39 45 48 49 51 52 51 51 49 48 48 48 48 48 52 55 56 56 55 56 57 62 66 72 75 80 91 91
18 19 21 19 20 19 20 18 19 21 25 26 27 32 35 39 42 45 48 49 49 47 48 46 44 46 46 46 49 52 54 54 55 56 59 62 67 71 71 75 88 96 83 74
16 17 18 17 17 15 18 15 20 23 27 30 33 36 39 42 45 47 47 47 47 50 51 48 46 45 48 50 51 51 51 54 55 57 59 60 65 64 74 79 91 81 70 67
14 13 13 15 16 19 20 24 25 28 31 34 37 40 42 43 43 44 45 49 49 45 52 49 48 48 49 50 52 54 56 57 58 54 65 67 64 67 72 82 81 70 66 73
17 16 17 19 21 24 27 27 31 32 34 38 41 43 45 45 45 47 49 50 49 47 49 48 48 47 50 54 56 57 59 59 62 63 64 71 77 74 75 71 73 72 74 79
21 21 22 23 25 30 32 33 36 36 40 43 44 45 45 44 46 48 49 49 48 49 49 47 48 52 55 57 59 61 63 65 66 64 69 73 77 83 77 76 77 82 77 72
27 26 28 29 31 34 38 40 40 42 44 46 45 47 45 46 46 48 49 49 48 47 49 52 55 57 60 62 65 66 66 66 66 65 66 69 74 72 75 80 78 70 68 65
33 33 35 36 37 37 42 43 45 47 47 46 46 46 46 48 48 48 48 47 48 50 53 56 59 62 65 66 67 68 65 65 63 61 65 67 71 75 75 71 66 67 66 60

GFSCGP_500_spd_033.txt.gz
Wind_Speed
6 10 10 13 18 23 16 9 11 16 2 4 8 5 4 9 7 2 4 2 3 3 3 2 5 3 4 10 14 15 18 18 18 19 16 13 13 15 17 21 24 28 30 34
8 14 17 15 10 14 9 12 8 11 5 7 9 6 7 4 12 5 1 1 4 3 6 8 9 8 9 12 18 22 22 20 20 17 12 15 17 21 25 27 31 35 38 41
6 7 9 12 20 14 10 8 19 10 6 9 10 10 17 12 8 7 5 5 3 2 6 13 14 17 19 21 20 21 19 21 14 15 18 19 22 26 30 33 37 41 44 46
10 14 8 18 23 14 8 8 11 15 9 9 17 19 20 17 12 10 10 11 10 7 5 12 18 20 24 26 24 21 17 13 16 18 22 24 28 32 35 38 42 46 48 50
6 12 17 13 22 16 3 6 3 10 7 9 15 18 23 29 20 13 12 12 17 13 14 16 15 21 25 26 24 18 12 14 19 22 27 29 33 37 41 44 46 48 50 51
2 12 11 15 16 15 6 5 7 14 17 19 7 14 16 19 6 14 9 10 17 20 21 18 18 20 23 21 15 14 14 19 25 29 32 36 39 43 46 49 51 53 55 56
10 6 3 3 7 5 5 10 14 15 18 15 13 21 7 10 13 9 15 10 15 19 20 20 17 15 14 13 15 17 20 24 29 33 37 41 45 48 51 53 55 57 58 57
11 8 9 11 10 6 12 13 15 17 15 18 18 7 11 9 14 10 9 11 10 9 11 12 8 7 12 15 18 22 25 28 32 37 42 46 49 51 52 54 55 56 56 57
19 21 22 14 18 15 15 19 18 17 12 9 5 8 20 13 15 10 9 7 8 7 9 10 11 13 17 21 25 29 32 34 37 39 43 48 51 52 54 55 56 55 55 56
21 23 20 23 15 14 14 12 14 17 13 9 8 14 13 13 12 13 9 11 12 12 13 16 20 20 22 26 31 35 38 40 42 43 45 48 52 53 54 55 55 55 55 55
19 20 18 22 12 14 15 18 19 18 17 13 10 14 11 10 12 18 19 16 16 18 20 21 24 27 29 32 35 39 44 47 46 45 46 48 53 53 53 54 55 55 55 50
19 23 18 9 11 11 15 15 17 18 15 18 12 13 17 14 19 20 22 23 21 22 24 28 31 33 34 36 39 43 48 49 48 46 46 48 52 53 53 54 55 55 51 54
20 21 16 14 15 15 17 18 19 19 17 14 14 12 16 21 25 28 26 25 27 29 33 35 36 38 39 42 43 42 44 49 51 49 49 51 54 54 54 55 54 54 57 57
20 20 18 19 19 21 19 18 19 22 22 13 13 13 17 19 26 31 29 28 28 30 35 40 42 44 45 44 46 47 44 47 48 49 49 53 54 53 54 55 55 57 58 55
22 23 22 22 21 26 21 22 19 18 20 18 12 16 15 23 28 31 33 35 37 40 41 45 48 48 41 47 49 46 47 47 50 49 52 56 52 53 56 56 57 57 58 61
27 27 28 26 25 26 25 21 20 17 15 17 15 17 19 27 31 32 34 36 37 43 47 46 48 49 47 46 45 42 48 48 47 49 52 52 54 56 57 56 58 61 66 67
25 26 27 25 25 24 23 15 21 17 18 19 20 24 27 28 31 33 36 38 39 41 43 45 47 49 51 52 50 45 43 42 46 48 52 56 56 57 56 57 60 64 69 72
23 26 26 23 24 24 19 19 17 18 20 22 25 26 26 28 30 34 38 40 41 44 47 50 49 47 46 46 45 41 41 44 47 52 55 55 56 57 59 62 66 66 71 73
23 23 24 24 24 21 20 19 16 20 23 24 24 25 27 30 33 36 39 41 44 47 49 49 47 45 46 47 45 44 45 49 51 54 54 56 58 61 63 66 66 71 79 82
22 21 24 22 22 22 22 21 19 23 26 22 22 24 27 31 34 37 40 44 46 47 46 43 43 43 44 45 46 47 48 49 50 53 56 59 61 65 64 71 69 71 79 83
20 18 19 20 21 20 20 19 22 22 22 20 24 27 30 34 37 41 44 45 45 44 43 45 45 47 48 48 48 48 48 52 56 59 61 63 65 67 69 72 73 75 80 80
16 17 17 17 17 18 17 17 19 21 22 25 28 32 35 38 40 41 44 45 44 44 43 44 48 50 49 49 48 50 53 56 58 61 65 69 71 71 71 69 69 74 76 72
16 15 15 17 17 18 20 21 21 23 25 29 33 35 39 41 43 44 43 44 45 45 47 47 48 48 47 48 50 53 56 60 63 66 68 68 68 68 68 67 69 71 72 68
19 18 19 20 22 22 24 24 26 28 31 35 38 41 43 44 44 44 45 47 49 50 50 50 49 48 50 52 54 58 62 64 66 64 63 65 67 67 68 68 71 67 61 58
24 23 23 24 26 27 30 32 34 37 39 40 44 45 46 45 45 46 47 49 50 51 51 50 50 52 54 57 61 65 65 61 61 64 65 66 69 71 70 66 61 60 60 63
30 29 29 31 31 32 35 37 40 42 45 48 48 48 48 47 47 48 50 51 53 52 52 52 52 55 60 64 65 62 59 61 62 65 68 69 69 66 64 61 61 62 63 64

GFSCGP_500_spd_036.txt.gz
Wind_Speed
7 5 12 17 14 18 23 14 13 15 9 5 2 6 3 12 6 0 3 1 4 2 2 6 3 2 6 12 13 14 14 11 10 10 9 5 4 7 11 15 20 23 26 29
7 10 11 13 18 16 21 15 15 11 5 3 3 3 6 7 5 5 4 4 2 1 3 3 2 4 5 9 15 15 13 11 11 6 6 9 10 15 19 22 26 28 31 33
1 6 8 11 11 18 17 19 19 14 7 4 7 11 8 5 3 0 2 4 5 4 7 1 2 3 6 10 12 13 13 11 6 6 9 13 16 21 24 27 32 35 39 41
3 3 9 13 17 19 17 19 17 12 10 12 14 12 9 10 9 5 7 6 8 7 6 5 6 7 9 11 12 12 9 8 7 10 15 20 23 28 31 34 38 41 43 45
2 6 8 18 21 16 13 21 18 14 13 13 15 16 14 15 17 16 17 10 5 7 5 5 3 8 12 13 12 8 6 9 13 17 22 26 30 34 37 40 43 46 48 48
2 3 15 20 19 10 7 12 13 14 14 15 15 18 15 14 4 4 5 11 10 10 9 8 3 8 10 9 12 9 10 13 18 22 27 30 34 38 41 44 47 48 50 52
7 6 13 17 22 17 12 13 13 18 18 19 18 19 13 9 4 3 3 12 9 8 6 6 3 2 4 8 11 13 14 18 23 28 30 34 38 42 46 48 49 51 52 53
13 14 15 13 19 18 17 18 18 20 18 14 15 20 14 8 6 3 4 6 2 4 3 2 1 4 8 12 15 17 19 24 29 32 36 40 44 49 51 51 53 54 54 54
21 19 18 13 15 18 17 15 15 20 19 14 14 19 22 12 8 9 6 3 3 4 6 5 7 9 13 16 20 24 27 30 33 36 41 45 48 50 51 53 53 54 54 54
23 20 17 18 19 18 14 16 19 17 16 14 14 19 18 17 13 9 9 6 8 9 9 10 11 14 18 22 27 31 34 36 39 42 45 46 47 51 52 52 52 52 53 55
25 22 18 20 25 20 20 20 19 17 17 18 16 18 17 15 15 14 14 12 12 12 12 13 15 19 22 27 32 35 39 41 43 42 41 42 47 48 50 53 52 54 55 56
18 18 19 8 7 14 19 16 18 20 19 21 20 16 17 23 23 23 21 17 14 14 16 19 22 24 27 29 33 38 41 39 41 44 41 42 46 48 52 55 51 54 53 55
16 19 18 20 21 17 18 18 21 23 23 21 21 14 17 21 26 29 26 22 17 17 21 24 29 31 30 31 32 33 33 39 40 42 43 47 50 54 54 53 54 55 57 58
17 18 17 16 17 23 23 21 21 24 23 21 17 18 19 22 28 29 26 23 21 21 25 28 29 29 32 36 39 40 41 42 39 41 43 47 51 51 53 55 55 59 59 59
24 23 21 19 22 23 25 22 25 26 22 24 18 24 18 25 28 27 25 25 26 27 29 31 32 36 40 43 45 48 45 44 42 38 41 43 49 52 54 56 58 60 61 62
20 22 24 24 24 26 30 29 23 24 22 20 19 22 23 29 27 24 25 27 29 32 35 36 39 43 46 47 43 47 44 46 41 46 48 48 50 54 56 59 59 61 63 65
26 28 29 31 30 32 35 27 26 25 27 24 23 23 23 25 26 26 27 29 32 36 39 41 43 44 45 47 47 47 44 45 43 44 45 49 51 54 56 58 61 63 66 68
27 28 28 30 30 35 27 27 27 25 24 24 23 23 21 22 24 27 30 33 35 37 39 42 43 44 45 45 46 47 46 40 40 44 48 52 54 54 56 60 64 68 70 72
27 27 26 27 28 29 26 25 24 23 23 23 22 21 22 25 27 30 32 33 36 39 41 43 44 45 46 47 47 46 45 44 46 49 50 51 54 56 59 56 60 74 71 76
25 27 28 25 25 26 22 23 24 23 26 21 21 23 25 27 28 31 34 37 40 42 44 45 45 45 47 46 46 48 47 47 48 48 50 53 56 53 64 66 70 69 71 73
25 25 25 24 25 24 19 22 25 26 21 21 23 25 26 29 32 34 36 39 42 44 45 45 45 47 47 49 49 49 49 48 49 50 55 59 62 64 65 64 66 69 71 74
25 24 22 21 20 18 19 21 22 21 20 19 23 26 29 31 33 36 40 43 44 45 45 46 47 48 50 51 53 52 51 51 52 55 59 62 64 62 62 65 67 70 72 73
23 20 20 19 16 17 17 16 17 18 20 23 26 29 32 34 37 40 43 45 46 46 47 48 48 50 52 54 52 51 51 52 56 60 63 63 60 62 64 68 70 71 72 72
24 21 20 20 17 18 18 18 20 22 25 28 31 34 37 39 42 44 46 46 47 47 48 50 51 54 55 53 53 52 54 58 62 63 60 59 62 66 69 71 72 72 72 68
29 27 24 23 20 22 23 24 27 29 31 34 37 40 42 43 45 47 48 48 48 49 50 53 55 54 53 53 53 55 59 62 61 58 60 63 67 70 71 72 73 73 71 68
33 31 28 28 28 28 30 32 33 36 39 42 44 46 47 48 49 51 51 51 51 52 54 56 56 55 53 54 57 60 62 61 58 61 65 68 70 72 73 74 73 72 70 68

GFSCGP_500_spd_039.txt.gz
Wind_Speed
7 8 7 7 12 18 18 17 20 21 19 14 19 12 6 7 7 7 6 9 9 8 7 4 4 4 5 5 3 1 2 3 4 2 2 3 3 5 6 10 14 19 23 25
5 6 7 10 16 20 22 13 14 19 15 17 11 13 10 11 9 7 7 11 11 11 9 6 3 3 0 2 2 1 3 4 4 4 2 3 4 8 12 15 20 24 27 30
2 8 8 9 12 16 16 16 18 14 13 10 10 11 10 11 10 9 9 9 10 11 11 9 6 3 3 5 5 4 3 3 5 4 6 6 10 15 18 21 25 29 32 35
4 5 8 8 10 13 12 20 21 20 13 11 9 9 9 9 9 12 6 4 5 5 8 8 7 6 5 7 8 6 7 4 5 6 9 13 17 21 24 27 31 34 37 42
6 8 9 9 18 18 21 19 20 19 13 12 13 11 9 10 9 16 11 10 6 7 7 7 6 7 7 12 11 7 7 6 7 11 15 20 23 28 31 33 37 40 44 47
8 11 11 12 19 19 17 18 24 19 16 15 12 14 9 4 4 4 5 5 5 8 11 13 12 14 13 13 10 6 8 8 11 15 20 25 28 34 35 39 43 45 46 46
14 9 14 16 24 22 18 16 18 17 21 16 17 18 10 11 9 8 9 13 11 5 5 11 11 12 11 10 9 9 9 13 16 20 25 30 34 37 39 47 46 48 49 49
17 11 16 19 21 22 26 24 20 19 20 19 18 14 15 12 10 13 12 11 6 4 3 5 6 8 10 12 11 10 13 18 22 27 31 34 39 43 43 43 47 48 51 47
21 19 21 21 17 23 20 18 18 19 20 20 17 18 12 14 14 16 14 10 7 5 5 5 7 9 10 15 12 16 20 24 28 32 36 41 44 42 39 42 45 51 50 49
26 23 24 23 16 19 20 19 20 24 21 18 19 20 15 16 17 16 15 12 11 8 8 9 10 11 14 17 20 23 26 29 33 38 41 41 35 44 39 45 49 51 50 50
29 28 24 24 19 20 25 24 26 24 25 22 20 19 15 16 19 18 21 17 16 12 12 13 15 16 17 20 25 28 31 35 39 40 39 41 40 45 48 47 53 54 54 52
27 28 26 19 23 19 24 28 28 25 23 25 22 18 16 18 20 22 21 19 18 17 18 18 19 19 22 26 30 32 34 36 38 41 42 44 43 41 45 54 57 54 50 52
22 25 27 23 22 18 14 14 18 24 24 21 23 16 18 22 25 28 26 25 22 22 22 23 22 24 28 32 34 33 33 34 39 37 36 38 41 45 48 53 51 50 55 56
23 21 25 23 20 21 23 19 24 26 29 23 23 20 24 24 28 31 29 21 18 19 20 21 25 29 30 32 33 34 35 39 33 35 38 43 40 47 53 54 53 56 56 59
24 23 20 17 18 22 24 26 29 28 25 26 23 24 23 31 31 30 29 23 21 21 22 26 26 26 29 32 33 33 33 36 39 40 37 47 45 47 53 53 55 56 60 60
22 24 23 22 21 23 27 28 29 25 26 29 28 28 28 30 31 27 25 25 25 24 27 29 30 31 34 36 39 42 44 44 44 44 48 51 46 51 53 54 57 60 60 62
25 25 24 25 26 28 31 29 30 31 31 32 34 30 28 27 29 27 26 25 27 29 30 31 33 35 38 41 44 47 46 46 47 47 50 50 48 52 57 59 57 56 59 62
28 28 28 30 31 35 28 30 32 34 33 32 35 28 25 25 25 26 26 27 29 30 32 33 36 39 42 45 47 46 46 48 48 50 51 50 53 54 55 56 56 59 63 64
30 31 32 33 32 31 29 28 29 29 31 28 27 26 25 24 24 26 27 29 30 31 33 36 39 42 45 47 47 46 47 47 49 52 53 53 52 52 53 50 55 65 70 68
30 32 33 33 33 32 24 28 25 28 30 25 23 22 23 25 28 28 29 29 31 33 36 39 42 45 46 46 46 46 47 49 52 53 53 51 50 49 51 58 65 66 63 66
32 32 34 33 33 30 24 25 28 29 20 21 23 25 27 27 28 27 28 31 34 37 39 43 45 46 46 46 46 47 49 52 54 53 51 51 51 55 59 62 63 62 65 67
33 32 32 31 30 28 22 25 24 20 20 20 23 25 26 27 27 29 32 34 37 40 43 45 46 46 47 47 48 50 52 54 53 52 51 53 56 60 62 60 60 63 67 71
33 32 32 29 26 24 20 20 19 18 19 20 22 24 26 27 29 32 34 37 40 42 44 47 48 49 49 49 51 53 55 56 54 53 55 58 61 62 59 60 63 68 72 76
34 33 31 28 23 20 18 17 18 19 21 23 24 26 28 31 33 36 38 41 43 46 47 49 49 50 51 52 54 56 57 57 57 57 60 62 63 61 61 64 69 73 76 77
34 35 31 29 25 22 22 22 22 22 24 26 29 31 33 36 38 40 42 44 47 49 50 51 50 51 53 55 58 59 59 58 59 61 63 64 62 62 64 69 74 77 78 79
38 35 34 30 30 30 28 28 27 28 31 33 35 37 39 42 44 46 48 49 50 51 52 52 53 54 57 58 59 59 58 60 63 65 66 65 64 66 70 74 76 78 79 80

GFSCGP_500_spd_042.txt.gz
Wind_Speed
11 10 4 8 9 12 12 16 17 20 22 19 15 13 8 12 6 5 4 7 9 10 9 7 7 7 8 8 6 5 3 4 6 6 5 6 7 8 8 9 11 15 17 21
11 9 7 8 11 12 11 11 15 15 21 14 16 12 10 12 10 7 6 7 8 7 8 10 9 9 9 7 5 5 6 5 7 7 8 8 8 8 11 14 17 20 23 25
11 6 6 5 9 13 13 15 12 16 14 14 16 16 9 9 8 6 5 4 4 6 8 9 10 9 9 7 6 7 8 10 11 11 12 11 11 13 15 18 22 26 28 30
7 6 7 6 6 10 10 16 16 15 13 15 20 15 14 9 9 11 10 7 5 7 8 9 11 11 11 8 6 7 10 12 13 15 15 13 13 17 20 22 27 30 34 32
11 8 12 9 10 14 18 22 20 16 14 12 12 11 12 12 8 12 18 13 13 14 14 14 14 12 11 13 11 11 12 13 14 17 16 14 17 21 23 26 31 38 34 38
14 11 13 11 12 15 17 15 17 20 17 14 12 7 4 5 6 10 14 18 16 20 19 18 18 17 17 18 16 13 12 13 13 11 13 17 21 24 27 30 33 37 38 47
17 17 12 15 14 16 17 17 17 20 21 19 18 14 4 10 11 8 11 14 14 13 21 24 27 24 20 19 15 12 15 9 13 15 19 21 25 28 32 35 36 37 43 48
21 18 14 19 18 21 20 20 17 19 21 21 21 20 12 13 14 15 10 11 11 10 18 21 25 22 20 19 15 14 15 10 16 19 23 26 30 33 35 35 36 39 43 46
21 20 20 20 21 22 22 23 23 24 19 20 20 21 15 15 14 13 13 13 13 14 13 11 8 8 11 12 12 12 11 16 21 24 28 32 34 37 32 32 38 41 44 48
21 23 23 23 24 21 21 22 21 21 23 23 23 23 19 16 15 18 19 18 17 16 12 10 10 12 12 13 15 16 18 21 25 29 34 36 35 37 35 39 39 45 46 49
22 26 27 28 26 20 22 23 24 24 25 27 25 21 17 13 16 17 19 20 18 19 18 14 15 15 15 18 20 23 24 27 29 33 36 38 38 39 36 37 40 44 53 57
18 27 28 25 24 25 26 27 27 27 27 28 29 20 20 19 18 18 19 17 19 21 21 20 19 20 22 24 27 29 29 31 34 37 38 38 39 35 36 40 48 54 57 62
17 23 27 26 28 28 28 29 29 32 31 27 23 10 17 17 19 22 23 22 23 24 23 23 24 26 28 29 31 34 35 37 37 38 36 38 37 39 47 48 53 55 57 60
23 22 24 24 24 24 29 24 20 23 26 19 17 18 19 21 23 27 27 25 26 23 26 26 26 28 30 32 35 33 32 33 36 37 38 39 40 45 44 50 56 60 59 62
26 23 21 20 25 28 31 32 30 28 25 25 19 22 20 24 27 29 32 26 23 23 23 24 26 29 33 33 33 32 33 34 34 37 37 40 42 47 49 51 55 57 59 60
29 22 21 22 23 24 26 25 27 29 29 25 27 25 23 25 28 28 28 26 24 24 26 27 29 31 33 32 30 33 36 38 41 42 42 43 46 48 51 54 55 55 56 63
26 24 25 25 25 26 26 22 26 29 28 30 30 26 28 29 27 28 29 28 26 27 28 30 30 32 32 31 33 36 39 42 44 46 46 47 48 50 53 55 57 55 56 55
30 28 29 28 27 29 21 22 27 31 31 34 34 32 30 31 26 27 27 25 28 29 31 31 31 30 31 34 36 40 43 45 47 47 48 48 50 53 55 56 56 55 52 59
31 29 31 31 27 29 25 24 26 30 31 32 33 33 30 28 26 26 25 27 28 29 30 30 30 32 34 37 40 44 46 47 48 48 49 50 53 55 57 57 56 54 54 57
35 33 34 30 29 29 27 27 29 33 30 26 28 27 26 24 25 26 27 28 29 30 30 31 33 35 38 40 43 45 46 47 48 49 51 53 55 56 57 56 55 57 60 64
34 33 34 29 30 30 29 30 31 33 22 26 25 25 25 27 28 28 29 29 28 29 31 33 35 38 40 42 44 45 46 48 50 51 53 54 56 56 55 56 58 61 64 66
34 34 32 30 32 29 28 30 29 27 26 26 25 26 27 28 28 28 26 27 28 30 32 35 38 40 42 44 46 48 50 51 52 53 54 55 55 56 57 59 62 65 66 66
36 34 36 32 29 29 28 26 26 25 23 22 23 24 25 24 24 25 26 29 31 34 36 39 41 44 46 48 49 51 52 52 53 55 56 57 58 58 60 63 66 68 67 67
32 36 37 32 29 27 26 24 23 22 20 20 19 20 21 23 25 28 30 33 36 38 41 43 46 48 50 51 53 53 54 55 56 57 59 60 60 61 64 68 69 68 67 69
31 33 34 36 31 27 25 25 26 23 22 22 22 23 25 27 29 32 35 37 40 43 46 48 50 52 53 54 55 56 56 58 59 61 61 61 63 66 69 69 67 68 70 75
34 31 33 33 27 33 29 28 28 28 27 28 29 30 31 33 35 38 41 44 46 49 51 52 53 55 55 56 57 58 59 60 61 60 61 64 68 70 70 68 68 72 75 78

GFSCGP_500_spd_045.txt.gz
Wind_Speed
14 13 10 3 6 5 8 12 11 13 13 10 5 8 11 10 10 6 6 6 9 10 10 10 10 11 11 11 11 11 10 9 9 8 8 11 13 13 13 12 12 13 13 16
13 12 7 3 4 6 7 14 10 12 15 15 14 11 12 12 12 10 7 7 7 7 8 9 11 13 14 12 9 9 9 8 9 8 9 9 10 11 13 14 13 14 18 20
12 9 8 4 5 5 6 10 9 11 10 11 14 17 12 9 8 5 5 5 5 5 8 10 11 13 13 11 10 9 10 10 10 11 12 13 14 14 14 14 17 20 22 25
11 9 8 6 4 4 8 13 15 13 11 11 14 12 13 13 11 8 6 7 7 6 7 7 10 12 11 10 9 9 9 11 12 14 15 17 15 14 16 20 22 26 27 30
13 10 10 8 7 7 12 16 13 12 13 11 11 13 14 14 14 13 12 8 10 10 12 12 13 15 15 15 13 12 13 15 16 17 17 17 16 18 22 23 25 26 31 36
14 15 11 13 9 12 15 16 14 14 14 11 8 6 6 11 13 14 17 18 15 13 18 19 20 20 20 19 20 17 16 19 16 15 20 14 20 22 24 25 27 31 33 38
15 16 14 14 12 10 12 14 16 15 16 14 11 8 4 9 10 14 16 16 22 25 27 22 24 24 26 22 23 22 19 20 18 13 14 18 22 24 25 29 31 33 35 37
17 17 17 19 16 16 16 16 18 15 12 10 14 14 11 15 15 13 15 14 15 18 21 26 27 29 31 29 24 20 19 20 23 18 17 22 25 27 29 30 30 32 34 36
15 17 21 20 20 21 20 20 18 18 15 16 17 15 12 17 16 13 14 15 12 9 16 23 24 23 24 24 18 17 16 13 13 20 23 25 27 29 30 30 32 32 32 38
18 20 22 23 24 25 25 23 21 21 24 24 22 21 12 17 20 15 15 17 17 15 15 14 14 15 15 16 16 15 17 18 21 23 27 28 29 32 32 33 35 31 34 40
19 20 24 25 27 27 27 25 24 24 23 24 23 21 16 16 16 15 16 18 17 17 15 18 18 17 17 17 19 20 21 24 26 30 31 33 35 35 33 33 35 33 38 47
19 19 24 26 27 25 27 28 27 27 25 25 26 22 19 16 16 17 19 20 21 19 20 19 20 21 21 21 22 24 27 29 31 33 36 34 36 37 38 39 39 41 44 47
20 18 20 28 27 28 28 27 27 24 24 27 31 21 18 13 16 19 21 21 21 21 21 22 24 26 27 27 29 30 31 31 32 33 33 35 36 38 40 38 37 41 47 51
24 21 20 20 21 24 27 27 28 30 30 29 26 15 16 20 17 20 22 22 21 23 23 27 30 32 33 32 32 32 33 32 33 34 34 35 37 35 38 39 42 47 50 52
26 21 21 19 20 27 29 33 33 31 30 31 25 25 19 19 22 24 23 21 21 23 25 25 27 29 30 30 32 32 33 33 32 33 34 35 35 37 39 42 45 48 50 53
28 24 24 21 24 25 28 31 30 30 29 29 29 23 22 23 24 25 23 23 22 21 25 28 29 29 28 30 31 32 32 32 33 34 36 39 40 42 44 46 48 50 52 55
31 28 25 23 23 25 25 19 18 22 22 23 24 23 27 26 27 29 27 25 24 24 25 27 29 29 29 30 32 32 33 33 34 36 39 41 43 45 47 49 51 53 54 56
30 27 25 26 26 29 14 17 19 18 21 26 25 26 30 31 29 28 30 28 26 25 26 27 28 29 29 31 31 32 33 35 37 39 42 44 46 48 49 51 53 54 56 57
29 27 31 31 30 28 22 16 19 21 18 24 26 29 30 29 31 30 30 28 28 27 25 26 27 27 28 29 31 32 35 37 40 42 44 46 48 50 52 53 55 57 57 59
31 29 33 36 35 31 16 19 20 21 17 20 28 30 31 30 28 26 28 29 26 24 25 26 27 27 29 30 32 35 37 40 42 45 47 48 50 52 53 55 57 57 59 59
33 32 33 32 35 30 21 21 21 22 23 24 27 29 30 27 27 28 27 25 24 25 26 26 27 28 30 33 35 38 41 43 46 47 50 52 53 54 56 57 58 59 59 60
36 34 33 32 33 32 21 23 24 24 23 24 25 25 26 25 25 25 24 24 25 25 25 27 29 31 34 37 40 43 45 47 49 51 52 53 54 56 57 58 59 58 59 62
41 35 33 33 29 27 25 23 23 22 24 23 22 22 21 21 21 21 21 22 23 25 27 30 32 35 38 41 45 47 49 50 51 53 55 56 57 58 59 58 58 61 65 67
40 39 37 34 33 29 28 27 25 25 23 22 21 20 19 18 19 20 21 24 26 29 31 34 38 41 45 47 49 51 52 53 55 57 59 59 59 60 60 60 62 66 70 71
44 42 38 36 29 27 30 30 33 27 25 23 23 23 23 24 24 25 27 29 32 34 37 41 44 48 50 51 53 54 54 57 59 61 61 61 61 60 60 62 66 70 73 74
44 43 41 36 25 28 27 32 34 30 27 26 27 27 28 29 31 32 34 36 39 41 44 47 50 52 53 53 55 57 58 60 61 61 61 61 60 60 63 67 72 76 77 77

GFSCGP_500_spd_048.txt.gz
Wind_Speed
18 15 13 10 4 6 5 11 13 15 13 9 4 8 8 10 7 7 5 5 5 6 8 8 7 8 8 8 9 8 8 8 8 8 7 10 10 11 12 13 14 13 12 12
17 13 11 9 4 5 5 7 9 13 17 12 11 10 12 13 8 7 7 6 6 6 7 9 10 11 11 10 8 7 6 5 5 5 7 7 9 10 12 13 12 12 12 17
14 12 10 7 5 7 8 9 14 13 12 12 14 11 13 12 9 7 9 8 8 7 7 7 8 10 10 9 8 8 7 7 7 8 9 8 9 10 10 11 13 16 19 23
14 11 9 5 4 7 9 10 11 10 6 7 14 8 18 14 12 10 9 9 11 8 8 8 9 10 10 10 9 9 9 9 10 11 14 12 14 14 15 15 17 21 25 27
14 12 10 5 10 7 9 11 12 10 9 11 12 13 10 16 15 13 12 10 11 12 12 11 12 14 13 13 13 12 11 12 13 14 16 17 19 19 17 18 22 25 27 29
15 12 12 10 13 11 10 14 12 9 10 10 10 8 8 12 15 15 18 16 16 16 14 16 19 19 15 18 18 19 17 16 18 19 18 18 19 20 20 20 24 28 30 33
14 13 16 15 12 15 12 11 12 13 13 9 10 8 9 8 10 17 21 20 22 24 21 19 22 24 22 22 23 22 18 21 24 23 19 19 20 20 19 23 26 30 33 32
17 17 16 17 15 18 16 16 13 11 11 10 11 10 9 13 16 14 19 21 20 24 24 20 23 27 29 26 23 24 23 25 26 24 24 24 23 21 23 26 29 30 32 34
19 18 16 20 20 21 23 21 18 18 17 16 15 12 12 14 13 13 13 19 20 20 14 16 23 27 28 29 28 26 26 24 20 19 22 18 23 27 29 29 31 34 35 36
20 21 20 21 23 23 25 23 21 21 18 18 18 19 11 17 17 15 16 16 20 20 16 17 19 18 20 19 17 16 19 20 19 21 23 24 27 30 31 34 35 34 34 32
23 23 23 22 23 24 25 28 26 23 23 21 21 15 13 14 19 20 16 18 20 21 20 17 19 19 19 18 19 18 21 23 24 25 28 31 33 34 36 34 36 37 36 38
23 25 24 21 24 25 27 29 30 28 26 25 25 22 18 19 23 22 19 20 18 21 22 21 21 21 21 21 20 21 23 25 26 30 33 34 35 36 36 38 38 38 37 38
26 27 25 25 25 26 26 27 28 30 30 25 25 23 21 25 23 20 22 23 21 21 21 22 23 25 26 26 27 28 28 29 32 35 35 36 38 39 39 39 39 35 39 44
30 29 25 23 19 21 25 26 28 29 34 28 27 26 23 24 22 20 23 25 23 22 22 22 24 28 31 32 33 33 33 34 34 36 37 38 38 37 39 39 38 40 42 43
35 33 27 22 21 25 27 29 29 32 33 33 28 26 20 22 24 22 25 24 22 24 25 24 25 29 32 33 34 33 34 35 35 36 37 37 37 37 37 37 39 40 43 45
37 33 29 26 23 25 28 30 32 32 31 28 28 25 25 25 28 27 27 26 24 24 25 25 25 29 31 31 30 30 32 33 34 34 34 35 36 37 38 40 43 45 47 49
38 35 30 26 24 26 30 28 28 24 23 22 20 16 20 22 24 26 27 29 30 30 28 27 26 27 29 30 30 31 31 32 33 33 34 35 37 39 41 43 45 48 50 53
38 35 31 29 27 31 21 20 21 22 21 22 21 19 22 23 25 27 28 30 32 33 31 29 27 28 29 30 31 31 31 32 32 33 35 37 39 41 43 46 49 51 53 54
38 37 34 33 28 27 24 22 21 21 17 21 21 22 23 24 27 28 29 30 32 31 29 28 27 27 27 27 29 31 31 31 32 35 37 39 42 45 47 50 52 54 55 57
38 35 36 34 33 30 19 21 22 23 13 20 21 20 22 23 26 26 27 28 29 27 26 25 24 24 26 28 28 29 30 32 34 37 40 43 46 49 51 53 55 56 58 59
41 37 36 32 33 26 17 22 22 28 16 24 22 22 22 23 24 24 23 24 24 25 24 23 24 26 26 27 28 29 32 35 38 41 45 48 50 52 53 56 58 59 59 60
44 40 36 34 34 28 13 20 27 22 26 25 24 22 22 22 21 20 20 21 21 23 24 25 25 25 26 28 30 32 36 40 44 47 50 52 53 54 56 58 59 60 61 61
50 42 39 36 34 27 21 20 23 27 26 28 25 23 21 21 20 19 19 20 21 22 22 24 26 28 30 32 35 39 43 46 50 52 53 54 55 58 60 61 62 62 62 61
46 40 39 39 34 27 24 23 25 28 30 31 27 25 22 21 21 20 20 21 22 24 25 28 30 32 36 39 42 46 48 50 51 53 54 57 60 62 63 63 63 64 62 62
48 47 41 40 35 28 26 23 26 30 35 32 29 27 26 24 23 24 24 25 27 29 31 34 37 40 43 47 49 50 51 52 53 55 58 60 61 62 62 63 66 65 64 66
42 46 47 41 31 31 27 27 32 33 35 35 34 32 31 30 30 29 29 30 33 35 38 40 43 47 50 51 53 53 51 53 55 58 60 61 61 62 64 66 65 65 69 72

GFSCGP_500_spd_054.txt.gz
Wind_Speed
21 18 12 14 11 9 13 24 14 14 26 25 22 13 25 17 4 14 7 2 5 5 4 5 6 9 10 11 12 12 11 11 9 9 10 11 10 7 6 6 7 7 8 8
24 17 14 12 7 8 10 11 18 10 16 25 20 12 19 18 13 13 6 4 4 3 2 2 3 5 8 12 11 11 11 11 9 8 7 6 2 4 6 8 9 11 10 10
24 18 15 11 10 8 6 6 23 21 21 14 11 13 13 21 12 16 13 8 6 6 4 3 3 3 4 4 6 7 9 9 8 7 7 7 6 3 4 5 8 9 9 10
25 19 16 13 11 11 7 4 12 17 25 11 11 12 15 14 19 22 13 13 9 9 6 5 5 5 6 6 7 8 8 9 8 8 8 7 5 4 5 6 7 9 11 11
21 21 19 15 13 14 11 10 9 11 23 19 16 17 14 18 20 20 13 12 14 13 9 4 5 5 8 10 10 11 13 13 12 11 10 9 9 8 8 12 13 14 14 15
27 23 23 17 17 16 16 11 10 11 11 11 15 20 15 16 11 17 19 17 16 16 12 9 7 5 7 10 12 13 12 14 14 14 16 15 17 13 10 11 15 17 16 18
32 31 26 21 20 19 20 15 13 14 9 4 10 15 8 21 21 11 7 20 17 13 17 13 12 13 16 12 13 12 11 12 14 15 17 21 18 15 14 13 14 21 19 18
34 31 26 20 21 19 21 20 17 11 17 9 15 14 15 20 21 10 12 17 20 15 17 17 17 14 11 13 13 12 12 15 15 17 18 21 14 17 23 4 5 12 13 20
34 32 24 29 23 25 23 24 15 14 18 20 15 8 22 19 20 14 16 17 17 21 23 21 19 20 19 16 15 13 14 15 19 16 16 14 16 19 5 14 16 19 22 26
36 27 28 24 27 26 27 18 20 25 25 22 18 12 14 23 18 22 18 20 21 19 20 23 26 24 23 24 19 17 15 17 18 15 14 15 18 16 16 20 22 24 28 31
38 28 26 32 39 26 29 29 29 27 27 25 19 17 27 12 16 25 24 26 23 21 17 22 23 27 27 27 28 23 19 21 24 22 26 25 24 23 24 25 26 29 30 33
42 35 34 35 31 29 28 28 30 29 26 26 23 28 16 28 12 23 27 24 22 23 17 19 22 23 28 27 31 26 22 25 28 30 32 26 28 29 30 31 32 34 36 36
41 47 34 40 34 38 29 28 28 29 28 32 25 24 22 27 31 29 30 27 27 21 22 17 21 22 26 29 31 30 25 28 30 32 31 28 28 33 33 36 37 38 38 39
35 48 51 46 33 23 29 31 30 23 27 27 33 34 31 26 24 23 22 29 29 25 19 21 21 23 25 27 29 32 32 34 36 35 35 36 36 36 39 41 39 39 40 41
44 46 46 43 39 26 28 24 30 32 35 35 28 31 32 19 26 26 21 23 23 25 22 24 26 25 26 27 28 31 34 37 39 38 36 40 40 41 40 38 39 40 42 42
50 48 48 49 44 40 35 33 28 27 23 31 26 22 17 23 23 25 23 37 29 31 32 31 31 29 27 27 29 29 30 33 36 37 39 38 37 37 38 38 40 41 41 41
50 48 47 51 45 40 46 39 29 31 27 29 25 25 25 27 30 28 38 39 41 33 31 28 33 36 31 30 31 29 30 32 32 31 33 34 36 36 37 38 38 38 39 41
50 50 50 49 42 51 45 44 41 45 36 32 32 30 26 27 28 29 33 25 24 27 24 29 33 37 38 35 35 35 35 33 33 33 34 33 34 35 36 36 37 39 41 44
51 55 37 54 52 49 46 39 39 39 31 28 28 27 24 19 29 35 27 24 29 28 28 33 34 37 39 39 38 37 35 35 35 34 34 35 37 36 37 38 40 42 46 49
47 47 55 50 52 54 45 38 36 33 35 24 25 24 28 33 38 28 31 26 29 31 31 31 33 34 34 34 34 34 34 35 35 35 36 38 37 37 39 41 44 47 50 52
54 47 49 51 49 46 43 34 35 37 23 16 26 26 29 39 33 33 32 31 31 32 32 31 32 31 31 31 31 31 32 33 34 36 37 37 38 40 42 46 49 52 55 56
49 54 46 44 49 46 37 40 41 29 17 20 30 30 33 36 36 33 32 32 32 33 33 31 30 30 30 30 30 30 31 33 35 36 37 39 42 44 48 51 55 57 57 58
36 52 41 48 46 47 43 40 32 23 27 27 24 27 37 40 36 35 33 33 34 34 33 31 29 30 30 30 30 31 33 34 36 38 41 44 47 50 54 57 57 60 61 59
31 28 41 42 47 41 39 34 34 40 37 27 33 38 35 39 38 38 34 36 36 36 35 33 32 32 32 32 34 33 36 38 40 43 46 50 53 56 58 59 57 62 60 58
45 24 31 39 43 46 45 36 23 39 42 39 35 38 37 37 33 34 35 37 37 37 37 36 36 37 37 38 39 41 43 45 46 48 51 54 57 59 60 58 61 67 64 63
46 42 42 41 33 38 36 35 41 35 38 38 39 41 43 44 39 35 36 38 39 40 39 40 41 42 42 43 45 48 50 50 53 55 57 61 62 62 63 63 64 65 69 71

GFSCGP_500_spd_057.txt.gz
Wind_Speed
19 22 13 16 13 15 9 11 9 9 16 19 24 24 21 18 17 16 9 6 6 7 6 5 4 7 11 13 14 15 17 16 18 16 17 18 16 19 19 19 17 15 11 10
23 18 15 17 16 18 6 8 7 16 17 16 15 23 20 9 16 13 10 10 8 6 4 5 3 4 6 9 12 13 15 14 14 13 12 10 9 11 11 12 11 10 9 9
27 11 23 17 18 16 7 7 13 26 26 20 22 19 21 13 14 12 6 7 7 7 6 4 3 2 4 6 8 11 13 13 12 12 11 9 8 8 7 7 7 8 8 11
32 19 24 21 18 14 10 10 14 28 29 22 21 11 17 20 22 9 10 6 5 5 7 3 3 4 6 7 8 8 8 7 6 6 7 8 7 5 4 6 7 10 12 13
23 23 22 22 15 16 12 19 17 15 17 18 21 20 12 21 20 17 10 10 7 4 7 3 1 4 5 6 7 7 6 7 5 5 5 5 5 5 3 5 8 11 11 13
31 27 27 22 20 20 17 19 16 17 14 11 11 25 15 13 13 18 14 12 12 8 3 6 3 3 2 7 7 5 6 6 5 5 5 6 8 8 8 9 12 15 15 15
29 28 29 29 24 24 22 24 21 20 16 6 13 15 10 13 13 14 26 18 15 7 4 6 9 7 9 7 6 7 7 9 8 9 9 9 11 8 9 11 12 13 16 20
34 33 30 26 27 23 27 24 24 20 15 13 12 7 12 10 8 8 10 12 15 10 11 6 6 9 10 10 8 11 13 13 13 11 11 12 13 10 11 13 13 15 15 13
33 34 26 29 25 28 24 25 19 22 24 20 18 13 18 14 18 15 13 15 17 13 15 16 13 10 10 12 14 14 17 17 14 15 13 13 13 11 9 9 8 12 13 16
33 34 30 32 29 31 29 26 26 27 28 27 18 15 15 13 20 20 19 17 18 18 18 20 21 15 17 14 16 18 19 18 18 18 16 16 14 17 17 14 15 18 17 20
33 36 33 31 36 35 31 33 31 29 31 31 22 20 20 24 21 26 22 20 18 20 17 19 21 23 16 14 16 15 18 24 23 24 23 27 28 27 28 20 17 21 24 24
32 37 41 38 36 34 32 29 33 37 28 30 30 26 22 25 22 21 20 17 19 21 17 18 21 22 23 17 13 15 21 24 28 26 30 28 39 30 36 14 22 21 27 29
33 41 44 40 43 39 39 35 30 34 37 35 35 21 26 24 19 20 19 28 26 27 26 21 21 20 22 21 19 23 24 25 26 35 18 25 28 26 28 19 27 29 33 35
34 39 44 42 42 38 44 37 32 36 41 35 38 26 22 24 24 17 24 28 30 26 25 24 20 18 19 23 24 27 26 25 23 28 27 28 30 34 33 32 34 38 35 34
37 45 44 40 46 46 39 34 35 39 34 35 26 27 26 32 28 27 30 29 30 32 26 19 12 16 18 23 26 27 30 30 30 29 32 30 32 33 38 39 39 37 36 36
40 47 48 43 41 47 49 39 40 28 28 37 35 32 26 28 26 34 29 32 32 34 30 30 36 30 25 27 28 27 30 32 31 32 32 34 35 34 35 36 36 36 37 37
48 46 51 49 40 51 54 46 38 35 32 31 35 31 21 25 23 25 33 30 29 32 36 26 25 31 23 18 20 27 29 33 34 34 34 33 35 34 34 35 36 37 38 39
48 51 52 50 42 51 47 53 43 38 36 37 36 34 25 29 30 32 35 38 38 36 23 22 23 31 30 27 26 28 31 33 34 36 36 36 35 33 33 35 37 37 38 39
40 43 47 52 53 54 51 46 48 49 44 41 42 37 31 35 32 35 39 43 40 32 26 28 27 31 35 35 33 35 34 32 33 34 34 34 35 36 36 37 38 38 39 41
27 45 51 47 51 51 47 45 44 52 53 48 42 40 40 39 39 36 36 37 34 31 31 30 31 33 32 35 35 34 35 36 34 34 35 36 36 38 38 39 40 41 43 45
37 30 51 47 39 40 50 40 40 50 46 40 36 30 38 38 40 38 39 39 34 33 32 32 33 33 34 34 33 33 33 34 36 36 36 37 39 39 41 41 42 44 46 50
34 20 37 45 46 45 40 33 41 44 36 36 28 32 39 40 41 40 39 38 35 34 35 36 37 35 35 35 34 32 31 32 33 35 37 38 39 41 43 44 46 48 51 55
49 25 26 33 45 49 46 43 44 40 43 38 35 43 44 40 36 37 38 40 38 36 36 37 37 36 37 37 35 34 32 33 35 36 39 39 40 43 46 48 50 53 58 60
46 48 31 30 35 46 40 44 34 39 37 40 45 43 38 39 40 37 47 42 41 40 40 40 39 38 39 38 36 36 36 37 39 40 41 42 44 47 50 53 56 60 65 69
52 49 43 42 25 43 34 41 47 37 42 45 50 52 48 47 47 34 32 34 36 38 41 42 40 39 39 37 37 38 40 42 43 44 45 46 50 52 55 58 62 67 69 69
47 47 46 42 37 18 29 38 45 47 44 40 48 49 47 44 45 43 39 42 42 39 40 41 43 44 42 41 41 42 43 44 47 49 51 53 56 59 60 63 68 67 65 67

GFSCGP_500_spd_060.txt.gz
Wind_Speed
26 17 11 15 16 20 20 16 14 16 12 15 18 13 12 13 7 2 7 9 5 5 7 3 2 4 8 10 12 12 18 16 18 10 7 13 19 24 25 26 28 25 24 30
31 13 16 20 17 17 21 18 20 13 15 22 13 15 17 15 12 3 3 6 8 4 3 2 3 1 4 7 11 12 12 13 11 14 14 16 14 14 14 17 21 24 23 20
33 16 28 23 20 17 19 17 21 13 22 23 23 18 17 19 12 7 6 3 7 2 2 2 3 2 2 5 7 10 11 11 13 12 11 11 12 12 10 8 10 13 14 15
37 24 30 26 21 20 18 21 20 16 21 25 23 22 18 20 15 3 4 1 5 4 3 3 3 1 2 3 4 6 7 7 9 11 12 12 12 9 8 10 12 13 16 20
30 24 28 28 18 25 17 25 22 19 22 20 16 26 16 23 11 7 2 7 4 6 4 2 3 5 3 1 2 0 2 3 4 6 6 6 5 6 5 5 8 12 15 19
36 29 33 24 25 24 26 27 25 22 22 16 11 21 14 24 18 11 3 3 8 8 4 1 0 5 5 5 4 3 2 3 4 2 3 4 3 1 4 5 9 12 13 14
33 31 31 32 27 27 30 29 27 25 24 11 19 20 8 21 17 15 6 3 11 5 4 4 2 6 11 10 7 5 5 7 7 7 7 7 7 5 6 9 11 13 16 17
34 34 31 28 26 27 30 29 29 27 24 18 28 13 11 14 14 13 14 8 7 9 7 7 5 6 9 13 10 8 8 10 11 10 12 12 12 8 9 11 17 17 21 19
33 34 29 31 28 28 30 35 23 29 29 30 28 23 18 15 14 18 17 12 11 11 8 9 7 8 10 10 14 12 10 11 13 13 15 13 13 15 18 20 18 17 20 19
32 34 28 30 32 35 35 30 31 34 32 31 28 25 24 16 16 17 17 17 19 11 10 10 11 11 13 12 14 17 15 15 16 17 16 17 19 19 21 24 23 19 21 18
35 35 30 34 41 39 37 37 38 37 37 31 31 25 27 19 20 17 20 20 22 16 13 15 12 11 13 18 16 17 18 19 19 21 21 24 27 29 28 29 33 28 26 22
41 34 39 35 36 40 40 39 38 39 35 32 32 27 27 26 24 20 22 22 17 19 19 18 19 16 14 16 17 16 18 21 22 25 28 34 29 33 29 44 28 36 28 17
42 43 40 39 41 44 48 43 43 40 36 38 38 28 27 27 27 25 25 25 27 23 17 21 26 27 21 16 17 17 18 20 28 28 35 36 32 25 24 19 23 13 21 24
43 47 48 45 37 41 45 42 40 42 44 37 40 31 31 29 27 29 30 26 28 29 26 16 20 24 25 19 19 18 19 24 27 30 29 23 24 22 25 24 24 24 30 30
37 41 45 44 39 42 45 46 44 46 44 42 37 31 32 37 31 26 29 29 29 30 30 16 13 23 22 20 22 25 27 27 29 29 28 25 24 29 29 27 29 32 34 31
45 42 45 48 42 40 46 48 49 46 45 45 44 40 30 26 30 37 32 30 33 35 37 30 26 27 23 30 35 33 32 31 29 29 29 27 26 28 28 29 30 33 34 33
45 47 53 49 46 40 46 47 52 49 49 44 44 41 31 33 37 35 33 37 33 33 36 33 26 23 34 35 26 23 27 31 31 31 33 33 33 32 32 34 35 35 36 35
56 31 52 51 50 50 46 47 45 52 50 47 40 36 34 34 34 36 37 33 35 37 38 34 35 29 22 20 18 18 22 28 31 32 33 36 36 37 36 36 37 37 38 38
64 41 32 45 52 51 53 46 41 48 46 47 41 41 39 33 33 38 37 39 36 37 36 33 28 26 22 22 23 25 25 26 29 32 34 35 36 38 39 39 41 41 40 40
66 68 49 25 35 47 46 49 43 37 48 46 45 42 43 39 45 40 41 34 37 40 42 40 30 29 27 26 26 26 27 28 28 29 29 30 32 36 38 41 41 42 42 43
58 60 58 41 22 41 47 49 52 49 43 45 48 51 49 42 44 39 40 41 44 50 41 39 32 33 32 33 33 33 32 32 31 31 31 32 34 37 39 41 42 42 44 47
47 52 60 60 37 32 53 50 45 47 52 45 46 51 54 52 50 41 40 42 44 50 44 40 40 38 37 37 37 39 36 34 35 36 36 36 36 39 40 42 43 45 47 49
47 47 49 63 22 19 37 48 41 39 41 47 44 46 45 48 48 46 45 43 45 43 43 43 40 41 41 41 41 41 38 37 38 39 40 39 40 41 43 44 46 48 50 53
40 42 46 52 41 17 12 37 33 25 30 34 37 38 39 47 51 46 43 42 43 46 46 43 41 42 44 44 44 42 41 41 41 41 42 42 43 44 45 48 50 53 56 58
35 43 40 53 42 30 20 18 30 47 44 38 36 38 40 45 48 52 48 43 42 45 43 39 42 42 42 44 46 45 45 45 44 44 43 44 46 48 49 52 55 59 62 63
27 37 44 43 38 35 28 23 21 35 41 37 41 36 39 41 44 50 49 47 48 46 42 42 42 42 40 41 43 44 45 47 48 49 49 50 51 52 55 57 60 63 66 68

GFSCGP_500_spd_063.txt.gz
Wind_Speed
32 29 14 15 22 26 20 19 15 19 28 27 21 13 12 4 3 8 4 1 1 4 5 4 1 2 3 4 5 7 5 10 19 23 24 31 34 29 26 28 27 24 21 24
36 27 20 22 25 26 23 20 18 18 27 28 27 13 13 9 5 11 10 10 6 5 5 8 4 2 3 2 2 4 8 10 12 11 7 17 26 29 29 28 28 29 29 28
37 27 30 29 28 26 25 22 22 22 24 28 31 18 19 16 6 12 7 12 7 5 6 7 7 4 4 4 1 4 6 8 7 9 11 14 13 7 12 15 16 15 15 19
42 32 30 33 31 28 22 26 24 28 25 28 26 22 14 16 12 7 10 12 7 7 7 6 8 6 6 5 5 3 5 7 7 8 8 8 7 10 14 14 15 16 17 19
40 31 31 34 23 33 19 30 27 29 29 25 22 23 12 18 15 6 13 14 9 5 6 5 8 9 6 3 4 4 4 5 6 7 10 10 10 10 11 12 12 13 15 19
44 35 39 35 30 34 28 33 30 31 31 24 17 22 9 15 15 15 14 11 11 11 7 6 6 6 5 2 2 5 5 5 5 7 7 8 8 9 11 13 14 14 15 16
39 36 38 38 37 35 34 31 32 34 32 22 18 23 9 14 18 15 15 14 14 17 8 8 7 7 9 9 7 5 5 4 4 5 6 6 8 7 7 9 11 13 16 19
35 34 36 38 34 32 33 34 36 33 34 27 26 23 11 20 16 14 17 15 20 19 13 8 8 7 5 7 7 10 8 6 4 5 9 10 9 10 7 8 12 14 16 21
37 35 34 34 34 34 33 39 32 37 39 35 32 30 16 19 20 15 15 14 16 18 14 9 11 10 10 10 9 11 12 12 8 9 9 10 12 13 15 16 16 14 19 23
39 38 34 34 37 40 40 37 38 40 42 38 34 31 21 23 24 24 21 18 16 15 14 13 13 14 13 12 14 15 15 16 16 15 14 15 18 20 22 22 23 24 23 27
43 44 38 36 42 41 41 41 41 39 43 40 34 32 21 24 28 26 25 20 17 13 19 19 16 14 14 15 14 16 16 17 19 21 22 23 23 26 29 29 29 28 29 31
49 49 48 40 38 39 42 44 42 45 44 42 38 32 25 21 26 28 27 29 25 15 14 20 19 13 15 19 18 16 18 20 22 24 27 30 34 40 36 35 33 36 37 35
51 52 51 45 42 47 50 48 49 47 44 43 41 34 28 24 28 29 29 28 30 23 18 19 19 18 15 17 19 21 20 20 25 27 29 35 38 41 33 28 30 20 17 25
51 50 49 51 47 47 50 47 47 46 45 44 41 37 30 31 28 28 27 29 33 34 24 26 23 23 18 19 18 21 23 23 25 25 25 28 31 32 22 18 17 19 21 21
47 49 51 50 49 48 46 47 45 47 44 48 42 41 31 32 32 30 28 31 30 30 38 29 28 26 20 18 19 24 24 24 27 32 30 29 29 28 24 24 25 21 23 25
43 46 46 49 50 50 45 47 48 47 47 45 45 41 36 33 33 34 35 33 34 30 31 35 30 28 26 25 25 26 28 32 35 35 31 28 27 28 27 26 27 27 28 29
54 52 48 48 44 46 48 46 49 52 50 47 47 45 38 36 39 37 34 31 37 38 36 40 41 34 24 24 24 29 30 28 26 26 26 27 27 29 29 29 31 31 34 34
57 62 50 51 35 37 46 47 43 48 47 50 50 48 42 39 38 41 42 37 37 36 37 39 38 30 31 31 29 36 30 25 25 27 28 28 28 29 31 33 33 36 37 37
32 61 50 59 62 40 46 49 44 43 43 40 48 48 44 46 45 40 43 41 40 36 32 34 35 34 37 32 34 34 29 25 27 28 30 30 29 30 31 32 33 35 36 37
33 38 41 49 58 57 38 29 42 48 51 42 43 44 50 48 50 40 40 42 39 38 35 32 35 35 38 37 31 35 28 27 28 31 32 34 35 35 35 34 34 37 39 39
36 37 41 46 52 64 43 30 30 45 43 44 46 48 43 49 47 45 42 43 44 39 38 41 38 40 41 38 33 35 33 34 34 35 35 37 39 40 39 38 40 41 42 44
41 43 42 46 44 63 59 47 28 37 46 41 41 41 39 42 46 50 46 43 40 41 40 44 43 44 42 38 39 38 39 40 40 40 39 40 41 41 41 41 42 43 45 46
49 45 46 46 42 41 51 47 34 38 48 41 38 42 48 49 47 48 48 47 47 44 46 45 46 46 42 42 44 45 41 42 43 43 43 44 44 44 43 43 44 45 47 49
49 49 48 46 39 39 41 57 46 21 40 44 35 41 43 48 48 44 43 45 47 48 51 52 48 46 48 46 45 45 43 44 44 45 46 47 47 47 48 49 50 51 52 53
46 44 44 46 35 31 33 43 51 38 20 24 42 36 37 35 40 37 42 43 45 48 50 50 52 49 43 44 44 41 41 40 40 40 43 46 48 50 52 53 55 56 58 60
41 38 39 41 38 32 31 34 41 40 16 14 26 27 32 36 33 36 40 45 48 49 47 48 51 47 44 43 43 41 40 43 44 48 49 50 51 52 54 56 58 59 59 60

GFSCGP_500_spd_066.txt.gz
Wind_Speed
36 37 26 21 21 26 29 28 22 25 26 25 21 22 18 18 19 18 15 12 7 7 6 6 8 10 12 10 10 10 11 3 17 23 29 27 30 26 26 25 24 26 23 29
43 36 26 27 26 26 28 28 23 23 24 30 24 23 20 18 18 14 19 15 10 10 8 8 11 13 13 10 8 8 6 7 5 7 16 21 28 32 30 33 26 29 29 32
44 34 34 33 29 30 29 23 25 24 30 33 26 21 18 13 16 12 17 15 11 11 9 9 10 13 14 10 7 5 2 1 2 2 5 8 17 30 33 33 29 28 34 31
47 39 36 35 34 32 30 22 27 28 31 34 33 18 18 19 12 11 16 13 14 13 11 11 13 12 13 10 8 8 3 1 1 1 2 6 7 8 11 18 26 31 32 28
45 37 37 37 29 35 24 29 32 30 33 32 28 27 15 15 10 12 20 17 15 14 12 9 12 10 11 9 7 8 5 3 4 3 3 1 4 5 7 7 9 12 13 13
49 41 41 38 32 38 32 34 36 33 33 32 24 29 15 11 10 12 19 16 17 15 12 9 7 8 6 6 3 6 7 4 3 6 5 5 3 2 3 8 10 9 10 11
41 38 40 41 39 41 38 34 38 37 36 28 27 30 20 13 15 9 18 16 17 17 17 12 10 8 7 8 8 7 8 4 3 2 3 4 6 6 6 8 9 11 13 14
39 35 36 38 38 39 38 37 38 41 35 31 35 31 22 18 19 11 19 22 20 15 16 15 13 10 8 8 10 11 9 9 7 6 6 5 7 8 10 11 13 14 16 19
34 35 35 37 38 39 40 42 35 39 40 38 34 33 25 23 22 14 15 18 19 17 20 17 16 12 11 11 13 13 11 9 9 12 11 10 10 11 14 16 18 19 19 21
41 40 38 37 40 40 42 40 40 43 45 42 39 33 27 22 22 24 17 16 19 18 20 22 18 17 15 14 15 14 14 13 15 15 16 16 17 17 18 18 20 21 22 24
39 39 36 40 40 38 38 41 42 41 43 42 40 35 26 21 24 29 26 21 21 20 23 23 22 22 19 16 14 15 18 18 20 22 22 23 24 25 25 26 27 29 32 31
44 43 41 38 40 40 42 41 41 44 45 45 44 39 28 20 20 24 27 24 22 18 22 23 30 26 22 16 14 15 20 21 22 24 26 27 28 28 33 38 41 42 40 36
47 48 47 44 41 43 44 44 44 45 48 46 46 43 26 27 26 25 26 27 26 26 25 22 25 28 27 23 18 22 23 25 24 24 24 25 25 28 27 28 25 29 37 44
49 48 49 50 46 45 45 46 47 48 46 49 46 43 32 30 27 26 30 28 30 27 25 25 27 25 26 29 31 27 22 25 26 27 25 22 22 25 27 29 25 21 16 11
47 50 50 49 50 49 48 48 50 51 50 50 45 44 40 35 34 30 29 31 31 31 25 25 24 26 28 32 36 29 25 24 26 28 27 24 28 31 30 25 26 23 20 19
52 52 52 52 49 49 47 49 52 52 51 52 50 47 45 38 33 34 34 34 35 36 32 32 25 25 29 30 28 32 34 30 30 33 34 34 36 33 29 27 27 25 25 26
45 46 48 51 44 48 49 47 49 53 53 53 53 49 48 41 35 36 37 35 37 33 34 33 33 26 29 33 35 33 31 31 31 34 35 38 32 29 29 29 29 28 27 28
48 52 52 50 46 50 45 35 43 52 52 52 54 53 51 46 38 35 37 38 39 37 36 35 28 28 30 30 35 29 29 33 31 32 33 31 29 28 30 31 31 31 32 32
23 31 51 55 57 54 45 45 37 38 48 49 54 50 48 50 46 38 37 39 40 39 37 37 35 30 27 26 25 27 29 31 36 38 35 33 30 29 29 31 32 32 34 35
24 24 27 28 35 52 52 55 54 51 42 31 49 50 50 45 50 43 41 39 44 42 41 38 35 31 30 29 31 26 26 31 32 35 38 36 33 32 32 32 34 35 36 37
30 31 29 29 29 26 24 28 37 47 45 41 38 48 45 46 43 39 36 40 44 45 43 39 37 36 33 33 31 33 31 28 32 36 40 39 37 37 37 38 37 38 38 40
35 34 33 33 32 26 31 33 35 35 42 46 33 42 45 44 48 45 41 38 39 40 40 43 42 41 39 39 38 38 38 33 33 37 39 43 43 42 41 42 42 43 43 44
40 39 40 40 36 34 35 38 38 35 33 49 39 33 42 43 36 36 40 34 34 38 46 49 43 41 40 40 38 40 40 42 45 40 42 43 43 44 45 45 45 46 46 47
40 44 45 45 38 41 41 39 41 39 37 34 49 37 42 46 43 45 45 47 42 38 38 44 45 45 42 42 43 44 45 48 49 48 44 44 43 45 45 45 45 46 47 48
42 44 45 46 45 48 44 40 43 36 32 36 49 41 30 46 41 40 40 37 39 42 42 44 44 42 44 44 44 43 48 50 48 48 46 45 44 43 44 46 48 49 51 53
43 46 47 49 49 50 47 43 42 35 32 29 36 47 30 38 41 36 39 39 40 41 42 42 42 40 41 40 45 46 42 47 48 47 48 44 46 47 50 46 47 50 53 56

GFSCGP_500_spd_069.txt.gz
Wind_Speed
37 39 32 26 28 26 26 29 27 24 30 24 20 18 20 15 13 13 17 20 20 15 14 14 14 11 11 11 13 14 13 9 15 28 31 28 28 32 25 23 22 17 23 25
44 41 30 32 31 29 28 29 25 24 28 30 23 19 21 20 17 14 20 21 23 19 15 15 15 14 10 11 11 11 11 9 7 11 22 23 27 30 28 28 26 23 24 26
46 38 36 36 33 31 29 30 27 27 30 31 27 19 19 15 12 18 19 21 21 21 17 15 15 15 11 9 11 9 9 6 3 2 4 19 30 35 35 29 26 31 30 26
50 43 40 37 36 34 34 29 31 30 32 32 30 16 8 16 15 17 18 20 18 20 17 17 16 15 12 9 9 9 6 6 5 2 2 2 5 20 26 31 30 27 28 30
48 39 38 40 34 34 29 33 35 35 36 34 28 24 11 12 11 16 19 21 20 21 19 18 15 14 10 7 8 7 6 6 6 5 3 1 3 3 8 12 29 32 32 29
52 44 43 44 36 34 34 34 37 38 38 37 23 33 12 11 11 15 17 15 19 19 17 16 13 13 11 9 6 5 6 5 7 8 5 3 2 1 4 7 11 13 15 16
46 40 43 42 41 39 39 37 38 39 41 34 28 37 16 13 16 15 15 17 17 19 18 17 13 14 10 9 9 10 8 7 6 7 7 7 7 7 7 9 9 10 13 14
39 38 33 37 40 38 36 36 39 42 40 35 35 39 18 16 16 17 15 16 17 18 15 15 17 15 12 7 9 13 13 10 10 9 8 8 9 8 10 10 10 12 12 12
29 36 35 32 33 38 41 44 37 41 43 43 42 36 27 18 16 21 19 17 19 21 19 15 17 19 16 13 13 14 13 11 12 14 13 11 10 9 9 9 10 13 14 16
36 33 34 38 35 37 40 40 42 47 48 46 45 39 33 23 17 20 20 17 18 21 21 18 19 21 19 19 19 16 14 15 14 14 16 17 16 14 12 12 12 13 15 18
31 36 33 29 38 37 37 40 40 43 45 45 45 43 30 26 21 18 21 21 19 20 25 21 22 25 25 23 23 20 20 17 18 19 21 23 23 22 20 19 19 22 27 25
33 31 32 36 36 35 38 40 41 43 43 44 45 45 34 26 23 16 20 23 26 26 26 27 26 26 27 26 24 22 22 20 23 25 23 25 25 26 26 24 25 28 24 26
39 38 35 32 32 35 40 41 39 36 39 41 44 45 38 31 27 22 22 25 23 26 27 26 26 25 24 26 25 25 24 23 24 30 31 26 25 21 19 20 20 22 23 22
43 44 45 40 36 37 38 39 40 41 42 40 39 41 38 34 30 29 27 27 26 28 30 32 30 30 29 28 29 30 30 27 25 30 32 32 25 23 22 22 24 26 25 23
46 47 48 46 44 41 41 43 42 44 44 45 45 46 45 39 33 33 32 28 29 29 30 31 33 31 31 29 29 31 31 34 35 30 29 31 32 29 28 26 27 28 28 28
47 47 45 42 41 45 44 44 44 46 47 49 52 49 49 47 40 36 37 34 31 31 34 34 30 33 32 32 34 38 38 36 34 32 34 33 33 33 34 36 36 32 29 29
45 45 47 47 41 39 45 41 43 44 47 49 52 53 54 50 47 38 38 37 36 33 35 35 33 34 36 35 36 40 38 38 37 38 32 31 30 33 37 36 32 31 31 29
41 43 43 42 43 47 46 42 37 41 44 47 52 53 55 56 52 42 38 40 38 36 36 34 33 31 28 30 35 36 39 39 40 38 31 34 35 30 28 27 27 31 31 29
35 36 36 41 47 43 42 38 38 39 40 40 43 46 51 55 57 46 40 41 43 40 38 35 36 33 31 30 28 30 38 35 37 35 34 34 36 36 31 34 32 31 32 31
26 25 24 22 20 19 23 35 43 46 41 44 49 46 45 50 55 57 48 41 41 44 41 38 36 34 33 31 35 32 32 30 32 29 30 33 36 35 32 35 36 32 32 32
26 25 22 20 16 11 14 20 22 24 29 42 44 49 48 48 50 51 44 37 38 42 46 43 40 39 36 31 34 35 34 32 32 33 30 31 34 37 34 34 35 37 36 35
27 27 25 23 20 16 21 25 27 24 21 27 30 29 40 52 49 50 42 38 36 36 41 41 42 38 39 37 37 38 37 35 36 36 35 35 39 37 37 39 40 40 40 40
30 29 29 27 24 24 25 30 34 31 26 30 31 30 26 33 43 41 41 37 35 40 43 44 38 38 42 39 42 45 43 42 44 40 40 42 44 44 44 43 42 42 42 43
33 33 33 31 30 31 32 37 38 36 35 34 34 33 31 30 39 39 39 40 35 32 35 42 42 39 39 40 40 40 42 39 43 44 48 45 47 46 49 46 41 43 44 44
34 36 36 36 36 36 37 42 42 42 41 40 40 41 35 33 30 38 47 50 43 42 42 42 45 43 39 39 39 38 38 40 42 44 45 50 50 43 42 45 47 45 45 48
34 35 37 40 41 42 42 45 46 47 47 47 45 41 39 29 30 35 42 43 51 47 41 37 37 39 41 43 44 43 40 42 42 40 42 47 47 42 44 48 48 49 49 53

GFSCGP_500_spd_072.txt.gz
Wind_Speed
45 47 42 26 30 27 27 28 26 27 29 26 25 23 19 15 14 19 18 20 16 20 21 17 16 16 12 11 10 10 11 12 8 18 23 24 17 18 18 16 20 15 22 24
50 51 36 33 35 31 27 27 27 29 29 29 26 24 20 17 15 17 16 19 18 17 23 22 20 18 15 11 9 8 10 10 6 15 20 23 25 23 23 23 24 22 21 19
48 50 39 37 37 34 27 28 28 30 34 30 27 24 23 16 12 14 17 15 20 18 21 23 22 16 13 10 8 7 9 9 6 0 11 21 28 25 25 30 28 25 26 27
49 51 46 42 43 35 33 27 34 34 37 30 31 25 19 10 15 17 20 16 19 21 20 22 20 16 16 13 9 7 7 7 7 4 2 4 6 23 31 32 33 31 30 28
48 48 45 44 40 36 33 36 36 38 38 37 31 29 20 11 14 17 20 17 19 22 20 19 21 16 14 15 12 8 8 8 8 8 7 4 4 4 15 32 33 35 37 31
49 52 50 47 43 41 38 38 39 39 37 41 30 31 24 15 16 16 18 16 17 19 19 17 17 15 15 13 13 9 7 8 9 9 8 6 6 4 4 5 17 38 41 37
43 52 55 49 49 44 42 38 39 37 39 41 31 36 23 18 18 18 19 16 15 17 17 15 16 15 13 13 10 10 10 9 8 7 6 8 9 7 8 8 7 6 12 21
34 41 48 54 50 45 39 35 36 40 42 40 36 39 28 20 18 21 16 18 15 14 16 17 16 17 15 13 12 12 11 10 11 12 10 9 8 8 10 9 8 8 8 11
26 26 35 47 48 44 41 44 40 42 45 45 42 42 33 25 21 20 20 17 17 16 16 18 13 14 18 14 16 16 12 11 13 13 14 14 12 10 9 9 10 10 11 11
24 26 28 34 42 44 45 43 42 44 45 45 44 43 38 29 22 22 19 16 18 18 20 22 23 17 23 21 19 20 17 15 14 16 16 16 16 15 13 11 10 10 11 11
23 19 25 27 39 38 38 36 38 44 45 43 43 34 43 26 27 27 22 22 21 20 23 25 24 20 22 26 24 24 22 20 18 18 18 19 20 20 19 17 17 16 17 18
22 21 27 24 21 38 38 37 36 41 41 43 43 40 43 32 25 27 27 23 24 26 26 26 26 24 23 26 28 26 25 24 22 21 19 19 24 24 21 23 24 25 23 24
28 24 22 25 30 30 29 42 42 41 39 39 40 40 40 31 27 29 27 27 27 26 30 30 30 27 26 29 31 31 31 28 25 25 24 22 22 25 24 21 24 22 23 22
30 30 27 25 28 30 31 30 31 32 34 35 37 38 35 24 26 25 26 29 31 31 27 29 32 32 28 30 31 30 33 33 31 30 28 27 27 27 27 27 27 23 22 24
39 37 34 32 30 29 30 32 33 36 36 38 36 38 36 35 31 29 27 28 32 29 34 33 32 37 36 34 33 31 34 33 35 34 31 30 32 29 31 28 29 29 30 30
42 39 35 34 35 36 36 36 37 37 38 38 39 40 43 42 38 36 34 32 31 31 31 37 36 36 39 39 38 37 34 36 38 37 36 36 32 31 33 33 33 34 34 35
44 44 41 37 32 30 37 34 33 34 36 36 39 43 45 46 45 43 41 36 36 36 36 35 39 40 39 40 40 40 40 40 42 43 41 40 37 37 35 34 33 33 34 34
43 43 43 42 39 42 42 38 32 30 29 34 41 44 48 49 46 47 48 44 39 38 39 35 37 39 42 41 42 42 40 41 46 47 44 43 42 39 38 37 37 35 34 32
38 39 39 39 39 38 39 37 36 39 41 41 45 47 47 49 43 42 48 48 43 38 41 40 37 36 39 38 40 42 44 42 43 50 48 47 45 42 41 39 34 38 37 35
31 33 32 31 29 22 24 27 31 36 41 42 43 44 44 46 48 46 45 45 43 38 40 42 41 39 38 40 41 40 42 40 45 49 52 52 44 43 41 39 35 39 38 38
25 26 22 19 17 17 16 15 13 19 25 26 30 36 39 44 49 49 46 48 46 41 35 40 43 41 39 41 41 41 39 40 44 48 46 44 43 44 42 39 34 33 36 39
22 23 24 22 20 20 18 18 17 18 17 18 18 19 21 25 29 37 42 45 46 46 36 36 42 44 38 43 46 45 40 37 38 42 45 47 46 47 46 42 42 45 38 42
23 23 21 22 22 23 22 21 20 20 21 23 23 24 23 23 28 31 32 36 40 39 41 39 41 42 36 38 41 46 47 43 46 47 48 50 48 49 49 51 53 52 51 52
26 25 24 24 24 25 27 27 26 27 26 27 28 31 32 32 34 32 34 34 36 39 35 38 43 45 44 44 44 43 44 45 51 51 54 54 56 55 56 53 53 51 51 57
28 27 26 27 28 29 30 31 31 32 33 34 35 36 38 39 39 41 36 37 36 41 41 37 40 40 41 42 43 45 47 50 50 47 52 61 51 52 63 54 55 56 63 51
26 27 28 29 30 31 32 33 34 36 39 40 39 41 42 45 47 48 43 43 35 38 40 42 42 48 48 46 47 46 45 46 46 45 45 45 46 46 47 50 51 47 56 49

GFSCGP_500_spd_075.txt.gz
Wind_Speed
56 55 55 49 34 31 32 34 28 22 24 33 25 23 21 20 22 22 23 24 21 18 18 16 14 16 14 14 15 14 15 13 11 10 12 14 20 21 14 10 19 22 20 21
62 62 54 47 40 40 37 33 28 28 32 33 29 24 23 21 19 20 25 24 21 20 16 16 16 17 16 16 13 14 14 13 10 10 15 18 20 16 18 14 17 12 15 17
54 54 52 48 44 43 39 33 28 30 27 36 31 25 22 22 20 22 21 22 23 21 17 15 16 15 16 13 12 13 14 11 8 9 8 20 18 25 25 21 23 21 18 17
54 56 46 50 45 44 42 31 32 35 36 34 30 27 22 21 15 22 22 26 19 20 19 13 16 15 15 14 13 12 13 13 8 6 6 7 10 19 28 29 28 29 27 24
44 55 59 52 51 48 40 38 37 39 41 34 33 33 23 22 21 20 22 24 20 17 16 12 13 13 17 16 13 11 11 11 10 9 9 10 11 10 11 18 27 28 28 28
33 46 51 53 52 51 43 41 38 42 41 38 31 33 28 22 20 21 23 23 20 16 15 12 10 13 14 14 9 10 11 10 10 11 10 11 11 11 9 8 9 25 36 34
24 40 48 47 51 54 48 45 43 42 43 40 31 34 33 28 25 21 23 22 22 19 14 13 11 13 13 13 9 7 9 8 8 8 7 8 10 11 10 11 10 9 9 20
22 38 40 39 49 49 48 45 43 39 29 27 28 38 34 29 23 26 24 24 24 21 14 13 15 16 15 14 12 8 8 8 8 8 10 9 9 9 9 12 11 12 7 5
21 22 22 34 45 52 50 49 43 34 26 29 26 28 26 26 22 25 21 22 21 23 18 15 17 17 18 17 16 14 10 9 9 11 10 11 12 10 11 11 11 12 11 10
21 18 23 25 38 50 51 44 39 43 41 38 37 24 20 20 23 24 22 22 21 24 26 19 19 19 18 20 20 19 17 14 11 11 13 14 12 11 12 14 14 12 11 12
20 18 16 22 33 47 49 48 47 42 44 35 31 23 24 20 27 25 25 26 26 27 24 24 23 22 25 24 24 24 23 20 17 17 17 16 14 13 13 13 15 18 16 16
23 18 16 14 17 28 36 43 44 44 32 36 36 28 28 28 26 22 27 25 32 28 25 26 27 26 25 25 24 24 26 25 24 22 22 20 21 20 17 17 18 18 19 22
24 22 17 10 13 22 32 31 33 34 28 27 21 24 34 30 28 28 30 33 30 33 31 28 31 30 28 30 29 27 27 28 29 27 27 26 23 23 25 23 20 22 20 22
26 24 24 19 18 17 16 24 30 34 40 39 36 31 25 25 29 31 32 32 28 32 32 35 35 35 34 32 33 33 31 32 33 31 29 30 29 29 31 30 27 22 23 25
27 25 22 24 21 21 22 22 27 27 26 29 25 26 30 29 31 26 26 24 24 28 31 37 35 35 37 37 34 36 35 34 33 35 33 33 33 32 33 31 29 32 28 28
37 29 25 27 27 25 24 22 23 25 26 27 27 28 24 31 32 28 30 30 30 29 31 26 39 40 39 38 38 38 38 37 37 38 35 37 37 36 35 34 33 33 32 32
39 39 41 36 34 32 33 29 30 28 30 29 28 25 34 39 36 35 34 34 33 32 32 33 32 28 41 43 42 43 42 43 43 42 39 40 42 41 39 39 40 38 38 37
41 40 41 40 38 36 30 31 24 21 22 25 29 35 40 41 40 36 38 39 38 37 35 32 34 33 35 36 45 45 46 47 46 44 43 44 43 42 44 44 43 41 41 40
42 41 42 40 38 35 40 39 35 34 31 36 33 36 40 39 35 33 42 39 37 39 37 35 35 36 38 37 40 43 47 50 49 47 47 45 45 47 46 46 46 44 45 42
36 36 38 38 38 37 29 36 32 33 32 42 42 45 45 44 40 38 43 41 39 40 40 37 32 35 39 40 40 41 43 48 51 50 49 52 54 52 50 50 51 49 49 45
27 29 31 29 29 28 23 28 24 26 30 38 35 38 40 38 37 35 33 33 38 41 43 43 37 36 38 42 43 40 44 46 48 51 52 55 53 52 55 54 49 48 48 48
21 23 24 26 27 28 20 20 20 22 18 20 20 20 21 21 21 25 24 25 29 30 32 32 34 36 35 38 42 47 46 46 46 49 54 55 54 56 58 56 55 50 53 53
21 21 21 22 24 23 22 26 22 18 20 21 21 20 22 23 24 24 26 25 26 30 31 31 33 37 38 40 42 46 53 51 50 51 51 49 46 50 54 55 54 57 56 59
23 15 24 19 24 15 24 26 25 24 23 24 25 25 26 26 28 30 32 32 32 33 34 35 38 35 41 44 42 45 52 53 50 50 52 53 55 53 58 56 59 60 62 63
26 28 28 31 30 31 32 30 26 25 27 27 28 29 30 31 32 33 34 36 39 40 40 39 39 41 39 45 46 52 54 54 49 49 52 55 59 64 65 64 64 67 68 75
26 29 31 29 28 27 29 28 28 29 30 30 30 31 33 34 36 38 41 45 48 49 51 49 46 46 42 42 47 47 50 55 56 55 55 56 57 59 60 62 69 70 75 64

GFSCGP_500_spd_078.txt.gz
Wind_Speed
47 50 49 52 55 51 41 42 39 22 20 23 30 32 27 21 24 23 22 22 26 21 19 19 15 16 14 13 14 16 15 19 20 16 12 11 13 15 9 11 13 15 19 27
49 50 50 49 56 52 46 45 42 29 24 26 35 39 28 26 25 19 22 26 24 25 17 19 15 16 13 12 11 12 12 14 17 17 13 9 9 14 12 16 7 8 17 18
44 45 52 54 58 54 53 50 46 34 30 32 30 37 30 25 23 20 18 22 22 27 21 16 16 14 11 8 9 11 11 12 14 15 12 7 11 13 14 16 13 13 17 15
40 39 49 57 55 58 59 49 45 35 37 37 27 32 29 28 24 20 15 18 21 19 25 16 14 13 10 7 8 9 9 11 12 12 10 6 4 6 11 17 27 25 23 22
36 34 40 49 50 54 60 48 36 41 40 41 38 37 27 26 21 17 22 22 20 17 20 17 15 12 11 8 8 8 6 8 11 11 10 9 8 6 7 10 13 19 24 25
26 37 30 37 45 54 58 39 38 42 40 46 40 38 32 28 20 17 21 25 20 21 16 16 15 15 11 7 6 7 4 5 7 9 9 10 10 11 10 9 8 6 17 23
27 28 21 26 46 55 56 46 44 43 46 51 38 35 31 26 19 16 24 19 22 22 20 14 13 16 12 9 7 7 4 5 4 7 7 6 8 8 9 9 7 4 5 6
27 21 16 26 39 54 49 51 47 47 42 39 30 35 32 31 29 31 30 23 22 28 22 17 15 17 15 13 12 10 6 4 4 5 6 7 7 9 9 9 7 6 6 5
26 25 18 18 34 43 47 52 36 39 30 28 32 29 28 28 21 21 28 25 21 26 22 20 18 16 19 15 15 16 12 7 7 6 7 7 8 9 10 11 11 9 8 7
19 23 20 14 28 41 41 41 39 36 34 27 30 27 26 23 11 20 22 24 22 22 21 28 18 18 21 21 19 18 17 15 11 10 10 9 9 8 9 10 13 14 13 11
20 24 20 22 9 24 39 38 46 46 39 22 28 25 26 21 22 23 28 27 23 27 29 26 22 23 23 23 23 21 20 20 17 15 15 15 14 12 12 12 12 14 15 15
26 19 18 19 11 10 27 35 37 44 45 33 35 34 23 25 23 27 26 25 27 29 30 32 28 27 26 27 26 25 26 22 23 22 19 19 19 17 16 16 17 17 16 17
28 23 18 19 14 9 18 37 38 39 30 27 33 28 33 25 22 30 27 29 28 30 27 26 35 32 30 30 30 27 27 26 26 26 25 24 23 21 22 22 22 22 22 20
28 23 19 20 16 13 11 28 31 39 37 37 24 31 39 30 27 34 34 33 32 34 32 31 30 31 31 36 33 30 29 30 30 30 30 29 26 26 26 28 28 26 25 24
26 30 23 23 22 18 11 19 14 23 24 35 31 29 25 29 18 25 34 30 32 36 37 34 35 40 40 39 39 35 34 32 33 34 33 30 30 30 31 32 31 30 29 28
35 34 27 24 24 27 23 23 14 32 18 18 26 22 24 16 9 29 33 29 31 29 27 29 31 30 40 41 39 39 40 39 39 38 35 34 35 35 34 34 34 33 33 33
38 36 33 27 33 33 30 24 21 22 24 23 25 20 29 23 28 36 24 28 25 28 28 29 29 29 27 31 32 43 40 40 41 38 38 38 38 38 38 38 38 38 36 37
39 35 38 37 35 34 28 26 27 28 23 23 23 19 21 29 34 30 29 35 28 28 30 30 31 31 32 32 33 30 32 36 42 43 42 43 42 40 41 41 41 41 38 38
38 36 39 42 44 41 31 31 34 29 24 24 24 25 35 35 35 32 37 36 30 28 33 33 31 30 32 34 35 35 35 36 40 41 43 47 48 47 44 48 44 43 45 44
36 35 37 37 38 42 41 37 38 30 27 37 35 33 38 37 30 33 36 37 37 35 35 31 28 34 32 31 34 39 40 41 41 40 43 42 44 51 54 50 49 50 48 51
26 32 31 32 34 35 31 34 29 27 32 37 40 42 39 37 37 35 37 35 39 32 34 29 32 33 36 36 36 39 41 44 46 48 49 50 50 49 52 54 56 57 58 54
16 18 23 27 28 30 25 18 20 18 21 29 33 30 23 28 28 24 24 26 24 22 24 24 26 27 28 31 36 41 43 44 48 50 49 51 54 53 51 54 56 57 53 59
13 17 18 20 18 18 24 31 34 28 30 30 23 21 22 21 20 20 22 24 24 25 25 25 26 27 29 32 34 36 44 47 48 52 54 55 56 56 56 54 57 59 60 60
19 13 17 17 17 21 16 27 33 31 30 29 25 25 23 23 24 24 25 26 29 30 32 34 34 35 34 36 36 39 39 45 51 52 52 52 58 59 61 62 60 57 58 54
21 24 20 20 18 27 31 29 30 28 30 29 28 27 27 27 28 30 29 32 33 34 36 37 39 43 45 47 47 46 44 45 46 55 58 57 57 61 63 66 64 61 56 59
24 28 16 29 24 23 30 29 28 30 31 33 31 30 32 31 32 33 33 35 36 38 40 43 46 48 50 53 54 53 52 49 49 51 58 56 58 60 62 63 61 64 65 63

GFSCGP_500_spd_081.txt.gz
Wind_Speed
37 41 44 43 43 45 45 47 46 42 37 35 36 30 31 32 31 30 25 25 20 19 14 15 15 13 15 19 19 15 13 14 12 13 12 11 6 6 2 1 2 5 15 20
39 40 37 40 45 48 50 48 46 47 37 36 37 30 34 31 29 26 26 26 23 23 14 9 14 11 13 17 18 14 9 11 12 11 11 8 3 6 7 5 4 2 5 8
37 39 43 46 45 48 51 52 47 54 43 41 38 36 39 35 27 24 24 23 23 21 19 6 13 12 12 15 15 11 9 8 8 11 10 8 2 5 6 7 8 11 10 7
35 36 38 43 46 47 47 51 58 54 55 48 44 44 39 34 32 28 26 25 21 19 22 10 9 13 12 15 14 11 8 7 6 7 9 7 3 2 1 5 12 16 16 13
29 33 38 34 39 45 47 50 53 49 56 54 42 44 44 36 34 32 27 25 20 18 19 12 9 14 13 14 15 13 7 7 7 6 6 6 5 2 2 3 6 9 17 23
24 29 30 28 33 44 48 48 49 45 51 53 48 49 43 32 27 23 20 24 25 17 19 13 9 14 14 13 14 12 7 5 6 5 5 4 5 4 4 4 6 7 8 14
23 24 26 25 27 36 36 38 37 42 48 48 47 50 52 30 26 22 26 23 22 17 20 15 8 12 14 13 15 14 10 7 7 4 2 3 4 5 5 4 5 5 2 3
20 19 26 26 22 26 30 35 36 46 48 51 42 51 44 23 25 26 22 23 18 20 21 17 13 13 17 14 16 15 13 10 8 6 4 3 4 5 5 5 5 3 4 5
20 17 20 20 13 25 30 41 36 45 50 47 44 46 27 26 23 25 27 26 25 26 22 23 16 15 18 16 18 18 15 12 10 10 7 5 5 5 5 7 7 6 5 4
16 15 19 22 18 10 32 29 41 39 35 28 34 36 31 26 21 30 27 24 28 30 29 26 18 15 20 18 19 18 18 18 16 12 12 10 8 7 8 7 7 8 9 8
19 17 11 20 21 6 18 34 35 32 35 36 29 29 35 35 28 33 35 33 31 34 31 30 23 18 22 22 20 21 19 20 20 19 17 15 14 12 11 12 11 11 10 12
20 18 16 15 22 16 7 23 33 32 33 37 30 40 42 43 40 37 34 34 33 34 31 28 24 25 22 23 24 26 25 23 23 23 24 22 20 17 16 16 16 15 14 13
21 24 20 13 17 18 18 7 32 41 30 34 29 34 29 35 43 44 44 40 39 37 34 29 25 28 27 25 28 29 30 30 28 26 24 27 24 22 22 21 20 19 18 18
24 24 21 15 16 21 15 9 21 35 38 39 37 33 20 27 41 49 47 43 40 42 35 32 31 29 32 32 27 32 35 34 33 31 28 25 26 26 28 27 25 24 24 23
28 25 24 19 18 22 11 18 14 28 24 33 30 37 40 26 33 45 50 45 44 43 36 31 30 28 30 35 34 31 28 34 36 37 34 30 30 30 31 30 30 29 28 29
31 28 29 24 24 23 24 15 21 21 18 35 30 19 23 28 30 24 33 44 43 43 42 36 37 35 34 38 39 37 36 33 33 38 38 37 35 34 32 32 32 34 31 30
35 33 32 29 29 26 26 21 17 22 17 16 28 24 14 20 20 24 26 29 31 41 41 36 41 40 37 37 44 39 34 32 37 34 38 41 42 40 37 37 38 36 36 36
36 34 35 32 36 32 26 28 23 18 18 17 14 23 21 21 29 21 29 33 24 23 28 33 29 28 29 30 33 33 30 29 30 38 40 41 42 42 42 42 41 40 40 40
37 37 35 36 37 38 28 30 29 29 23 23 22 24 28 26 23 27 34 26 26 27 30 30 31 33 34 35 35 36 35 34 35 36 35 34 37 42 44 44 44 42 47 48
31 33 34 32 38 41 35 30 30 32 27 29 29 28 26 32 33 33 30 29 28 28 29 32 34 35 35 35 35 36 38 40 41 43 44 44 43 43 45 44 47 48 49 48
17 26 32 31 36 38 37 41 41 40 41 36 33 34 32 33 36 38 35 33 33 32 37 35 34 34 34 34 35 36 38 40 42 44 45 48 50 48 48 47 48 50 52 52
12 16 23 28 32 34 30 30 33 38 37 27 29 34 37 35 36 42 47 47 46 44 38 32 27 27 29 30 32 34 37 41 44 46 49 51 53 54 53 50 51 54 55 54
18 10 9 13 15 19 22 23 26 23 24 23 24 27 25 26 31 35 34 33 32 31 28 27 27 29 31 32 33 34 35 38 41 45 50 55 57 58 59 60 60 57 57 57
10 14 12 13 15 17 18 17 18 23 24 30 19 24 29 34 36 33 30 28 28 28 29 31 31 32 33 34 35 36 38 41 43 45 46 47 55 63 63 62 65 67 65 62
21 9 18 20 15 16 20 25 32 34 37 35 36 38 35 33 32 31 30 31 32 32 32 32 33 34 35 36 38 41 43 45 47 50 52 52 52 52 59 66 66 65 67 70
23 24 8 15 17 25 25 21 41 22 22 30 37 39 35 34 34 33 33 33 34 35 36 37 38 38 39 40 41 44 48 50 53 56 59 59 58 59 57 60 65 69 68 65

GFSCGP_500_spd_087.txt.gz
Wind_Speed
36 40 41 36 38 38 41 42 43 42 43 43 38 34 34 32 40 39 40 41 37 38 30 29 25 25 25 25 22 18 19 15 19 16 14 16 15 10 11 9 13 21 32 43
37 35 32 36 40 42 42 43 43 42 41 39 38 39 34 35 36 38 40 43 37 38 33 31 26 24 27 23 22 17 20 13 15 15 13 11 13 10 10 10 10 18 28 43
34 31 31 34 37 39 37 36 36 37 36 36 41 47 42 40 39 40 43 42 38 39 36 32 26 25 28 23 20 18 20 14 12 16 11 11 9 9 10 12 7 7 22 29
33 31 31 32 31 32 32 33 33 34 35 37 40 52 44 37 39 42 44 43 42 38 39 35 27 26 28 24 19 17 19 15 12 15 12 10 9 4 7 11 9 9 11 22
33 31 31 31 27 31 28 26 29 33 37 40 44 48 43 35 41 39 45 45 42 39 39 36 25 25 31 25 19 16 17 16 13 14 12 10 10 7 7 8 13 14 13 14
33 30 29 29 28 26 25 25 28 33 37 44 43 48 44 39 34 40 48 48 42 36 39 32 26 30 31 26 20 15 16 17 14 14 13 9 10 10 8 7 8 8 9 12
31 31 29 27 25 23 21 23 30 34 37 39 39 47 38 37 37 41 45 48 42 39 38 31 31 29 30 26 21 15 16 19 16 15 13 10 10 10 10 10 10 10 10 11
30 29 26 22 22 20 19 22 28 33 34 37 38 42 34 38 40 38 47 46 45 42 35 31 28 27 28 24 21 18 17 20 18 17 14 11 11 10 10 9 9 9 10 10
31 29 25 22 22 18 15 20 26 30 32 36 36 30 29 30 31 31 33 47 41 41 30 29 29 27 25 24 22 20 20 20 21 21 17 14 12 12 11 11 9 8 8 8
32 28 26 23 20 18 16 16 19 19 23 24 24 23 22 23 24 29 28 42 41 35 32 33 28 27 24 26 27 22 22 22 23 23 21 18 16 14 13 12 11 11 11 11
28 27 26 23 21 21 17 13 18 19 17 18 22 17 15 15 17 24 26 38 36 38 38 31 31 30 26 29 29 27 24 25 26 26 26 23 21 19 17 15 15 14 14 14
27 25 24 22 25 21 19 12 13 18 24 23 17 28 34 12 21 23 23 34 42 41 39 36 36 35 34 28 30 28 26 25 27 27 29 29 27 25 23 22 20 19 18 17
28 26 21 22 23 20 18 13 11 14 15 24 25 25 34 30 21 27 30 33 40 48 41 37 35 37 36 28 29 25 24 23 25 28 27 28 31 31 31 29 28 26 24 22
24 23 22 21 24 21 19 17 13 15 14 16 29 25 24 32 18 30 33 40 43 46 42 41 41 38 35 33 32 29 29 26 27 28 27 28 32 33 35 36 35 33 31 29
24 24 24 22 23 23 22 22 22 19 18 17 24 35 29 25 23 11 37 40 46 44 46 44 41 41 39 35 34 31 30 29 27 28 30 34 36 37 37 35 37 38 38 36
26 26 25 23 25 24 25 20 23 22 18 18 20 24 36 27 23 23 26 42 48 43 42 48 48 45 43 39 41 38 34 32 31 31 30 33 31 34 43 36 36 36 36 38
27 26 26 25 26 26 25 23 26 25 20 19 13 13 28 34 11 16 25 24 43 49 49 52 53 46 44 39 41 40 38 35 31 30 30 31 35 35 32 34 39 42 41 41
29 28 28 27 27 30 28 26 28 24 22 22 14 10 6 27 18 16 28 27 28 31 41 43 46 44 46 44 46 45 41 37 35 36 36 37 40 41 43 43 44 43 47 48
30 30 29 29 30 32 27 30 31 28 21 22 19 12 7 21 24 17 25 23 19 26 30 19 37 50 46 47 52 53 52 44 44 44 42 42 40 39 40 41 43 43 47 49
30 31 32 33 34 35 31 32 33 34 29 25 22 18 11 16 19 30 21 20 10 16 16 13 18 18 32 49 50 38 40 38 35 40 42 39 38 38 40 42 43 45 45 45
27 29 30 31 36 39 37 34 37 33 30 29 26 21 18 21 19 15 16 12 21 21 19 21 23 26 26 26 27 29 33 36 40 43 42 42 40 40 43 46 49 50 51 50
21 24 17 16 20 25 21 32 42 38 30 26 23 22 19 20 19 21 23 25 25 26 29 28 26 30 32 33 34 34 36 39 41 43 45 47 47 49 48 48 49 50 51 52
18 18 15 21 19 15 15 31 38 38 40 35 30 29 29 28 29 33 28 26 28 31 33 35 36 35 35 37 38 40 45 45 46 44 45 44 43 40 41 42 43 45 47 49
20 21 18 16 14 8 13 21 27 28 31 37 38 37 36 32 31 27 27 23 23 29 28 33 38 40 41 42 41 41 43 46 45 44 43 42 42 42 44 45 46 48 50 51
21 15 6 11 12 13 9 15 17 19 25 30 28 32 33 34 31 30 33 32 33 38 34 34 34 36 36 34 35 36 37 38 39 41 42 43 43 45 47 48 49 50 52 54
15 15 10 16 18 15 19 12 12 17 18 23 23 26 33 32 34 29 26 33 33 36 38 36 38 40 37 36 36 37 38 40 41 42 44 46 47 48 50 51 53 54 56 57

GFSCGP_500_spd_090.txt.gz
Wind_Speed
43 45 43 46 46 44 45 46 46 46 48 48 46 43 45 46 43 44 45 42 43 40 36 31 30 28 32 30 27 25 23 23 20 17 14 18 22 23 19 13 12 9 33 34
43 45 41 40 43 46 48 47 47 47 46 48 46 42 45 40 37 41 42 40 37 37 32 32 32 30 32 32 30 25 24 22 20 18 12 14 19 22 16 12 12 9 25 33
35 34 35 36 38 42 44 44 44 44 44 46 50 42 44 41 36 36 41 41 40 37 34 33 31 32 35 32 32 27 24 18 20 20 12 12 15 18 11 10 9 9 14 30
39 36 34 35 36 38 39 37 39 42 44 44 44 46 37 34 31 31 31 36 40 37 35 32 30 30 36 33 33 29 26 17 17 20 12 10 14 15 9 11 14 11 10 24
35 34 33 33 30 32 32 31 33 34 37 40 39 40 39 30 27 29 34 31 35 39 38 34 31 32 41 40 35 31 29 18 15 18 12 9 11 14 9 7 11 12 10 11
35 34 33 31 29 31 31 30 31 33 32 36 33 34 38 31 34 33 36 33 35 39 40 36 33 34 44 43 39 31 30 19 16 17 13 10 9 12 13 9 7 8 12 13
35 35 30 29 29 28 27 28 30 30 30 33 32 35 25 35 36 35 32 34 37 40 41 39 36 32 43 43 38 32 30 21 17 17 15 12 10 10 12 12 11 9 10 11
34 33 32 29 25 27 30 28 27 30 28 28 25 28 22 30 34 34 31 36 41 43 45 39 36 34 40 39 39 33 30 23 19 18 16 16 11 10 11 12 11 13 14 13
34 34 32 29 29 30 29 26 26 24 22 25 21 22 25 26 29 34 37 37 41 50 46 42 37 35 33 36 38 35 29 24 22 20 19 19 15 13 13 12 12 11 11 12
33 32 30 28 27 25 24 24 22 20 22 23 21 20 20 17 20 24 28 30 35 36 38 38 38 38 34 37 36 36 30 25 25 23 22 22 19 18 15 14 13 12 13 12
30 30 28 27 26 26 26 25 24 19 19 22 25 19 16 17 9 17 19 26 22 34 36 38 42 35 35 36 36 38 31 25 25 26 25 25 24 22 20 18 15 14 14 13
31 29 29 27 26 26 27 24 20 18 12 16 24 24 21 19 21 24 15 25 24 33 39 43 41 36 36 41 41 36 30 28 25 27 26 27 26 25 24 23 22 20 18 17
28 28 27 26 25 27 25 23 21 19 14 11 22 23 27 24 22 23 26 16 24 39 40 36 38 41 42 42 42 36 30 27 26 26 28 27 26 27 27 27 27 26 25 23
25 22 21 23 24 26 26 25 23 20 15 11 17 19 20 27 21 28 4 24 21 37 41 40 40 39 42 43 40 33 25 26 26 28 26 27 29 28 28 30 30 31 31 29
25 24 23 22 23 24 26 23 21 21 19 19 15 21 21 19 23 19 3 17 22 30 42 43 45 45 44 44 38 34 31 32 30 31 29 32 33 33 32 32 33 33 32 32
23 24 26 23 24 26 26 23 24 23 20 21 17 21 21 24 23 17 8 13 21 28 37 46 52 48 46 44 41 40 37 33 33 28 27 26 25 28 29 30 33 32 40 38
24 24 25 25 25 27 27 25 25 24 20 19 17 18 14 16 15 19 12 16 20 23 34 46 53 49 48 45 43 43 40 38 32 34 34 29 27 27 28 28 29 32 27 26
27 27 27 27 26 27 26 26 26 25 20 19 17 13 11 8 14 26 10 14 25 26 19 47 44 51 48 46 51 44 43 41 36 38 36 32 30 31 31 31 32 35 35 38
29 28 30 29 27 28 26 28 27 28 23 20 18 15 17 12 12 18 20 21 13 11 20 25 32 57 50 54 55 52 50 45 41 43 42 39 38 36 35 37 38 38 37 37
26 24 24 25 27 27 27 22 27 31 25 22 23 19 19 16 14 18 15 18 9 8 10 9 21 14 33 53 62 58 54 47 46 45 48 47 45 46 46 41 39 40 41 42
24 23 23 26 27 26 26 27 30 35 30 27 28 26 22 22 19 17 15 18 16 16 12 15 14 16 17 21 15 29 41 47 53 52 48 49 47 44 39 38 38 43 47 45
21 21 23 25 27 24 22 28 30 34 37 34 30 29 25 23 19 18 21 21 22 20 18 18 18 22 23 25 26 26 28 27 27 30 33 35 37 38 39 40 42 43 44 47
19 21 19 21 17 14 14 18 24 32 34 33 30 29 26 17 17 29 27 21 21 24 26 29 28 26 25 29 30 29 30 30 30 32 35 38 38 38 37 40 38 38 40 41
18 18 17 11 16 14 18 19 23 23 21 24 29 31 30 28 26 28 33 28 25 20 23 26 27 26 26 29 30 30 33 34 34 35 38 39 38 39 39 39 39 40 41 42
15 16 17 17 9 12 12 11 11 11 16 23 25 35 35 36 38 37 35 32 31 29 31 31 33 35 37 35 32 31 30 30 31 32 34 35 35 38 40 41 42 43 44 46
9 9 11 8 13 10 9 13 18 14 13 16 17 23 32 37 39 37 38 37 36 33 33 42 43 43 43 38 35 33 32 31 32 34 36 38 39 41 43 45 46 48 50 52

GFSCGP_500_spd_093.txt.gz
Wind_Speed
55 58 55 54 54 52 51 52 50 50 50 48 44 41 42 45 45 45 49 51 50 48 45 44 39 31 30 30 30 27 26 26 26 27 23 18 22 20 23 24 20 18 19 19
50 48 47 48 51 53 53 52 52 51 50 51 49 46 44 45 44 47 49 49 47 47 45 43 40 33 31 30 29 29 28 27 27 28 23 18 21 19 20 21 15 15 16 22
47 45 42 45 42 42 46 47 47 47 47 48 50 49 47 47 46 44 46 44 45 45 43 40 37 34 33 29 29 30 30 28 27 28 23 16 19 17 18 16 12 11 4 20
38 39 41 43 43 37 35 33 36 40 43 43 44 46 44 44 41 42 44 42 41 41 42 41 38 36 32 29 30 31 31 31 29 27 24 15 16 16 14 11 10 12 6 8
30 31 30 31 31 30 30 28 30 33 35 37 37 43 46 39 34 39 41 41 39 38 38 35 39 36 34 32 29 33 32 31 31 27 25 15 15 15 12 9 7 10 10 10
31 30 30 28 26 25 25 27 27 28 27 31 30 36 43 33 33 36 39 39 38 36 35 35 39 38 38 34 31 35 35 34 34 28 25 16 15 13 14 10 9 8 11 11
28 29 31 28 25 25 24 24 24 26 26 28 28 31 32 36 31 31 36 39 38 37 35 35 36 39 39 34 30 37 39 35 37 29 28 18 17 12 13 12 11 10 8 10
29 29 28 24 25 23 24 26 25 24 24 24 23 27 31 34 33 31 31 33 34 34 35 35 38 42 39 36 34 38 40 38 38 31 30 22 18 12 13 13 12 11 11 11
26 29 29 28 25 26 27 24 23 23 22 21 21 24 27 30 33 34 32 29 30 32 35 37 40 42 41 38 34 40 40 40 40 33 32 26 20 15 15 15 14 13 13 13
26 27 27 26 27 27 24 22 23 25 23 22 21 21 24 26 25 26 26 27 29 32 36 38 44 41 40 40 37 39 40 41 39 33 32 29 23 19 18 16 15 14 14 15
24 24 25 25 27 26 24 25 26 21 22 23 21 17 19 21 20 20 20 24 27 32 33 42 42 40 41 42 40 39 41 41 37 32 32 31 27 23 20 17 14 12 13 14
22 22 21 23 23 23 23 23 23 24 24 21 22 13 18 18 20 17 20 17 26 30 32 37 40 42 45 47 44 42 41 39 37 33 32 30 29 24 22 20 18 17 14 13
21 22 22 22 22 21 22 23 23 25 23 22 20 15 17 18 20 19 26 22 22 27 30 37 45 43 48 48 44 38 40 40 37 34 31 29 28 26 25 24 22 21 19 18
21 22 21 18 21 22 22 23 24 25 22 22 16 8 15 15 18 20 23 12 13 24 30 33 44 50 55 49 39 39 43 41 36 32 30 29 28 28 28 27 27 28 27 25
19 20 21 22 21 21 23 24 25 25 24 21 21 14 14 17 17 18 17 22 10 20 14 32 39 47 48 43 38 40 43 40 36 35 33 33 34 34 33 31 31 30 29 29
19 24 20 26 25 24 22 23 25 23 21 18 18 17 13 18 11 15 9 14 15 6 18 29 28 44 43 42 41 42 43 41 41 37 33 33 34 36 35 35 36 34 30 20
16 15 19 20 20 22 21 22 23 19 19 18 15 15 12 11 8 11 12 14 16 13 20 34 27 40 42 42 45 48 48 46 41 37 37 33 30 23 25 25 25 22 24 24
18 17 20 22 20 17 18 20 21 18 19 19 18 16 14 15 7 9 8 13 14 13 16 16 33 44 46 48 49 51 49 44 43 44 50 30 23 25 25 21 21 23 25 27
20 19 20 21 23 20 20 21 21 19 19 18 18 17 15 18 18 11 15 14 17 12 14 20 19 33 49 54 54 52 49 47 50 50 39 35 33 34 31 28 28 29 30 32
24 21 17 18 20 22 19 20 23 23 17 20 18 18 17 20 18 15 5 8 7 13 8 10 11 19 27 51 49 52 55 52 64 59 48 31 39 40 37 36 35 35 37 39
22 21 19 18 17 16 17 18 20 22 25 22 21 20 21 21 20 20 18 9 11 14 16 13 13 12 19 20 32 56 62 61 62 62 45 43 46 43 41 43 45 44 45 46
20 19 18 17 16 15 16 17 20 23 27 28 26 26 26 24 20 23 23 19 16 21 21 19 18 16 15 19 20 17 19 21 26 30 39 51 55 51 48 49 50 49 46 46
18 17 16 15 15 11 13 16 20 21 26 28 30 29 28 28 28 24 23 22 25 24 22 17 23 16 15 16 18 24 25 23 24 24 23 27 30 28 29 33 35 36 40 40
17 15 14 14 11 10 12 13 17 19 21 21 21 23 25 27 28 24 23 20 20 9 14 17 16 16 16 20 22 22 22 26 29 30 31 28 30 29 32 35 38 38 39 41
16 14 11 9 11 9 11 12 11 7 7 10 15 19 29 28 37 38 34 27 23 24 22 21 23 23 23 24 27 30 30 30 31 27 26 26 29 30 34 38 38 39 39 41
11 8 6 7 8 11 9 12 12 12 11 11 10 14 20 33 41 41 41 39 38 36 33 30 29 29 29 29 33 37 38 34 34 33 30 29 28 30 33 35 37 40 41 44

GFSCGP_500_spd_096.txt.gz
Wind_Speed
54 55 54 49 57 59 63 66 62 61 59 55 51 51 50 47 45 46 47 47 48 48 49 49 47 42 35 35 34 36 36 32 28 26 24 27 27 25 23 23 25 24 24 23
53 48 49 55 55 61 61 63 63 63 63 57 54 53 53 52 45 45 46 46 48 49 50 51 49 46 39 36 35 37 37 33 29 26 24 28 27 26 22 22 22 23 22 23
46 44 47 55 54 54 55 56 55 57 55 55 55 54 52 52 51 46 48 48 48 49 50 49 46 45 42 37 35 37 37 35 30 26 23 28 27 26 20 20 20 20 17 20
45 39 43 47 48 49 52 47 43 48 51 50 54 53 52 51 49 49 50 48 45 46 47 47 46 44 40 35 38 40 36 34 30 24 23 27 27 26 20 18 16 17 13 14
38 32 37 44 43 40 39 35 33 35 40 46 47 48 48 47 44 45 42 43 44 45 44 43 43 43 41 38 40 42 37 35 31 25 23 26 29 27 21 16 15 16 11 9
32 29 30 34 36 32 27 27 28 27 29 36 33 37 42 41 34 34 37 40 43 43 43 41 41 41 40 39 43 43 40 36 31 27 25 25 29 27 23 15 14 15 12 11
26 27 30 31 34 35 33 29 26 26 28 27 24 27 31 32 29 28 32 37 42 42 43 42 41 43 42 42 43 43 42 38 31 27 27 25 28 27 25 17 13 15 12 10
25 29 27 25 25 20 26 22 21 22 21 25 23 24 29 28 28 25 28 33 39 41 41 42 42 43 42 45 45 42 43 38 34 27 28 26 28 27 26 18 13 14 15 11
22 23 24 25 20 17 19 22 21 20 20 19 19 18 24 26 25 25 25 32 36 40 40 42 43 45 45 47 46 45 44 41 38 30 31 28 30 28 26 19 16 15 14 13
22 24 23 24 25 21 22 21 24 24 24 20 18 16 23 24 26 28 28 30 32 37 41 44 46 47 49 49 50 47 45 43 41 36 33 30 30 29 26 23 17 15 16 13
21 18 18 20 22 22 21 21 23 21 20 18 17 18 20 24 24 27 29 29 31 38 42 44 46 45 51 51 51 48 46 46 42 41 37 31 30 30 28 27 18 16 15 15
20 19 19 21 18 21 24 24 20 20 20 19 16 17 19 21 21 21 27 29 28 30 28 32 37 41 47 49 51 49 49 48 46 45 38 31 30 31 28 30 22 19 16 14
19 17 17 19 23 25 25 22 20 19 18 19 17 18 19 17 15 16 20 25 23 28 29 32 34 38 48 47 51 51 50 49 48 48 39 32 31 30 28 29 27 23 21 20
17 19 21 20 18 17 17 18 19 20 20 20 17 16 16 11 12 14 10 20 28 32 33 34 32 36 42 47 51 49 52 49 48 47 41 33 31 31 30 31 31 29 26 25
24 22 19 19 18 18 18 19 20 19 20 19 18 17 19 16 15 17 14 20 24 26 27 33 36 33 41 48 51 56 53 49 51 48 40 33 33 35 34 34 34 34 33 31
24 21 26 22 21 18 19 22 21 21 21 19 16 16 16 18 13 14 16 14 12 21 22 30 39 45 41 49 55 61 52 52 49 44 38 35 38 38 37 38 39 39 37 34
13 24 23 21 21 22 21 21 20 20 19 16 18 15 11 13 12 15 17 17 13 14 14 9 33 40 41 46 53 51 46 52 45 44 44 42 42 41 41 42 43 44 41 40
8 6 7 12 19 19 19 18 18 18 17 16 17 14 13 13 14 15 20 15 14 12 10 12 6 29 33 43 46 41 51 48 45 45 48 44 43 40 38 40 37 41 41 34
6 9 14 10 14 15 17 14 14 17 16 17 17 17 14 14 17 17 17 14 10 11 12 13 19 14 36 53 41 44 48 43 48 46 50 44 43 46 50 45 37 28 31 29
8 11 16 15 15 19 25 23 18 15 16 19 18 17 15 15 17 18 16 22 12 11 15 14 16 17 22 29 40 45 46 45 47 48 51 49 48 44 45 39 35 30 34 35
13 13 15 17 12 13 17 19 22 19 19 20 18 17 15 16 17 19 16 21 26 20 15 14 12 14 18 21 21 48 51 55 60 59 58 56 53 54 61 57 42 37 39 38
16 16 15 13 13 15 17 18 18 18 19 19 18 18 18 19 20 19 16 19 21 21 23 27 22 17 17 18 22 19 28 49 57 55 60 61 58 63 57 46 41 43 43 44
15 16 14 13 12 14 16 18 18 19 19 21 22 22 24 26 26 26 27 22 18 22 19 18 21 23 22 20 19 18 20 23 19 27 28 33 37 46 49 50 51 48 50 49
14 14 14 12 11 13 15 16 18 19 19 20 20 21 24 27 30 32 33 33 33 30 33 24 17 16 16 16 14 16 17 20 21 20 20 20 20 24 29 29 29 32 34 35
14 14 15 13 10 15 13 17 17 16 16 18 17 17 20 22 25 31 33 32 31 30 26 21 19 18 19 19 19 19 20 21 23 23 24 25 26 28 29 30 30 31 34 32
15 13 12 11 9 14 13 12 12 13 11 12 13 9 9 11 18 31 34 40 40 36 34 33 33 31 28 27 26 25 27 28 27 28 29 27 27 27 28 28 29 30 32 34

GFSCGP_500_spd_099.txt.gz
Wind_Speed
55 59 65 61 56 50 55 55 42 49 43 51 71 60 57 54 54 52 49 50 50 48 47 47 46 44 42 39 38 41 38 36 36 38 30 30 28 26 25 27 25 26 28 27
51 60 51 49 50 51 51 55 56 56 48 51 63 66 56 57 56 55 53 51 48 48 49 48 48 48 44 41 36 37 40 39 37 40 35 31 29 26 25 27 25 27 27 27
44 43 45 50 51 52 57 50 50 58 57 55 60 65 60 59 60 56 54 51 52 53 50 47 44 45 46 46 38 39 42 43 39 40 37 32 29 24 25 26 25 26 26 25
33 32 32 46 48 46 49 47 48 51 56 55 47 56 49 57 58 59 56 55 53 50 50 49 48 47 47 47 41 38 40 43 38 39 37 33 29 22 23 25 24 26 24 22
30 35 30 38 42 40 39 34 27 37 41 41 46 49 47 21 54 57 58 54 54 54 51 48 47 47 48 47 45 39 39 42 37 39 38 35 31 22 21 24 22 26 23 18
22 27 33 29 29 34 33 38 32 33 34 38 41 42 32 41 36 54 48 46 51 54 54 53 50 49 47 46 45 40 39 38 39 39 39 36 34 23 20 23 22 24 23 17
25 24 31 28 27 27 40 40 31 27 29 35 21 31 21 29 33 32 35 40 46 51 50 50 48 47 45 43 44 37 40 39 41 39 40 37 37 24 21 21 22 23 23 16
21 22 25 25 27 28 31 31 27 22 22 17 20 23 25 33 23 22 26 32 38 44 44 45 43 44 43 43 43 39 38 42 44 41 41 38 40 26 22 21 21 22 23 16
24 23 24 17 24 31 35 32 22 20 20 23 22 21 23 21 22 20 22 27 31 35 38 41 41 42 41 43 44 42 39 44 45 43 43 39 41 29 24 20 19 21 24 16
22 23 18 19 27 28 21 31 30 29 24 17 13 9 16 17 21 17 19 22 28 33 37 39 40 41 43 44 45 44 42 44 46 45 43 42 40 33 25 20 20 22 23 17
26 18 16 25 24 22 32 30 28 26 22 20 15 19 24 20 17 17 18 22 26 30 32 39 39 40 42 43 44 46 43 45 45 46 44 46 42 34 26 22 20 23 23 21
24 18 15 19 21 17 17 17 20 20 18 22 22 13 16 16 16 14 17 22 25 27 30 38 40 40 41 42 44 43 46 46 46 47 48 48 46 35 29 25 22 24 24 23
16 19 20 17 29 20 25 19 20 23 16 20 18 15 17 16 14 10 13 16 21 26 29 32 36 38 41 41 42 41 47 47 49 49 50 48 49 38 32 27 25 26 27 26
17 15 14 12 16 22 21 22 21 18 18 16 18 17 21 11 12 9 10 14 16 21 27 33 34 35 35 36 39 41 45 50 52 52 53 52 50 42 35 30 27 29 31 30
19 15 17 16 15 19 20 19 18 17 18 15 17 16 18 13 16 16 16 17 18 18 27 32 33 27 34 34 38 42 46 54 54 54 54 55 52 44 37 33 31 31 34 35
18 17 18 18 20 16 17 15 15 15 13 12 11 17 15 15 15 17 17 19 20 15 17 21 26 25 32 35 33 40 48 54 54 54 57 57 51 44 38 36 36 34 35 36
26 20 19 18 18 15 14 15 16 15 13 13 17 18 15 15 15 17 17 18 18 19 18 17 25 30 37 37 36 38 48 54 55 56 56 58 51 45 46 41 41 39 38 40
25 22 22 21 20 19 18 16 14 17 16 14 15 15 16 15 15 16 16 15 14 14 17 14 13 16 19 38 41 40 46 53 57 58 53 55 53 51 48 44 42 40 39 41
9 15 17 18 24 15 16 17 15 16 13 14 14 14 16 16 15 18 17 15 15 16 12 11 12 15 16 17 47 47 44 52 54 50 58 55 52 52 47 47 42 44 41 46
6 5 6 7 9 14 15 16 16 14 13 14 15 16 15 16 17 18 19 14 13 19 17 22 12 11 12 14 17 45 53 52 54 54 52 52 54 66 49 45 44 56 40 53
5 3 3 6 12 16 16 20 22 22 19 18 17 17 17 17 17 18 18 14 12 17 20 23 21 20 16 12 15 19 40 51 54 64 69 63 62 59 51 50 51 50 44 63
6 6 8 9 13 16 17 16 16 18 23 22 21 20 20 20 19 19 19 17 17 18 17 15 20 25 22 18 17 16 18 23 44 56 52 60 70 54 50 65 53 57 50 50
11 10 8 12 13 15 16 17 17 18 19 20 20 21 21 22 22 23 23 24 23 19 20 17 22 24 25 24 22 25 24 22 22 17 29 45 55 64 72 59 56 66 57 60
14 13 12 13 15 16 16 16 17 19 20 21 20 20 22 23 24 25 25 27 28 30 31 35 31 30 30 26 20 20 24 28 26 23 22 25 31 33 32 44 43 52 63 73
15 13 13 14 15 15 17 17 17 18 18 19 20 20 21 22 24 24 25 27 29 32 32 32 34 30 28 23 22 20 20 21 22 25 27 25 24 25 28 24 23 23 26 30
14 16 13 13 15 15 18 17 14 16 17 17 16 16 18 20 19 20 21 23 28 32 35 32 34 34 32 30 28 28 26 25 26 25 25 26 25 25 26 26 25 30 30 32

GFSCGP_500_spd_102.txt.gz
Wind_Speed
58 58 62 64 60 57 58 57 56 49 56 46 39 62 58 59 57 57 54 55 52 49 52 46 42 43 42 40 40 42 39 32 34 38 38 34 35 30 29 28 29 26 24 26
46 47 46 47 47 51 53 51 44 45 43 50 52 43 41 45 62 57 56 56 52 51 50 44 44 46 45 42 41 40 39 36 34 35 39 36 37 33 30 29 29 27 25 25
38 31 28 37 44 46 45 50 44 45 38 44 54 44 48 45 36 54 56 59 58 56 51 48 51 51 45 43 41 38 36 38 33 32 39 38 38 33 31 30 30 27 25 24
29 23 19 19 39 36 33 32 44 42 51 38 38 49 43 40 50 56 57 59 61 56 56 56 51 48 47 46 42 39 36 37 37 30 39 40 38 35 31 30 30 27 25 23
16 23 23 27 29 33 30 28 35 40 46 50 30 45 47 43 38 49 50 46 62 64 60 53 53 50 48 46 43 41 39 36 40 28 39 40 38 35 32 30 30 25 23 23
23 22 23 12 10 27 26 38 34 29 29 43 44 47 42 31 19 24 40 52 65 62 59 58 54 53 49 46 44 42 43 39 39 32 39 40 37 36 33 30 30 25 22 21
28 24 27 21 25 28 40 36 30 31 27 26 31 38 36 26 33 31 38 46 44 63 65 60 56 55 52 49 48 47 49 43 39 33 42 43 35 36 35 30 31 26 21 21
13 11 24 30 27 34 29 32 35 34 28 22 22 24 34 26 29 30 38 35 41 49 53 56 56 53 52 50 50 49 50 48 38 36 43 42 37 37 37 31 32 26 19 21
8 14 22 21 23 25 24 31 31 17 15 17 22 17 17 27 17 29 29 27 25 26 27 35 48 51 47 44 41 45 46 45 35 36 43 42 39 38 38 33 31 27 19 20
7 12 7 13 18 25 24 21 29 24 16 13 26 15 23 25 28 32 25 19 22 27 31 33 37 39 39 40 40 42 46 44 36 42 43 42 40 40 39 35 32 28 20 21
7 1 8 14 13 16 28 35 30 19 14 16 28 27 23 34 23 23 14 20 24 28 31 33 35 37 38 38 41 40 45 41 41 42 43 41 40 42 41 35 33 29 22 23
6 13 7 6 12 20 20 30 18 17 23 20 25 15 10 15 15 5 10 14 20 23 29 32 35 38 38 39 38 37 43 42 42 41 39 40 41 40 43 36 34 30 24 24
20 14 7 11 21 15 25 18 29 16 31 30 18 5 21 12 9 7 11 14 18 20 20 25 32 36 34 36 37 38 38 38 39 42 40 42 43 42 44 39 35 31 27 26
20 17 7 10 19 14 27 9 20 23 10 22 16 11 8 8 11 10 12 11 12 16 18 19 25 28 30 31 30 31 34 34 38 39 42 44 44 45 47 41 35 33 29 29
10 8 15 12 15 18 14 15 15 15 12 11 18 15 16 11 10 12 15 15 14 12 15 17 22 27 30 31 29 28 28 31 34 39 42 45 47 48 48 43 35 33 32 32
13 14 11 19 20 14 19 22 18 15 20 23 14 12 19 14 11 12 13 14 15 14 14 15 17 21 27 27 28 28 33 33 36 37 44 48 50 49 47 45 38 37 36 33
15 9 13 21 22 16 15 8 10 11 11 13 17 17 15 12 12 13 12 11 10 12 16 13 14 17 24 22 24 35 35 38 39 40 46 51 53 52 51 48 43 40 41 39
10 21 14 14 14 15 16 17 16 13 14 16 15 14 17 14 13 13 12 11 11 10 14 11 12 12 15 17 21 36 36 36 38 41 47 54 56 57 56 52 47 45 47 45
20 20 15 16 13 9 9 13 16 12 12 14 13 14 16 13 13 15 14 15 15 13 12 12 12 12 14 13 15 15 38 39 35 39 47 52 55 57 58 55 51 51 51 51
11 13 14 15 9 12 7 10 10 10 11 13 14 14 14 12 13 15 16 17 18 16 14 16 16 15 15 17 13 15 15 33 44 42 43 48 51 56 54 55 57 57 58 53
7 7 5 2 1 7 10 12 15 16 17 15 14 14 15 15 15 16 18 18 18 16 15 15 15 13 13 15 18 16 15 18 26 45 42 45 45 49 51 54 62 70 60 56
8 8 6 7 5 6 9 13 14 16 17 19 21 20 18 17 18 18 19 19 19 20 17 20 19 17 14 16 19 22 23 19 14 18 40 48 49 51 59 60 62 74 71 57
11 9 7 7 8 9 11 13 15 17 17 18 19 19 19 20 20 20 21 21 22 23 24 23 23 24 26 27 27 26 25 29 28 23 19 25 42 58 61 56 59 66 64 61
12 11 12 13 15 15 13 15 14 16 18 19 20 20 21 21 21 22 22 23 24 25 27 29 29 31 31 30 29 28 26 24 24 24 26 24 20 22 22 42 54 55 59 61
14 11 13 15 16 16 16 16 17 17 18 19 20 20 20 21 20 20 20 21 22 24 26 28 27 28 28 29 28 28 26 24 21 23 24 26 27 27 25 25 22 23 21 21
14 14 15 15 16 17 18 17 18 18 17 19 19 19 19 18 18 18 19 20 21 21 20 22 24 25 27 30 31 30 30 30 28 28 27 27 26 27 28 29 29 30 31 31

GFSCGP_500_spd_105.txt.gz
Wind_Speed
55 60 63 59 56 51 51 52 54 50 46 59 60 61 63 61 52 53 61 58 56 55 49 49 49 49 45 44 46 43 37 34 28 30 37 34 33 33 33 27 24 25 28 28
29 39 35 39 46 44 43 47 47 44 43 45 53 54 62 63 62 59 55 54 56 54 53 49 47 47 43 44 46 43 37 35 28 30 36 39 36 37 34 28 25 27 27 29
31 24 25 28 25 26 36 44 43 40 44 48 41 46 49 45 44 47 50 50 48 45 48 48 49 46 44 47 44 41 39 38 31 29 33 40 39 37 34 28 29 28 28 29
25 18 25 23 21 22 35 32 35 29 40 40 39 40 43 41 44 41 45 53 50 45 47 54 56 52 49 48 42 41 41 41 38 32 33 38 40 38 35 31 30 28 29 30
26 23 20 23 15 13 17 17 19 30 34 38 43 37 37 41 43 44 52 48 48 54 50 60 59 52 53 46 42 42 41 39 38 35 29 35 39 37 36 33 31 28 29 29
9 16 25 14 17 16 22 25 24 26 33 35 42 36 18 43 40 50 54 55 52 49 52 59 59 58 49 47 44 42 41 40 37 37 26 34 40 37 35 34 31 28 29 29
16 18 20 16 11 25 24 24 23 24 29 27 40 33 27 20 25 34 45 54 50 49 54 62 64 56 53 51 49 48 45 42 40 38 32 32 41 42 35 35 32 29 27 29
12 10 19 11 23 26 21 18 21 25 16 19 25 21 34 33 29 31 30 39 40 52 51 54 53 53 51 49 49 51 48 46 49 42 39 36 42 46 38 37 32 31 27 27
5 3 16 17 7 12 19 19 24 28 18 14 16 15 21 29 39 46 37 33 33 34 35 38 41 44 50 57 59 54 49 50 53 49 40 40 44 47 41 38 33 31 28 28
24 10 15 23 14 15 21 20 28 30 24 18 20 21 20 26 39 24 41 42 33 33 32 34 35 37 41 48 52 59 57 49 52 48 39 42 47 46 42 39 34 31 29 27
20 14 6 2 8 11 20 21 22 24 13 11 24 20 16 24 21 34 33 27 28 29 29 28 28 29 32 35 38 43 49 45 46 44 41 43 45 46 41 40 36 34 30 27
8 8 3 1 5 8 18 22 22 21 4 7 28 23 23 20 26 25 18 15 17 23 26 27 28 28 29 31 34 35 36 40 43 45 42 43 46 46 42 40 38 34 31 27
5 2 2 4 12 3 4 21 19 5 10 19 18 24 27 17 8 16 16 11 13 17 20 23 28 32 33 34 36 37 36 37 42 43 43 41 44 44 42 40 40 36 32 29
15 9 7 6 8 10 14 15 16 8 16 10 8 6 7 6 9 10 11 12 11 11 15 18 20 25 30 33 34 34 34 36 38 39 39 41 43 42 41 41 42 39 34 31
3 9 8 1 7 9 23 21 19 21 14 10 15 6 7 10 8 6 10 12 12 11 10 13 17 17 19 23 26 28 29 30 33 36 37 40 41 42 43 44 46 43 36 31
11 2 6 13 11 11 10 27 23 19 16 13 15 9 5 10 2 5 7 7 10 12 14 11 12 15 19 18 19 22 21 22 25 26 30 35 38 43 45 45 45 42 36 31
2 1 11 18 15 17 17 10 12 13 15 14 10 7 5 3 5 7 9 9 8 5 7 11 11 13 14 18 17 19 25 27 27 29 32 33 38 42 45 47 46 45 43 38
5 2 6 13 15 11 13 9 8 8 13 12 9 9 9 6 7 10 11 10 6 5 7 8 9 10 12 14 17 16 23 22 35 35 35 40 40 43 46 49 49 49 45 45
8 5 7 16 15 9 10 12 9 9 9 11 12 15 14 11 12 14 13 12 11 10 10 10 10 9 9 8 10 11 16 18 28 39 31 37 42 42 46 50 53 53 50 50
13 9 13 13 12 7 4 6 7 10 11 10 9 12 13 13 14 15 14 13 14 13 13 11 12 12 12 11 11 11 12 17 16 28 38 36 37 39 45 58 48 55 54 53
15 16 12 9 7 8 7 6 5 7 8 9 10 14 14 15 16 15 16 15 15 15 15 14 13 12 12 10 8 14 15 17 17 10 23 49 38 36 45 50 55 62 53 52
9 6 4 4 3 3 2 7 11 12 14 15 16 17 18 17 16 18 18 18 18 18 17 16 15 16 18 19 20 21 21 19 19 19 19 10 24 53 40 45 48 49 48 50
13 10 8 6 5 3 5 7 9 13 16 17 16 17 17 17 17 19 20 20 20 20 21 21 22 21 23 24 27 26 24 23 21 17 19 28 17 15 18 34 53 41 57 56
16 15 14 11 11 10 11 11 11 14 17 18 19 19 18 18 19 18 19 20 20 21 22 24 24 24 24 26 29 30 28 27 25 20 19 18 22 30 24 18 21 34 54 50
17 15 16 14 13 12 14 14 14 16 17 18 19 18 17 17 18 18 18 18 18 18 18 19 21 21 22 23 25 28 28 27 28 27 26 24 21 21 25 32 34 28 25 22
18 18 16 15 14 14 16 16 16 16 17 17 17 18 18 17 18 19 17 17 18 19 19 19 20 21 21 22 24 25 26 29 32 33 33 33 30 28 28 29 30 32 35 35

GFSCGP_500_spd_108.txt.gz
Wind_Speed
69 63 53 40 41 43 45 49 58 62 64 66 67 70 69 72 69 67 60 60 66 66 62 55 52 49 45 49 47 42 39 39 35 34 31 35 33 33 31 28 27 26 27 28
49 44 27 30 33 32 40 40 39 44 44 55 56 60 62 66 68 66 64 59 57 59 62 63 58 55 51 48 50 45 44 40 38 36 31 33 37 35 32 31 28 26 27 30
39 16 30 33 33 34 30 34 34 33 37 43 34 45 53 58 61 63 62 54 54 53 60 63 59 59 56 51 52 50 47 43 38 36 35 30 33 36 34 31 32 29 30 30
32 21 26 26 30 30 16 23 22 21 29 35 32 36 33 34 50 48 53 42 51 47 55 59 59 59 56 53 50 50 45 42 39 36 34 29 32 37 36 35 36 32 30 30
23 25 30 28 24 15 4 9 15 18 25 29 35 30 32 30 30 39 38 47 52 54 49 52 55 56 56 58 52 48 43 40 37 32 34 33 29 32 36 35 37 35 32 31
22 19 3 5 5 5 9 16 13 12 22 28 27 31 24 27 31 41 46 51 56 54 56 53 46 51 53 55 52 46 44 40 37 34 33 30 33 31 36 35 38 36 34 33
10 7 4 3 9 16 14 18 15 15 20 19 17 25 25 32 27 42 46 49 48 51 55 51 57 55 54 50 49 49 45 44 44 40 38 31 33 36 38 38 39 37 33 33
11 9 6 8 9 16 15 16 20 0 13 12 17 15 20 27 18 35 48 48 53 54 53 56 59 57 55 54 54 53 47 46 46 46 42 36 31 34 40 41 38 38 35 35
26 6 2 5 13 9 14 11 7 4 8 6 10 10 16 23 21 28 28 46 53 50 54 58 60 59 58 53 47 48 51 49 47 49 47 45 29 35 41 44 42 41 36 36
23 6 6 2 1 5 11 13 11 12 14 9 10 11 20 16 18 22 18 24 25 45 48 46 54 51 50 47 48 51 52 51 48 49 55 48 40 43 47 47 48 42 38 38
16 10 4 3 3 5 13 13 13 15 18 16 6 18 25 24 30 23 20 38 32 26 32 34 40 45 46 47 49 49 48 51 55 59 61 54 44 48 48 48 48 42 38 40
15 14 5 7 9 10 10 17 16 18 20 17 11 16 25 25 33 27 27 29 34 33 28 30 36 38 37 37 37 38 40 41 46 53 54 54 55 53 47 47 46 42 41 41
14 11 9 5 0 6 7 13 13 0 4 6 21 22 21 16 30 28 27 33 21 18 27 30 30 32 35 35 34 34 35 34 39 47 48 50 53 51 50 46 45 43 42 43
17 19 14 9 3 5 2 7 13 5 7 23 20 21 18 13 18 24 19 18 15 13 15 16 18 22 26 28 29 30 31 33 34 36 37 38 45 49 46 44 43 42 43 45
10 8 4 6 6 5 6 10 4 4 18 14 12 4 15 18 16 14 13 13 13 12 11 11 14 18 19 20 23 29 33 35 36 36 38 41 42 42 41 43 42 42 44 46
12 5 6 3 7 3 5 4 3 7 20 21 15 14 17 12 8 7 5 6 7 8 10 13 15 16 16 16 17 20 24 29 32 35 37 37 40 38 39 40 42 42 43 44
8 24 15 17 17 16 18 20 11 17 13 7 10 8 9 9 9 4 3 3 4 6 5 6 7 9 13 15 14 14 17 22 26 31 32 31 29 34 38 38 35 40 37 41
8 11 13 16 18 14 14 8 6 11 6 2 2 2 0 1 6 4 2 3 3 5 5 7 7 7 8 10 11 12 13 15 19 29 30 29 32 35 35 39 45 43 48 46
12 4 12 13 15 13 12 9 8 8 6 5 6 6 6 8 8 4 7 8 8 8 8 9 12 12 9 8 7 7 9 12 15 21 28 32 36 35 37 42 43 41 50 51
7 5 11 17 19 16 14 10 9 7 5 5 6 6 7 9 8 9 11 12 12 11 13 14 13 13 12 9 7 9 8 10 9 15 23 25 37 39 38 43 42 43 47 47
19 21 17 15 14 11 10 7 4 5 6 5 5 6 8 9 10 11 12 14 14 15 16 17 17 16 15 14 14 13 13 14 13 10 10 16 21 35 41 45 50 55 49 49
18 18 16 15 13 8 4 3 5 6 7 8 11 13 14 15 16 16 16 17 18 19 19 19 19 19 19 18 19 19 19 18 18 18 17 13 14 16 32 34 33 48 48 50
14 14 13 11 9 8 6 2 2 4 8 10 13 14 15 16 17 18 20 21 22 22 22 23 23 23 24 24 24 24 22 21 21 23 22 19 18 19 23 18 14 35 44 38
14 14 15 13 12 9 7 6 6 6 9 11 14 16 18 19 19 19 20 22 22 23 23 24 24 26 25 24 24 24 25 24 23 25 25 23 21 21 22 23 27 25 20 21
15 15 17 17 15 13 11 9 8 10 11 14 16 17 18 20 20 21 21 21 22 23 23 22 22 22 21 20 19 19 20 22 22 24 27 29 29 27 27 27 25 23 28 30
18 20 19 19 18 15 13 10 10 11 13 16 17 18 18 19 20 19 20 20 20 21 22 23 23 23 24 23 23 23 24 24 24 25 26 28 30 34 36 35 34 34 33 30

GFSCGP_500_spd_114.txt.gz
Wind_Speed
58 63 70 75 78 79 83 78 70 66 56 60 72 62 63 69 87 102 107 100 89 74 64 72 75 76 76 73 69 64 52 50 46 45 36 34 33 33 33 31 29 29 30 30
60 66 69 67 54 51 55 56 56 52 46 49 54 57 57 56 53 67 89 97 90 72 68 69 75 78 77 75 71 66 58 51 48 48 42 40 36 35 37 33 30 30 32 31
59 54 43 41 40 47 41 40 42 43 36 37 44 48 40 22 31 41 53 74 85 71 67 67 71 74 75 74 73 69 65 52 51 48 46 41 39 37 37 36 34 35 34 34
41 36 37 40 38 42 39 36 31 27 36 37 33 42 28 24 18 20 30 56 71 70 66 66 70 73 74 74 72 69 65 52 50 50 46 43 40 39 39 38 38 39 39 37
30 30 32 33 34 38 34 33 30 32 29 31 14 31 10 6 7 10 17 35 53 63 64 67 67 71 71 72 71 70 66 55 51 47 44 42 43 40 42 39 37 39 43 36
27 29 28 21 28 33 26 24 21 22 28 22 22 12 4 2 5 6 8 24 42 51 58 62 62 68 71 71 70 68 65 56 50 46 47 41 41 38 39 40 41 41 41 40
24 29 25 22 23 25 21 21 18 24 24 20 20 9 11 5 12 3 4 16 33 40 47 55 58 61 68 71 69 67 63 58 54 51 50 46 42 40 40 37 38 34 44 39
22 23 17 20 21 22 19 20 28 38 37 22 8 8 8 5 10 11 5 8 20 35 38 43 53 57 61 61 65 67 65 61 54 48 49 46 42 42 43 42 40 37 34 39
18 15 19 23 23 22 21 22 24 27 22 16 3 12 14 10 5 6 7 12 17 26 33 39 46 53 55 57 58 61 62 59 55 52 49 47 48 46 46 44 40 39 39 41
21 14 22 23 20 22 23 21 21 22 24 22 15 20 18 9 10 10 18 22 21 21 33 34 41 47 49 53 54 53 53 54 50 46 50 50 52 52 52 49 43 42 43 46
23 20 18 22 22 26 26 21 21 21 22 19 16 25 19 8 8 9 9 14 17 22 28 32 35 39 41 45 48 49 49 47 46 45 45 47 48 51 48 50 47 48 49 49
25 25 23 22 22 21 19 22 19 18 14 13 17 19 6 9 9 15 14 7 20 19 19 29 31 34 46 47 48 46 52 48 48 47 47 45 44 45 47 51 52 50 53 51
20 20 24 19 16 14 16 16 9 11 12 9 12 7 11 10 10 9 6 7 10 31 28 27 34 30 39 34 39 44 48 47 44 45 47 45 46 47 46 48 50 52 54 53
17 18 18 15 17 16 12 13 8 9 13 7 3 7 4 12 15 16 13 10 12 19 36 29 33 40 39 43 42 41 39 47 48 46 51 51 52 50 49 50 48 50 54 55
15 11 9 9 10 10 8 5 5 8 9 10 13 10 11 12 15 13 14 16 18 17 23 24 6 4 4 4 9 15 18 21 25 32 37 42 45 45 42 39 44 43 47 49
10 5 5 6 8 10 2 3 4 4 16 16 16 14 16 13 13 11 9 14 14 16 13 9 7 5 5 6 8 15 19 22 25 29 33 35 38 41 37 39 39 39 37 37
11 8 6 5 6 11 5 9 13 13 12 12 11 11 15 11 8 8 6 8 9 9 8 9 6 4 4 6 9 12 15 16 21 24 28 32 35 37 37 38 36 37 38 38
12 15 9 13 15 15 21 18 11 7 5 6 7 9 6 7 7 6 4 4 5 6 5 4 5 4 3 2 4 5 6 9 11 14 17 21 27 32 35 37 38 39 39 38
15 21 13 10 12 13 14 7 3 0 2 2 2 2 2 1 2 3 3 4 3 2 1 3 4 5 4 5 7 8 10 12 12 12 13 13 17 20 28 33 35 37 36 39
15 14 16 18 18 15 14 10 9 7 6 5 3 3 5 4 4 6 9 8 8 7 6 7 9 10 9 10 12 12 13 14 14 15 15 16 17 18 18 22 26 32 35 38
14 12 15 18 20 17 17 13 10 8 8 7 6 6 6 6 7 8 9 9 11 10 9 11 12 13 13 14 16 17 17 18 20 21 24 24 23 22 21 21 22 25 30 36
19 18 16 16 21 21 18 16 10 10 9 8 7 8 7 8 10 10 11 11 12 12 14 15 17 18 19 20 21 22 24 24 24 24 25 26 27 28 27 26 24 25 26 30
21 19 22 21 20 23 19 12 10 11 13 12 10 10 10 10 11 12 12 12 12 13 14 16 18 20 21 22 23 25 26 27 27 28 28 28 29 29 30 31 30 29 28 25
18 14 17 19 18 18 16 13 12 10 10 9 8 8 8 10 11 13 14 14 15 16 17 20 22 23 24 26 28 29 29 30 31 31 32 32 32 33 33 32 32 32 31 31
17 12 9 13 12 10 11 12 11 10 9 9 9 9 9 10 13 15 17 19 20 21 23 24 26 27 29 30 31 33 33 34 34 34 35 36 36 36 37 37 36 36 37 36
16 15 10 8 8 7 8 10 11 11 11 11 8 8 11 12 14 16 19 21 22 23 26 28 29 30 32 33 34 35 35 36 37 38 39 39 40 40 40 41 41 41 41 41

GFSCGP_500_spd_117.txt.gz
Wind_Speed
40 45 51 55 59 63 66 68 72 73 73 80 75 68 56 54 70 64 76 84 96 106 96 86 76 74 75 75 75 70 66 65 61 48 46 40 39 40 36 34 31 28 25 27
41 47 52 56 59 58 55 58 60 62 48 43 38 44 43 43 42 47 46 57 69 78 94 93 81 78 79 78 75 72 69 67 63 53 49 46 44 41 39 37 34 28 28 29
43 46 53 55 49 47 45 50 39 25 21 28 33 27 20 25 27 22 29 32 41 61 76 86 87 81 82 81 78 73 71 69 65 58 54 53 46 41 39 37 34 32 32 33
42 50 47 39 34 38 37 28 16 25 34 35 37 26 14 16 14 18 20 24 24 31 45 61 77 81 78 79 79 75 72 71 68 66 57 51 45 39 38 40 38 37 36 36
46 45 34 30 33 35 24 19 22 33 41 38 32 30 22 27 28 23 24 23 19 12 18 41 69 78 74 73 76 76 73 71 69 68 54 49 45 41 42 41 40 40 38 39
42 35 27 31 29 29 25 21 23 33 33 29 37 29 22 27 25 32 38 14 4 8 21 40 62 63 67 72 72 71 70 70 66 68 61 52 50 44 39 39 38 42 44 41
34 31 28 28 25 27 27 29 29 23 34 40 26 22 31 31 30 29 27 4 5 4 13 27 51 55 59 66 69 70 70 68 66 62 57 53 51 49 40 42 37 41 43 42
32 23 25 25 27 23 23 24 27 33 34 34 21 32 36 32 19 19 20 14 7 11 12 21 42 48 55 64 67 69 67 65 64 59 54 53 51 48 41 42 41 42 43 42
33 18 21 21 26 22 22 24 25 29 31 31 29 32 38 27 21 10 10 9 1 2 13 17 34 43 48 59 67 66 66 65 61 59 54 49 51 49 46 44 44 45 44 45
30 23 19 21 25 24 26 21 23 25 29 27 28 34 29 20 20 18 20 11 13 4 7 22 26 39 43 49 59 64 65 63 61 59 55 51 51 49 44 46 47 46 45 46
27 24 20 23 27 27 21 21 23 23 20 19 22 32 20 22 23 21 16 10 8 21 13 16 28 32 39 44 49 54 57 60 60 59 57 55 54 56 51 48 49 49 50 47
23 24 24 18 23 21 16 16 18 19 15 13 13 21 15 15 17 19 19 8 1 4 12 16 20 26 32 40 46 47 49 50 50 52 53 52 49 51 56 55 52 50 51 53
20 23 26 16 19 15 14 16 15 12 11 11 11 15 12 14 12 21 21 16 5 20 14 13 14 17 25 33 40 42 45 47 49 46 46 46 49 51 47 44 41 45 48 46
18 22 22 16 18 8 10 10 5 11 9 10 10 3 6 11 15 13 13 19 19 15 22 22 18 20 25 30 35 39 40 34 41 47 44 44 43 44 44 46 46 45 45 46
18 18 18 11 13 9 12 9 11 6 4 3 8 9 6 9 13 13 18 16 15 15 16 15 8 9 10 31 31 34 38 37 35 39 42 44 47 46 45 49 49 48 48 49
17 14 13 7 14 14 9 1 1 2 3 6 8 7 6 7 9 13 10 12 14 15 15 14 12 10 7 9 6 14 13 16 23 26 28 34 47 50 49 47 46 48 49 48
17 15 12 6 10 9 7 11 10 11 10 13 11 9 9 8 6 7 7 5 7 11 14 14 12 9 7 5 2 3 6 12 14 16 20 25 30 35 38 40 43 46 44 42
18 17 13 9 14 11 11 13 10 10 8 8 8 6 7 6 4 4 5 3 3 5 6 9 5 5 6 6 6 4 4 6 9 12 14 17 20 23 29 35 39 42 43 43
21 19 19 19 19 16 16 9 6 6 5 3 3 1 1 1 1 1 2 3 3 2 2 1 1 2 2 3 3 4 6 7 7 9 9 10 11 11 14 18 24 30 35 39
23 22 23 27 22 19 16 15 12 8 7 7 6 4 4 4 5 5 6 5 6 4 4 4 4 5 7 8 8 9 11 13 14 14 16 18 18 16 16 16 17 20 23 27
22 23 23 22 25 21 20 19 14 9 8 9 9 8 7 6 6 7 6 7 7 7 6 6 6 7 8 9 11 13 15 16 17 18 20 22 22 22 22 22 22 22 21 22
24 21 21 20 25 25 19 18 15 13 10 9 11 10 9 9 9 9 9 10 10 11 12 13 13 14 15 16 16 18 19 19 21 22 23 25 25 27 27 26 26 26 26 26
21 21 21 17 22 26 26 21 19 18 14 12 11 11 12 11 10 9 9 10 11 13 14 15 16 17 18 18 18 20 22 23 25 25 26 27 28 29 30 30 30 30 30 30
14 16 15 12 21 22 27 25 21 15 15 14 13 12 12 11 10 9 10 12 13 14 16 18 20 21 22 23 23 25 26 28 30 31 32 33 33 33 34 33 33 34 35 36
17 12 10 11 16 20 22 22 20 14 12 12 11 10 10 9 8 8 10 12 15 17 19 21 23 25 27 28 29 30 30 33 35 36 36 37 38 39 40 40 39 40 40 40
23 15 10 9 9 16 18 18 15 12 12 10 11 12 10 10 12 12 15 18 21 22 25 27 30 31 32 33 34 35 35 37 38 38 39 40 40 40 41 42 43 44 45 46

GFSCGP_500_spd_120.txt.gz
Wind_Speed
30 31 32 38 42 46 49 52 54 56 59 59 48 40 47 59 53 52 55 57 62 70 77 92 100 86 84 81 77 74 75 70 69 67 62 59 46 42 36 36 39 37 33 29
27 30 35 39 44 48 52 53 51 51 40 34 28 24 32 27 18 29 26 22 26 33 47 63 81 82 91 85 83 80 77 74 72 68 64 56 51 45 42 41 42 40 34 30
27 33 37 41 47 50 48 43 41 34 24 28 29 23 30 21 27 31 34 35 34 41 39 37 52 70 78 85 90 86 81 77 74 70 66 62 56 52 48 41 40 40 37 34
29 35 37 41 48 49 40 34 35 25 24 27 31 27 33 30 33 33 37 40 49 41 40 43 40 54 70 86 92 90 85 80 76 71 68 64 59 52 46 40 40 43 40 37
31 34 37 43 47 40 33 33 33 26 27 30 35 34 31 39 37 31 32 32 35 35 30 29 33 39 55 89 94 92 85 80 76 73 67 64 62 59 50 47 45 45 45 42
31 33 37 43 43 30 30 31 34 29 25 26 34 37 41 46 39 26 28 31 30 17 15 14 16 27 42 79 84 88 83 77 75 71 69 69 60 60 52 49 48 44 47 46
30 35 37 42 32 27 28 30 29 26 28 24 36 34 38 43 39 35 26 24 24 13 11 8 1 11 28 51 68 75 76 74 71 71 70 67 69 48 48 52 50 46 43 37
29 35 36 35 27 25 26 26 27 27 26 29 31 27 36 39 34 38 35 30 11 8 10 4 7 12 30 40 57 60 69 70 71 71 70 68 60 51 51 48 45 43 38 40
29 31 32 28 26 22 24 26 29 26 25 31 30 26 33 32 35 36 34 26 9 5 5 2 4 18 33 40 49 52 62 66 69 71 70 64 60 52 43 46 46 44 43 40
28 30 27 24 22 20 24 29 27 23 21 24 26 26 29 28 29 30 30 21 9 6 13 10 9 18 33 39 49 51 56 56 66 63 55 63 63 52 49 45 48 47 46 43
27 28 19 20 20 17 23 27 24 20 16 18 19 23 29 27 23 27 31 20 7 12 9 14 15 18 25 43 41 34 45 52 59 66 65 58 56 57 45 43 48 45 44 46
26 27 17 17 19 16 23 27 22 19 16 16 16 19 22 25 19 24 28 21 9 3 3 9 16 22 23 31 41 50 38 55 47 44 46 47 44 47 46 45 49 50 48 49
24 24 16 16 16 17 23 20 16 14 13 15 13 15 16 17 19 21 27 24 9 3 7 16 9 19 25 30 34 42 51 43 38 46 47 45 46 47 47 49 51 54 56 55
24 23 14 16 16 14 17 20 20 12 12 12 11 13 10 10 13 21 24 23 17 5 10 12 12 12 21 30 35 38 41 42 41 40 41 46 49 50 51 49 48 50 50 48
23 20 15 15 15 14 16 16 11 7 9 5 6 8 4 5 9 15 19 22 18 15 11 12 6 12 21 24 33 36 41 42 43 43 44 44 45 45 45 43 45 49 51 49
21 17 14 15 14 13 13 10 6 5 6 4 6 7 4 1 4 8 15 16 16 14 13 15 16 12 9 15 23 25 34 35 36 37 38 31 35 42 47 49 49 47 50 51
20 17 13 14 13 10 6 7 10 7 6 6 8 11 10 5 4 6 10 13 14 13 13 15 17 14 13 13 12 13 27 34 34 36 36 31 30 37 46 48 52 55 55 54
21 18 17 17 15 14 11 14 13 13 10 11 11 10 11 7 2 2 3 5 6 10 11 12 13 12 11 10 10 9 9 10 11 12 16 15 19 21 24 29 34 40 48 52
18 21 22 20 20 22 18 17 15 14 13 12 9 9 7 6 4 3 3 4 5 6 7 5 4 4 5 6 5 4 1 2 4 5 6 10 11 12 14 14 18 24 30 37
20 23 26 27 25 28 26 21 19 20 17 15 13 12 11 8 5 5 5 3 3 4 2 4 5 4 3 3 4 6 7 8 9 11 12 16 17 18 19 19 19 19 19 21
23 25 28 30 28 31 28 23 21 20 18 16 14 12 10 9 9 8 7 6 6 6 6 5 5 6 6 8 9 10 11 13 15 17 18 20 21 21 21 21 23 24 25 25
27 27 28 28 28 30 31 25 26 24 23 19 16 15 14 12 11 10 10 10 10 9 9 9 9 9 10 11 13 14 14 16 18 19 21 23 25 26 26 27 27 27 28 29
26 26 27 26 27 25 26 28 27 27 24 19 15 15 13 12 12 12 12 12 12 12 12 12 13 13 14 16 17 18 19 21 22 24 25 26 28 29 30 30 31 32 32 32
21 19 16 19 19 19 21 28 30 27 25 21 17 17 15 14 13 13 13 12 11 10 11 12 13 15 16 18 21 23 25 27 30 32 32 33 35 35 37 38 38 39 39 40
16 14 12 12 15 17 23 26 30 31 22 16 16 16 14 13 13 12 11 10 10 13 15 17 19 21 23 26 29 30 32 33 35 38 40 41 43 42 42 43 42 43 44 44
13 19 17 10 10 16 19 18 19 20 19 16 15 14 14 13 12 12 12 14 16 18 21 24 26 29 32 34 36 38 40 41 43 44 45 46 46 47 47 47 45 46 47 48

GFSCGP_500_spd_123.txt.gz
Wind_Speed
39 39 38 32 31 32 35 40 46 51 55 55 53 52 52 41 47 43 35 33 36 37 41 52 72 82 72 79 86 81 82 77 72 68 67 67 64 61 52 45 45 38 37 35
42 40 35 31 30 34 38 42 46 52 53 53 45 36 39 29 36 40 39 47 46 39 34 37 42 47 64 65 82 89 90 81 76 72 69 70 68 63 56 46 46 42 40 37
42 37 31 29 32 35 39 44 50 51 49 39 38 32 25 32 32 38 49 52 48 46 44 44 44 51 58 55 64 84 89 87 82 78 73 74 72 68 61 54 47 47 42 39
39 33 30 30 33 37 40 47 49 42 37 39 35 35 29 37 41 43 51 45 50 47 46 49 49 53 57 59 56 73 91 95 88 83 78 75 73 68 60 56 48 47 44 39
37 31 29 32 34 38 43 48 43 32 37 40 25 33 24 38 41 45 50 39 37 41 43 43 45 46 49 54 60 61 89 98 92 84 77 73 73 70 65 58 52 49 47 45
32 30 30 33 36 39 45 46 32 29 34 30 22 24 33 41 41 50 47 45 46 45 39 38 37 30 27 32 44 54 85 95 95 87 79 74 73 72 71 63 59 56 50 49
31 30 29 31 36 39 44 37 25 25 29 29 25 32 39 41 42 45 44 40 43 37 29 29 27 25 21 24 27 41 77 90 90 88 82 77 75 70 71 68 64 62 54 51
32 30 28 30 34 38 44 32 27 32 31 32 26 34 37 34 39 42 44 47 35 24 25 28 25 17 22 15 12 24 57 79 86 85 80 77 78 73 69 66 50 78 54 50
30 28 28 29 33 37 38 25 24 30 32 32 25 27 34 30 36 39 41 46 29 16 16 19 10 18 1 4 15 17 37 68 78 79 77 76 74 72 71 69 68 52 62 56
28 26 26 28 33 38 29 25 23 26 32 27 20 31 28 29 34 40 39 36 22 9 10 14 6 5 7 3 18 16 37 62 65 74 76 75 71 72 74 62 72 71 49 48
27 23 23 26 31 28 29 21 22 24 25 28 25 28 29 30 29 32 32 29 15 7 9 10 3 6 9 9 15 23 32 55 57 58 61 71 72 72 77 66 45 47 39 37
24 21 22 25 31 28 23 22 21 23 22 24 28 34 27 26 22 28 30 30 17 12 10 4 5 3 10 18 8 23 26 36 50 48 63 66 70 71 77 50 35 35 33 34
22 18 19 26 25 23 21 20 23 21 24 21 24 28 22 20 20 20 27 28 18 11 4 4 0 4 4 14 31 17 39 43 43 49 51 60 61 63 37 37 38 42 37 39
22 18 18 21 24 24 20 20 25 21 28 21 21 19 17 13 13 15 20 25 24 14 7 8 7 1 7 11 26 19 15 25 41 22 32 61 68 68 65 60 44 39 45 44
21 18 18 20 22 22 19 19 24 21 19 18 14 14 14 12 10 15 18 18 21 19 13 8 6 7 6 13 17 19 18 19 16 20 19 41 48 51 58 45 41 49 43 44
20 18 19 21 21 22 22 19 20 17 16 14 11 11 12 11 11 14 11 12 15 13 13 14 7 11 16 22 20 22 23 26 24 23 23 27 34 41 42 39 39 40 40 45
19 19 19 20 22 22 21 19 21 16 14 14 13 12 15 16 12 9 9 10 13 16 15 8 12 15 10 14 18 20 21 22 28 30 30 32 31 33 38 36 39 43 46 49
20 20 20 19 22 24 19 24 21 18 16 16 15 13 15 18 18 10 7 5 7 11 12 14 14 15 15 15 13 12 19 24 22 27 32 25 28 30 31 32 34 37 43 49
20 21 23 23 23 25 26 24 23 20 19 21 21 17 15 11 12 12 10 8 7 4 5 7 7 7 8 9 9 8 7 6 10 10 11 17 16 20 24 28 27 28 29 32
21 23 26 27 27 29 30 29 29 23 24 23 23 19 16 15 14 11 9 8 6 5 6 6 5 6 5 3 2 2 2 3 4 7 11 14 14 18 20 22 22 23 25 25
23 27 29 30 32 36 36 34 32 31 28 25 26 23 19 18 15 12 10 9 9 8 8 9 10 8 8 9 10 9 9 9 10 12 14 15 18 20 23 24 25 26 28 29
27 30 30 32 33 35 31 34 35 31 28 27 24 23 20 18 16 14 13 12 12 10 10 10 10 10 11 11 12 12 13 14 15 17 19 20 22 24 25 27 29 30 31 32
27 30 31 32 32 32 32 32 31 31 30 30 29 28 24 19 16 16 15 14 12 12 12 11 11 11 11 12 13 15 17 18 19 20 22 24 26 28 29 31 32 34 36 37
27 28 29 28 26 27 27 28 27 29 31 32 29 29 25 20 19 18 16 15 14 13 11 10 10 11 13 15 16 18 22 24 25 28 30 33 36 37 38 40 42 43 44 46
24 22 22 19 16 16 18 20 23 28 30 30 29 28 25 21 20 19 18 16 15 12 11 12 13 15 17 20 23 27 30 32 34 37 39 41 44 46 48 50 52 51 52 53
16 15 17 19 14 12 15 18 17 18 21 24 24 23 20 19 19 18 17 15 14 13 15 16 18 22 25 28 32 36 40 42 45 47 48 49 50 51 51 51 51 50 52 52

GFSCGP_500_spd_126.txt.gz
Wind_Speed
37 41 39 39 45 47 43 38 40 40 42 47 51 52 54 50 54 64 45 38 41 45 46 53 58 54 54 49 45 63 74 77 79 77 75 71 68 66 64 62 54 49 46 39
42 41 42 42 45 44 38 37 38 40 44 48 54 53 57 36 51 57 24 40 41 46 51 55 49 47 49 46 47 43 60 77 84 84 80 77 72 70 66 64 61 53 47 42
44 45 44 44 43 39 38 36 39 40 44 49 54 51 42 36 45 40 39 45 48 50 56 53 49 44 50 52 53 51 50 58 84 89 89 78 77 72 68 69 67 56 51 46
47 46 46 44 40 38 37 37 38 41 45 49 44 45 37 28 42 34 38 49 51 57 56 54 55 54 51 56 56 57 57 63 63 89 94 87 79 76 70 68 67 58 55 50
43 45 43 41 38 35 34 36 39 42 47 52 35 29 31 39 33 35 43 50 55 57 55 53 54 48 45 45 51 54 44 57 69 66 93 92 84 79 69 68 67 62 58 52
42 43 43 37 35 32 34 35 38 42 48 46 25 34 40 35 27 44 46 49 54 54 53 46 40 38 40 41 47 47 61 52 63 68 81 95 89 79 72 66 70 63 59 54
42 39 38 35 32 32 34 36 38 43 46 34 25 30 40 40 36 40 47 50 54 55 55 33 33 34 37 39 46 50 46 39 51 68 68 96 88 81 76 72 75 71 62 55
40 40 40 33 29 29 30 33 37 44 40 29 23 37 33 28 29 37 43 49 52 55 40 25 26 33 34 26 26 33 30 30 37 65 61 92 91 84 76 81 76 82 70 61
40 37 36 30 26 26 29 31 38 43 31 26 26 28 30 30 32 36 42 44 51 39 22 23 26 29 29 33 29 25 22 9 21 51 53 89 91 85 86 59 49 91 77 65
34 31 28 25 25 26 27 31 37 36 27 25 25 30 28 28 32 36 37 40 41 30 23 25 21 30 28 32 16 15 3 10 3 19 47 86 86 79 59 75 83 52 66 54
30 28 25 24 23 24 26 31 40 27 25 30 29 28 31 33 36 35 34 36 36 29 26 17 18 14 23 22 30 8 28 5 9 14 53 78 81 79 82 65 74 50 75 69
34 24 22 22 22 20 24 29 33 28 27 26 28 31 29 31 31 30 28 32 33 24 18 16 20 18 19 16 12 16 10 11 7 21 54 71 72 78 52 47 78 44 63 65
27 20 22 19 20 19 20 27 31 28 28 24 27 26 25 28 23 22 23 29 32 30 17 17 17 18 16 15 12 11 3 10 16 28 53 45 61 65 59 61 67 77 69 75
22 19 21 17 20 19 22 25 32 27 27 28 27 20 22 23 20 20 24 28 27 26 25 14 12 10 9 9 5 25 4 12 12 17 27 45 60 46 49 61 66 74 72 59
21 21 23 17 20 19 21 24 30 30 27 28 27 19 19 20 19 22 23 20 15 18 20 22 17 11 12 6 15 13 17 7 4 25 34 15 19 25 39 65 54 27 33 30
23 24 23 16 19 19 21 22 26 27 27 28 25 20 17 17 18 20 19 13 10 14 14 12 14 15 9 9 6 5 7 7 9 8 14 21 26 11 7 10 18 29 37 35
24 25 22 17 18 21 22 19 24 27 28 27 22 21 17 16 17 21 21 16 13 12 14 13 12 14 15 13 8 3 9 4 6 7 17 17 14 15 16 16 18 18 22 20
25 24 22 18 20 24 23 22 23 28 32 28 23 18 19 17 18 20 18 17 14 11 10 13 14 16 18 21 18 14 8 5 8 15 14 13 14 16 17 19 23 24 23 23
25 22 21 22 21 25 26 27 29 30 32 30 24 21 22 22 22 17 16 16 12 9 8 9 9 10 12 12 13 14 14 8 3 3 3 4 6 8 10 16 20 22 25 25
23 20 24 22 24 28 30 30 32 34 37 30 27 24 24 24 22 20 17 15 12 10 8 7 6 7 9 9 10 10 8 7 6 7 6 6 8 10 11 14 18 21 23 23
21 23 24 24 28 32 34 35 35 37 37 33 32 28 27 26 26 21 18 16 14 11 11 10 9 8 8 9 8 7 8 10 10 11 12 13 14 16 18 20 23 25 26 27
22 24 25 28 30 35 35 37 39 37 36 36 32 29 30 26 27 21 18 16 15 14 12 11 11 11 9 8 8 8 8 10 11 13 15 16 18 18 19 22 24 26 27 29
24 25 25 29 33 35 38 40 39 35 36 32 30 29 30 28 25 22 20 18 16 16 14 13 12 11 11 11 9 9 9 11 13 15 18 20 22 24 28 31 34 35 37 38
22 25 26 28 29 33 37 37 34 30 31 29 28 29 31 29 27 25 21 19 18 18 16 14 12 11 11 11 12 14 16 19 22 25 27 30 33 36 39 42 45 47 49 51
20 24 24 27 28 30 27 24 21 21 23 24 27 28 28 26 28 26 21 19 18 17 15 13 12 13 14 15 17 20 23 27 29 33 36 39 43 47 50 52 54 56 58 60
21 21 23 24 24 24 20 18 16 16 16 16 17 19 21 23 23 22 18 18 17 16 14 14 14 15 17 20 23 26 30 33 38 41 42 42 44 46 48 50 52 51 52 54

GFSCGP_500_spd_129.txt.gz
Wind_Speed
44 43 39 40 41 41 42 45 44 46 43 43 43 42 46 51 54 56 58 59 51 38 41 44 45 47 47 54 57 51 53 61 60 72 77 75 75 71 71 64 61 59 59 56
45 45 44 44 43 43 44 46 45 47 45 44 44 42 47 50 56 59 60 47 32 36 41 45 47 50 55 58 54 51 45 44 47 45 67 81 79 78 74 71 65 62 63 59
49 47 45 45 44 44 45 43 40 41 41 42 41 42 43 54 56 51 43 32 33 38 46 49 50 58 58 58 56 57 53 49 50 48 47 54 84 81 77 73 69 67 66 64
57 48 42 43 44 43 45 42 42 38 40 38 45 41 40 50 49 43 42 45 34 45 50 54 60 64 63 60 57 50 49 53 53 53 52 50 63 87 81 78 75 71 68 67
53 46 41 41 38 42 42 41 38 36 35 37 37 40 45 46 43 38 42 47 43 45 52 56 61 60 52 38 37 34 38 43 46 48 50 59 59 77 87 83 81 74 67 70
36 35 40 37 35 36 34 34 34 35 35 37 38 40 45 39 32 43 40 37 41 45 52 54 52 36 28 32 31 40 37 39 47 54 58 57 60 60 88 87 83 78 72 69
33 32 34 37 38 30 32 32 33 33 35 39 36 38 42 31 33 32 32 35 40 47 50 54 38 32 34 33 36 39 38 42 52 49 50 54 69 67 82 89 85 80 77 70
36 33 37 38 38 30 31 31 32 31 32 36 29 33 31 28 29 31 32 40 44 47 50 49 41 41 32 32 29 34 34 32 40 50 53 54 55 70 76 92 89 87 82 82
39 33 40 42 41 24 26 28 29 30 33 34 33 28 27 28 29 32 36 42 44 43 49 43 30 27 27 31 27 31 25 28 23 30 40 49 49 65 71 93 93 89 76 81
47 47 38 42 34 23 25 27 28 31 31 33 29 29 29 31 31 32 38 37 39 39 44 42 27 27 30 34 30 37 26 28 20 21 18 20 36 60 65 88 91 83 76 73
35 39 35 38 30 26 26 27 30 26 28 30 33 27 28 30 33 34 35 31 31 36 42 40 28 26 25 27 26 32 40 26 19 17 7 10 29 44 55 74 83 79 68 48
36 31 23 30 21 27 29 28 27 23 25 27 30 31 31 31 27 30 26 27 32 38 39 36 26 15 23 26 26 20 36 36 32 34 17 10 34 26 40 66 76 74 79 74
25 32 32 18 22 20 26 28 21 23 27 24 30 28 28 29 28 25 22 25 32 35 31 33 30 23 21 24 22 26 30 27 22 22 5 13 14 29 42 62 62 61 63 57
28 30 31 19 19 20 23 25 24 24 26 30 26 27 26 27 26 24 19 20 29 24 24 25 31 27 19 22 19 17 19 21 24 15 4 12 9 27 44 64 62 24 36 24
30 31 28 27 23 28 31 30 28 25 22 26 31 24 27 26 27 23 19 18 24 20 24 18 19 20 13 15 21 11 14 13 16 20 14 11 7 17 41 59 42 58 50 36
31 28 22 27 22 30 30 25 27 24 21 26 30 28 25 26 24 21 20 19 21 23 19 19 14 16 16 10 7 5 10 9 11 11 10 5 14 12 25 29 45 44 50 26
35 31 25 29 26 29 25 22 24 21 21 24 29 29 24 23 22 21 21 22 19 20 21 17 17 19 16 19 11 7 7 5 4 8 11 8 12 8 17 21 18 12 9 7
34 37 28 30 25 28 25 24 22 21 23 26 30 30 24 25 22 20 23 21 16 17 16 17 14 12 17 15 18 19 17 9 7 4 6 7 1 11 10 10 15 18 13 19
39 35 28 24 26 25 25 23 24 25 28 27 29 29 29 26 26 24 22 24 20 17 15 13 12 11 11 13 13 14 14 15 17 18 16 14 6 1 7 11 17 10 7 10
32 27 24 21 24 26 23 25 26 28 32 31 30 28 30 28 28 27 24 23 21 17 14 13 10 11 9 9 9 9 11 12 13 14 13 12 11 9 8 9 10 10 12 14
22 22 17 21 24 23 25 27 30 33 34 35 35 34 33 28 28 29 27 25 23 17 15 14 12 11 11 9 8 8 7 8 9 10 10 8 9 9 8 9 10 13 15 16
20 19 18 19 22 26 26 30 32 35 38 39 39 36 31 29 29 28 26 28 24 18 17 15 14 13 10 10 8 6 6 5 5 6 8 10 13 15 14 16 19 21 23 25
22 17 18 20 24 26 29 31 34 36 40 41 38 31 28 25 27 25 26 28 24 20 18 17 16 15 13 11 9 9 10 10 11 13 15 17 20 24 27 29 31 33 35 37
19 14 19 22 23 28 30 31 34 37 38 33 29 27 24 22 23 25 26 27 25 20 18 18 16 15 13 13 13 14 15 17 19 22 24 28 31 34 37 38 40 42 44 46
16 17 22 25 26 27 28 31 33 33 31 23 20 20 19 18 23 24 25 26 24 20 18 18 17 16 14 14 14 15 17 19 22 24 27 32 37 41 43 45 45 45 46 47
18 21 24 24 26 25 27 28 30 26 21 19 16 15 14 18 18 19 20 22 19 18 17 18 18 17 17 16 17 18 20 23 26 30 34 37 41 44 46 46 47 49 51 51